GFSGBSN_500_rhum_000.txt.gz
RH
40 47 43 20 17 22 21 31 60 61 57 48 48 39 48 39 36 34 42 43 32 29 25 29 27 55 72 62 58 46 41 52 60 55 46 32 25 26 29 31 25 22 26 36 15 29 30
27 42 51 39 17 23 22 39 66 67 69 57 54 46 53 52 63 60 55 56 43 75 42 30 41 34 61 54 86 50 53 55 56 56 44 36 28 28 32 27 21 25 24 38 17 29 34
16 27 34 49 33 25 30 49 62 70 79 69 55 78 61 98 71 78 93 100 75 53 97 38 46 39 44 56 87 62 52 55 57 59 46 43 34 26 29 28 25 28 25 40 20 28 36
16 23 26 49 37 30 38 56 60 78 78 71 64 64 94 99 99 74 82 94 75 71 99 72 63 43 32 53 86 67 56 61 59 60 49 44 38 33 33 28 28 27 24 37 28 23 39
14 16 25 52 40 25 50 65 58 67 73 58 72 78 93 100 100 81 79 90 93 92 78 76 74 39 25 38 65 68 59 59 62 62 53 42 44 39 35 30 28 28 25 42 30 23 40
12 16 25 39 40 28 67 77 72 66 65 86 75 96 97 99 100 100 100 100 100 96 82 96 87 38 26 30 56 67 61 62 62 63 60 57 46 39 33 29 23 31 30 38 35 19 39
11 16 24 39 37 25 65 88 87 80 76 91 93 92 99 98 100 100 100 98 100 100 90 98 64 37 31 28 39 62 67 64 66 76 60 49 61 38 30 28 42 36 27 32 38 19 40
12 16 24 38 31 26 58 99 77 74 91 85 94 95 96 98 97 99 100 98 100 98 99 98 100 50 35 23 31 45 64 63 61 58 63 52 43 37 40 54 39 40 30 33 45 16 36
14 15 22 36 41 29 56 94 81 81 93 90 95 97 98 97 96 94 100 98 86 98 76 73 81 66 29 22 27 35 45 52 53 56 49 47 44 64 50 53 29 31 31 31 51 20 15
15 14 19 32 61 22 47 76 82 85 96 84 94 98 97 98 99 98 100 100 100 99 83 72 100 92 45 26 28 30 38 50 43 46 46 44 41 52 40 35 39 29 33 31 59 21 16
16 13 16 28 58 18 34 61 93 93 98 80 94 96 97 98 97 99 99 99 79 95 99 99 100 100 73 55 38 32 68 43 41 38 43 38 41 44 48 44 48 40 44 49 67 17 15
16 15 16 26 46 52 24 47 82 74 100 87 96 97 98 97 98 98 99 100 100 89 88 99 99 99 100 92 43 62 86 87 69 53 42 43 44 48 45 44 40 48 52 70 68 16 11
16 17 15 19 36 64 20 28 65 75 92 93 93 98 97 97 98 98 98 98 98 69 56 86 96 98 100 84 80 89 90 98 71 52 62 54 65 68 51 39 47 44 47 60 50 25 8
17 17 14 18 33 53 54 16 37 78 75 90 82 95 97 97 97 98 98 98 93 65 60 68 90 98 95 92 95 99 94 68 95 66 64 55 52 88 51 48 50 48 57 56 25 10 6
19 18 15 18 28 37 60 24 23 65 71 89 88 90 96 96 96 97 97 98 92 92 96 82 81 95 93 97 86 98 98 89 88 82 59 98 90 58 56 49 58 49 54 24 7 1 4
20 18 16 16 24 31 51 51 9 43 64 81 92 82 91 96 97 98 98 97 99 98 97 92 73 82 77 79 83 94 97 79 79 98 98 95 81 71 76 78 62 41 15 7 3 0 2
20 19 17 15 27 29 46 56 6 24 60 70 63 84 91 95 96 97 98 91 94 98 95 86 72 60 82 64 76 93 96 71 90 97 80 92 87 81 74 61 35 22 4 0 3 3 5
19 20 18 16 31 27 50 55 12 16 53 69 53 71 74 84 90 95 98 96 93 95 94 76 70 90 67 82 95 77 73 76 93 94 97 93 87 46 32 15 4 0 1 3 5 10 15
18 21 19 17 30 30 52 52 8 10 47 58 60 63 64 76 80 96 95 97 98 96 88 91 93 79 77 78 82 85 94 96 93 88 77 41 17 5 8 12 2 2 5 10 18 27 31
20 22 20 17 24 40 47 58 20 7 28 52 54 69 69 69 80 85 100 93 97 96 97 96 97 96 96 97 96 96 98 94 68 40 25 24 16 8 14 14 13 14 24 31 35 44 58
21 22 22 19 17 58 43 66 31 6 16 50 50 75 66 62 72 89 97 95 97 95 97 97 97 98 96 96 97 95 96 81 62 45 38 29 36 37 35 38 41 39 36 42 55 60 56
22 24 24 21 19 58 47 63 34 9 12 50 48 75 68 64 60 83 88 99 97 97 98 96 98 97 98 95 96 94 87 91 75 74 69 64 71 74 72 65 68 74 74 67 59 46 38
26 26 24 24 22 30 55 57 62 10 11 32 51 58 79 73 70 72 81 88 98 100 94 91 93 99 98 99 97 96 94 92 86 86 91 91 92 89 92 95 95 91 79 62 46 37 37
29 28 26 25 25 24 59 53 66 11 9 20 42 39 65 79 83 80 84 90 91 97 96 93 88 87 90 96 97 96 97 97 96 96 95 92 83 86 90 91 68 50 46 47 41 37 40
32 32 29 28 27 27 44 57 65 28 4 12 29 53 49 61 84 98 95 97 81 74 67 62 54 48 41 38 38 46 54 55 48 43 42 41 39 35 32 32 33 34 36 38 49 46 29
36 41 32 30 29 30 38 56 61 70 6 11 22 42 47 37 63 87 98 97 89 45 34 27 40 32 27 24 21 20 17 15 16 18 18 20 22 24 24 24 26 35 40 49 37 29 26
40 50 38 33 32 32 36 50 64 64 64 12 17 22 36 49 40 52 87 88 73 40 37 18 14 18 20 22 25 39 53 66 62 56 57 65 73 69 71 60 55 45 35 25 28 29 29
50 54 40 36 36 34 33 53 60 64 72 74 16 18 28 34 43 40 53 75 75 46 31 25 19 17 20 25 33 38 49 66 64 74 81 75 70 54 46 30 30 32 30 31 32 32 33
65 54 47 43 41 38 36 40 61 63 65 75 84 22 18 24 32 34 34 42 63 62 44 31 36 30 22 17 18 27 56 78 82 87 81 64 46 33 34 34 35 35 35 36 36 37 37

GFSGBSN_500_rhum_003.txt.gz
RH
8 12 17 27 28 32 42 20 34 46 47 42 40 44 57 49 65 63 62 31 41 50 51 72 56 56 29 57 66 61 48 50 54 46 50 52 50 44 30 30 28 19 28 26 36 35 13
9 10 16 21 28 31 34 20 36 60 59 56 56 51 68 62 86 84 66 46 51 70 54 44 74 56 43 39 61 76 66 50 50 53 52 56 60 56 36 32 30 21 25 26 33 45 20
9 10 15 20 27 33 26 14 55 65 64 60 61 62 81 94 92 96 82 60 77 84 56 50 70 60 40 36 49 76 70 56 47 51 61 65 64 53 37 34 26 23 24 29 36 41 31
10 10 13 19 28 35 23 29 69 84 75 72 78 74 75 93 88 96 97 77 97 85 94 66 91 86 36 40 46 71 74 70 51 49 60 77 65 52 38 31 28 27 24 30 44 39 39
10 10 12 17 28 36 17 32 75 93 76 79 83 88 81 79 84 90 100 90 88 86 74 79 97 81 31 40 40 59 75 76 65 61 70 76 66 52 40 32 31 23 21 29 35 36 38
11 11 12 16 27 40 16 38 75 90 77 82 90 95 89 75 82 92 100 92 98 88 70 98 100 83 27 46 43 55 81 85 68 68 83 85 66 51 38 31 26 21 30 31 38 42 36
12 12 12 15 24 42 19 40 73 93 80 84 86 96 96 93 80 96 94 100 100 98 85 92 88 45 48 51 47 55 89 82 71 74 72 79 69 54 40 32 28 33 29 28 39 42 44
12 14 13 15 20 38 26 28 60 100 85 89 96 98 97 97 97 88 98 100 100 100 99 91 100 93 98 60 45 54 86 81 70 59 78 78 67 57 48 39 38 32 31 30 39 33 43
13 14 14 14 16 31 43 19 49 94 92 92 92 97 98 98 98 96 98 100 100 100 100 100 94 97 97 52 42 50 69 81 77 75 71 68 62 56 46 39 42 36 30 33 39 28 52
12 15 15 13 16 27 52 24 37 66 97 100 97 98 98 98 99 98 93 100 100 100 100 98 91 94 77 40 37 46 68 81 81 68 75 70 65 59 53 42 40 50 34 35 37 37 48
12 15 16 13 16 22 40 43 24 46 87 100 100 98 98 98 99 99 98 97 98 100 96 77 93 92 82 30 34 41 64 74 73 64 74 62 64 57 52 42 52 58 54 35 34 36 30
13 14 17 15 15 20 35 62 19 28 66 82 99 98 97 99 98 98 98 100 100 100 99 85 90 96 57 32 33 38 83 73 71 79 68 67 62 64 52 61 60 92 56 43 31 31 21
13 14 18 17 14 21 32 50 37 24 55 66 93 96 94 98 98 99 99 99 100 98 97 100 90 75 40 40 42 57 53 60 73 67 69 62 59 52 53 82 72 71 48 36 33 29 29
12 14 17 18 14 23 28 40 50 16 42 70 100 97 92 99 98 98 98 99 84 69 74 90 99 77 56 100 96 63 92 83 49 49 54 55 54 53 61 45 52 59 42 32 39 36 46
11 14 17 19 15 22 27 35 51 11 41 80 99 97 95 96 98 98 98 96 57 60 60 83 100 99 100 100 68 99 100 94 44 46 48 43 49 47 45 44 52 45 34 50 45 41 42
10 14 17 19 16 19 30 33 49 11 42 70 74 94 90 94 93 98 98 98 81 91 73 78 82 81 79 80 90 99 98 89 92 83 62 52 49 46 48 53 50 38 68 57 43 35 34
9 14 16 19 17 16 34 31 49 20 24 52 58 68 89 93 96 100 98 98 97 96 100 84 86 59 57 71 100 100 99 99 98 73 69 64 71 61 60 46 45 49 44 41 33 24 10
11 14 16 19 18 15 32 34 52 14 15 45 60 63 76 95 96 97 97 97 94 98 87 80 83 76 81 97 100 99 98 94 98 78 68 90 93 79 70 63 56 58 55 32 16 6 1
11 14 15 20 20 14 35 38 52 23 6 39 55 63 72 91 96 94 98 98 97 97 94 68 67 90 82 78 87 94 91 82 97 78 78 96 95 100 99 90 77 68 34 16 1 0 6
14 14 15 20 21 14 37 45 50 33 6 34 50 64 70 77 96 89 98 98 95 95 99 80 67 68 62 59 64 80 84 93 90 98 98 97 100 94 79 64 51 22 0 0 4 12 22
18 14 15 20 22 17 34 48 52 39 10 14 47 71 73 74 88 91 96 98 91 91 97 96 72 71 67 72 66 82 88 79 94 96 98 94 98 95 55 20 14 12 7 12 20 31 38
20 16 16 21 22 21 23 51 59 43 10 15 46 73 73 70 61 91 96 99 87 89 97 98 96 91 95 96 90 82 83 82 89 96 86 47 27 18 7 7 24 24 31 28 31 40 51
20 16 17 23 24 24 17 46 62 57 12 18 54 67 67 78 74 71 89 90 97 92 93 99 98 97 96 99 98 96 96 97 96 62 49 42 50 44 41 37 37 40 46 49 62 74 69
27 22 23 27 26 25 22 32 60 57 14 20 36 51 70 89 94 77 70 81 87 93 94 87 88 94 96 96 95 98 95 83 86 74 70 59 43 52 65 71 58 61 84 86 86 79 61
59 34 31 32 29 28 27 28 57 60 12 16 28 48 53 84 97 96 85 86 95 95 86 92 96 98 99 100 98 95 96 93 93 93 86 79 80 75 84 77 75 88 95 82 60 52 49
65 51 42 36 34 31 30 29 56 67 12 9 19 44 53 62 96 100 98 94 95 88 65 66 64 55 55 55 66 88 86 94 71 65 77 80 90 83 84 79 73 64 56 50 42 40 56
65 58 48 40 37 35 31 31 58 74 51 9 10 27 50 52 71 98 100 97 66 56 42 38 34 27 23 20 22 23 24 20 21 21 20 23 27 38 43 44 31 27 28 35 47 41 30
78 69 50 42 44 44 34 32 52 82 78 30 14 17 28 45 46 49 90 100 88 66 33 20 26 34 28 25 23 28 38 44 49 56 56 61 54 45 42 50 56 53 49 38 31 31 34
89 72 52 46 51 47 38 34 41 82 82 85 54 21 22 21 36 42 40 78 95 79 39 29 17 18 20 23 29 32 26 42 57 63 78 78 70 71 63 49 33 30 32 35 36 39 40

GFSGBSN_500_rhum_006.txt.gz
RH
7 7 8 8 10 16 21 26 27 15 18 44 51 55 66 60 54 46 59 59 72 74 41 33 43 82 95 88 50 36 54 57 63 58 58 70 59 55 50 41 35 24 26 25 26 24 37
8 8 8 8 11 16 21 28 22 21 48 56 62 66 70 72 50 52 48 54 73 77 48 47 66 66 99 64 69 34 60 70 60 53 64 70 68 68 53 45 36 28 29 23 22 31 32
9 9 9 8 11 16 22 31 15 21 53 67 79 67 78 70 60 50 50 58 73 88 56 64 92 78 77 68 72 40 52 82 58 51 63 85 85 69 57 51 39 27 26 21 23 36 29
9 10 9 9 11 15 22 33 16 25 54 66 76 75 73 76 69 61 53 65 81 80 67 83 95 98 58 77 74 45 50 81 62 52 58 91 87 75 62 54 43 28 25 21 27 33 34
9 10 10 10 11 15 22 33 22 22 47 67 81 79 80 84 87 80 64 72 79 92 78 84 88 92 66 79 65 49 44 71 72 63 62 100 92 77 68 59 45 32 21 23 31 29 30
9 9 10 11 11 14 20 32 32 25 46 80 81 91 86 93 97 93 85 89 91 100 87 88 88 100 90 73 64 47 41 69 82 74 84 98 99 74 68 58 48 34 20 27 36 31 29
9 9 10 12 12 14 16 28 41 20 44 75 91 94 85 96 98 95 98 99 96 97 98 86 88 96 99 89 60 45 42 69 91 78 71 78 83 53 61 64 51 33 25 30 35 28 29
10 9 9 12 14 14 16 25 42 28 38 60 88 94 98 98 98 97 95 94 100 100 100 94 82 80 100 100 61 41 44 66 93 76 80 90 80 75 77 65 49 35 25 30 32 25 30
11 9 10 12 15 14 17 22 39 41 31 53 82 95 98 96 98 99 95 95 100 100 100 98 96 100 99 98 53 38 45 65 96 96 66 75 85 84 79 65 50 36 29 31 32 29 33
12 10 8 12 16 16 16 21 34 53 27 41 59 76 98 98 98 98 98 100 100 100 95 100 84 84 95 92 48 40 46 74 97 89 76 79 92 76 86 68 52 37 44 39 33 29 34
16 10 7 12 16 17 15 24 32 53 23 48 61 92 98 98 98 98 99 99 100 100 100 99 98 100 99 82 43 42 49 86 97 88 80 78 79 93 73 69 55 53 58 50 36 31 30
26 15 7 10 14 18 16 24 31 50 22 56 78 95 99 98 99 98 98 99 100 100 100 93 74 86 92 57 46 48 51 94 100 100 87 84 82 96 84 68 62 66 60 70 44 38 26
36 26 8 9 13 19 17 24 30 47 20 60 89 93 99 98 99 98 99 99 98 100 100 93 73 93 82 44 47 47 60 95 93 86 93 95 83 76 81 76 52 65 87 80 57 38 23
38 29 12 9 13 19 18 22 30 47 20 62 83 94 96 97 99 99 98 98 100 100 100 100 67 93 59 49 60 52 69 97 91 92 77 69 73 71 74 59 51 59 77 54 42 34 26
39 31 18 10 13 19 19 21 30 48 16 65 67 67 88 96 97 100 98 98 100 90 100 90 77 75 56 96 64 72 68 82 78 78 83 66 57 66 67 67 66 85 75 71 57 38 25
42 33 22 11 13 17 20 19 33 49 15 58 56 61 75 98 96 97 98 98 99 98 99 90 60 47 86 100 100 93 78 96 87 77 78 74 63 64 71 66 60 64 96 69 50 42 30
44 37 25 12 12 16 20 16 37 46 22 42 51 62 85 99 94 96 98 98 96 91 86 83 55 58 80 70 73 81 90 83 86 74 80 72 65 63 62 49 46 52 44 43 47 40 33
45 38 27 12 13 15 21 16 41 43 35 29 48 58 91 96 98 98 98 98 98 99 75 80 75 90 100 96 99 99 70 75 80 63 59 56 56 60 54 48 59 57 54 56 47 51 46
45 40 29 12 14 14 21 17 40 43 46 13 48 50 93 95 99 98 98 97 97 99 89 74 62 69 80 75 99 98 99 95 90 79 64 57 53 56 53 58 62 53 54 57 53 56 34
44 41 29 14 14 14 21 20 26 51 53 9 44 55 91 95 97 99 97 98 97 99 96 63 70 68 59 86 96 96 98 98 90 76 68 61 54 53 50 52 58 57 62 74 67 39 18
46 37 27 15 15 14 20 22 17 59 56 13 46 49 87 94 97 100 98 96 99 98 80 63 72 84 65 69 95 92 85 95 97 97 92 96 90 95 81 77 94 95 97 80 20 3 4
42 38 31 16 17 14 19 23 17 50 57 21 54 48 75 90 78 95 95 98 98 100 97 82 82 75 89 84 69 85 100 99 84 90 98 100 99 100 100 100 99 90 72 17 2 1 3
60 41 31 22 19 15 18 24 21 26 58 39 56 53 67 95 75 90 98 93 97 97 97 97 96 94 76 78 78 85 92 93 95 94 98 97 98 97 98 95 72 37 25 16 9 15 33
83 41 31 24 19 16 20 26 24 21 56 50 39 59 66 82 73 80 94 94 90 87 96 99 99 94 98 98 86 79 91 94 100 95 98 100 100 96 64 38 22 13 22 26 26 38 47
77 50 33 25 18 17 23 27 26 26 50 57 28 57 67 80 78 81 77 91 90 89 91 94 99 99 97 96 98 97 96 93 89 91 90 66 55 39 46 43 39 27 27 42 58 66 77
94 74 53 38 25 24 28 30 28 30 49 59 24 57 50 74 90 93 86 86 90 98 88 85 93 96 97 100 93 89 91 97 95 95 96 92 84 64 72 66 64 68 93 100 95 93 96
99 98 72 81 45 33 34 32 30 32 48 61 20 57 50 59 91 97 98 96 95 93 96 94 95 100 97 98 98 98 98 91 94 96 97 89 80 82 86 95 91 82 82 96 91 70 72
97 88 80 83 71 49 39 36 32 34 49 68 15 49 56 54 71 99 98 98 92 74 61 65 55 43 50 58 63 67 57 69 75 81 86 88 86 78 80 81 76 69 66 46 42 38 46
99 96 86 88 77 54 43 39 34 37 52 74 28 23 52 57 55 70 94 98 85 65 46 34 29 30 27 29 28 28 33 38 42 50 50 47 55 71 83 77 75 70 72 67 55 50 38

GFSGBSN_500_rhum_009.txt.gz
RH
5 4 5 6 6 7 8 10 17 29 22 16 30 43 50 58 57 54 53 55 47 41 41 46 53 53 38 51 54 43 34 23 40 44 47 50 74 69 58 56 50 41 30 32 37 22 18
6 6 6 7 7 8 8 10 17 33 24 16 28 46 58 62 55 61 66 65 58 52 51 41 38 38 66 54 44 37 31 21 43 42 57 53 77 88 78 61 53 47 32 38 33 21 18
8 7 7 7 8 8 9 10 16 32 32 16 22 48 56 66 61 71 66 68 65 64 57 42 43 52 38 43 57 62 55 36 47 44 60 60 91 98 81 68 57 45 34 39 30 23 21
8 8 8 8 8 8 9 10 15 26 39 19 38 59 60 66 65 64 56 74 73 76 70 52 50 45 52 87 89 100 100 100 55 53 66 76 97 97 97 74 58 50 39 36 31 27 21
14 9 9 9 9 8 10 11 14 24 42 26 28 63 64 69 68 60 64 87 70 64 62 69 64 74 76 97 99 100 100 99 48 64 74 89 100 98 95 79 60 51 38 31 43 25 19
15 10 10 10 9 8 10 12 14 21 39 43 27 47 68 71 78 79 81 85 63 55 63 82 98 81 71 98 100 92 100 98 49 65 84 88 100 96 90 76 60 51 38 30 43 25 18
16 13 11 11 10 8 10 13 15 18 36 49 29 44 64 70 77 90 90 90 79 70 81 100 100 98 65 100 95 85 94 98 51 64 87 76 94 92 82 78 73 54 44 35 45 24 17
17 17 12 12 11 9 9 12 17 18 34 50 32 35 53 54 80 91 91 98 95 93 83 100 100 98 76 85 90 86 93 87 50 60 99 99 87 98 100 88 74 60 47 41 36 23 19
17 19 13 13 12 10 8 12 18 19 33 55 36 45 69 83 95 95 98 98 100 100 95 100 100 95 91 89 100 89 84 76 49 72 95 65 79 100 97 87 74 59 52 40 31 25 21
18 21 14 14 13 11 8 12 18 18 35 54 37 59 86 93 99 100 99 98 100 100 98 100 100 90 86 86 99 94 72 68 47 89 99 84 99 96 97 91 73 64 53 40 36 28 24
20 22 15 15 15 13 8 10 17 19 36 50 42 70 92 88 98 99 100 100 100 100 100 97 100 95 90 79 100 80 66 58 53 96 95 100 91 94 94 81 81 63 50 40 40 30 26
14 18 16 16 21 18 9 10 17 19 39 41 44 79 92 94 98 98 98 99 100 100 100 100 100 96 90 95 100 91 56 54 75 99 100 100 97 97 93 94 87 63 53 48 42 36 27
38 14 14 24 34 30 12 11 16 19 40 32 44 76 71 82 96 98 99 99 100 100 100 100 97 95 100 100 96 58 48 55 99 98 98 99 87 96 80 90 83 61 60 55 55 44 27
53 33 24 37 39 31 16 12 17 19 37 33 30 70 64 68 96 97 98 97 98 100 100 100 83 97 100 100 99 49 53 87 98 93 98 99 81 76 88 96 70 65 59 61 71 42 34
69 46 42 42 42 34 21 12 17 20 29 48 16 62 62 74 97 98 98 97 96 98 100 100 71 80 100 100 79 49 45 68 87 88 94 81 67 65 86 98 89 83 70 76 51 46 42
57 51 47 46 44 37 24 12 17 21 22 51 12 58 63 87 99 97 98 98 99 99 100 100 70 68 69 77 81 45 47 69 86 84 92 91 64 57 80 94 87 86 82 74 52 57 40
53 49 49 48 46 40 25 13 17 22 18 52 14 52 60 88 98 98 98 98 98 88 100 75 53 50 81 74 64 45 54 82 84 91 90 83 82 64 65 69 71 68 57 65 78 64 44
70 48 48 48 47 42 23 13 16 22 18 51 14 49 61 92 96 99 97 98 97 86 86 61 84 100 84 62 56 52 64 90 90 94 75 79 76 80 67 68 73 63 69 90 70 57 50
90 61 48 48 47 43 23 13 16 22 17 49 16 51 64 94 91 96 96 98 97 88 96 60 54 99 97 100 63 64 73 90 99 87 85 85 75 64 71 70 65 60 53 53 61 51 39
80 48 44 46 48 44 24 14 15 22 18 48 31 46 70 94 95 98 98 98 96 96 86 94 80 81 82 82 95 86 85 91 94 95 90 82 77 71 62 60 63 55 48 51 59 48 46
100 87 80 44 45 42 28 15 16 22 20 44 49 41 79 88 96 98 98 98 98 98 99 73 66 71 70 78 79 85 79 77 78 84 72 61 60 59 58 56 56 57 66 86 79 69 72
98 97 93 56 41 38 27 16 16 21 21 36 62 27 76 92 95 97 98 98 98 98 95 58 70 60 71 82 88 89 98 88 84 77 69 71 76 70 67 64 64 73 69 66 66 80 76
100 99 100 52 42 38 25 17 16 22 23 24 60 29 78 97 83 97 97 98 98 95 91 73 81 70 67 92 88 94 97 100 99 98 88 86 88 94 88 89 87 56 73 90 97 91 43
100 100 68 61 66 35 28 18 16 22 24 20 56 33 71 96 83 94 97 97 98 97 97 96 87 94 89 77 79 90 93 98 99 98 97 98 98 98 96 96 88 86 95 86 81 60 18
100 100 98 56 35 31 27 20 17 23 26 22 51 38 69 100 81 84 94 97 98 97 98 100 96 95 90 93 88 90 90 99 96 99 98 100 98 97 96 95 87 89 80 39 22 23 21
100 100 100 95 42 32 26 19 20 26 28 24 44 46 58 100 91 84 95 92 97 98 97 97 93 96 99 97 97 89 90 100 89 89 91 93 94 92 99 92 88 65 59 57 39 32 44
100 100 100 93 76 43 26 19 21 28 30 28 50 51 45 100 100 91 94 95 98 97 96 97 99 99 98 99 99 99 98 98 95 93 93 93 95 96 92 93 84 83 88 95 98 92 98
100 100 100 100 94 53 30 25 26 31 32 31 55 54 36 96 100 99 99 97 100 100 98 99 99 99 98 100 99 91 98 90 96 100 100 100 97 96 90 80 80 87 83 80 84 79 80
100 100 100 100 93 84 59 34 32 34 35 35 58 64 27 76 100 97 97 96 97 97 95 98 91 95 92 91 95 100 100 98 96 96 99 99 93 91 84 86 81 68 73 71 68 52 41

GFSGBSN_500_rhum_012.txt.gz
RH
10 9 9 7 6 6 7 7 8 9 10 12 20 27 17 31 46 42 42 45 52 49 43 39 38 34 34 33 30 33 32 36 31 26 26 23 33 47 36 56 65 56 46 41 38 35 22
15 10 10 10 8 7 8 7 9 9 10 12 15 34 16 22 46 45 49 56 58 46 35 34 37 39 41 44 43 40 34 34 42 31 25 30 28 48 58 58 68 64 53 44 40 38 28
19 18 13 9 10 9 9 9 9 10 11 12 16 37 23 30 57 55 58 57 49 44 42 50 49 46 42 41 33 32 37 36 35 41 32 29 34 59 68 63 72 69 57 46 43 41 29
19 19 17 15 10 10 9 9 10 10 12 12 14 29 39 26 65 69 65 55 53 59 49 54 54 36 27 45 38 41 38 32 24 34 51 26 31 45 64 70 81 78 59 42 53 43 30
19 19 18 15 14 10 10 10 10 10 12 12 14 24 45 31 35 54 66 60 65 62 54 66 52 39 32 54 69 65 48 39 40 38 45 34 28 43 88 75 87 87 54 42 55 43 33
18 17 17 17 14 12 11 11 11 10 12 13 14 23 46 35 33 49 53 60 68 65 70 73 60 54 54 58 85 91 54 93 87 52 39 32 38 46 89 82 65 78 59 49 51 44 32
52 17 14 11 13 14 13 13 11 10 11 14 14 23 48 36 51 54 76 80 77 73 86 84 77 71 69 71 96 88 69 96 100 93 56 62 54 50 84 78 84 87 76 53 53 46 32
78 57 16 12 12 17 13 14 12 11 10 14 15 23 47 41 76 91 95 85 85 86 88 97 90 99 94 95 100 75 74 72 100 100 100 100 62 57 92 95 91 91 71 54 60 46 30
63 87 52 14 12 19 15 15 13 11 10 13 16 25 44 42 99 99 99 95 90 99 99 90 98 100 100 100 89 79 78 82 97 100 99 84 43 90 94 98 92 89 68 59 66 44 28
66 93 92 22 14 19 17 16 14 11 10 12 17 30 40 42 92 97 100 96 98 100 98 83 100 100 100 100 76 76 95 83 97 94 100 81 98 98 100 96 93 89 69 71 66 45 31
76 75 98 42 16 19 19 16 15 13 11 12 18 37 33 61 79 90 97 98 99 100 95 98 100 100 100 95 78 76 100 85 98 99 100 92 100 98 99 82 97 88 72 77 62 48 32
99 96 98 74 18 21 20 17 16 20 12 12 19 42 26 67 74 84 98 100 100 100 97 100 100 100 100 75 81 100 87 95 100 99 100 100 100 99 98 97 97 90 80 68 60 48 35
77 97 98 92 19 21 19 16 20 32 14 12 20 47 23 63 70 96 99 99 99 98 99 100 100 100 100 84 96 100 91 94 100 75 98 98 99 93 96 98 95 95 80 70 59 49 34
98 100 98 98 31 17 17 16 31 35 16 12 20 48 28 52 76 97 98 99 99 99 100 100 100 100 97 86 100 100 98 100 100 74 99 98 100 94 68 98 76 83 78 67 58 51 36
98 100 99 98 43 21 16 19 38 36 16 13 22 53 28 54 95 98 99 100 99 98 100 100 88 82 80 96 98 98 94 100 100 83 94 100 91 91 78 82 91 88 75 67 66 52 35
100 100 98 96 88 37 29 32 41 37 16 14 22 52 29 55 97 99 98 99 98 98 100 100 48 56 80 95 99 65 89 95 83 94 98 100 87 88 72 93 90 85 88 74 58 52 47
82 100 100 98 84 44 36 37 42 36 15 15 22 49 26 54 98 96 98 98 98 98 100 100 41 50 69 87 57 56 94 90 60 88 99 100 99 83 90 88 93 74 82 73 66 53 46
93 100 100 99 90 57 38 42 44 34 14 16 23 48 24 64 98 95 98 97 98 90 80 52 38 45 69 88 48 60 85 84 60 68 82 94 69 71 50 68 97 98 98 97 78 53 48
100 100 98 92 89 58 38 45 45 32 14 17 23 42 26 86 97 98 98 98 97 83 65 80 53 56 96 98 44 47 63 77 67 74 72 81 74 70 78 76 70 75 76 74 65 58 58
100 100 100 91 80 56 40 45 45 30 14 18 22 41 31 91 97 93 99 98 98 75 74 76 81 78 84 59 46 52 61 100 91 91 90 81 80 79 63 56 63 66 65 72 66 60 51
100 100 99 93 82 56 44 45 44 26 14 18 24 49 31 92 98 97 99 97 98 94 84 59 71 76 93 72 48 46 55 77 82 81 95 94 83 86 75 70 72 71 78 76 72 63 51
100 100 100 95 96 67 48 45 41 26 15 19 22 39 38 76 98 97 98 98 98 98 98 96 77 78 60 78 62 80 78 74 83 64 74 76 79 74 80 70 67 60 60 63 62 60 50
100 100 100 99 96 59 45 43 39 22 16 21 23 37 50 51 100 97 98 99 97 98 98 86 81 67 65 65 81 99 90 95 98 97 93 85 77 79 80 75 68 63 57 61 56 50 52
100 100 100 100 97 84 52 40 31 21 16 21 24 28 54 46 98 97 96 98 97 96 98 68 68 70 71 87 90 100 93 96 98 96 96 96 86 84 82 69 56 56 64 59 63 67 62
100 100 100 100 100 97 71 42 32 18 16 21 26 27 54 39 93 99 96 98 98 97 96 93 84 69 75 98 100 100 98 94 98 98 96 95 94 78 79 73 70 71 68 67 63 81 84
100 100 100 100 96 97 91 35 29 19 17 20 27 27 58 40 85 99 93 97 98 98 96 97 95 95 71 91 87 65 75 76 73 86 90 88 94 99 78 84 81 98 96 90 84 63 40
100 100 100 100 100 98 77 70 29 21 18 23 28 27 61 39 85 100 91 97 98 97 96 97 97 96 88 92 93 88 76 90 90 94 84 84 84 97 96 87 87 96 94 89 78 77 73
100 100 100 100 100 64 57 63 30 20 19 26 31 30 65 39 72 100 96 97 98 98 97 98 94 95 99 98 97 91 84 77 87 97 90 97 95 94 97 90 92 97 95 91 80 77 88
100 100 100 100 100 100 66 54 27 20 22 32 30 32 69 42 62 98 99 94 97 97 99 97 98 98 98 97 97 99 99 97 99 98 100 98 98 98 99 90 94 92 97 94 86 74 71

GFSGBSN_500_rhum_015.txt.gz
RH
18 17 16 13 12 11 10 9 9 9 8 8 9 9 10 10 14 28 17 39 46 48 45 39 40 41 37 31 30 25 23 26 26 25 29 28 24 27 20 27 34 33 34 63 50 42 46
17 18 18 17 13 11 11 10 10 10 10 8 10 10 10 10 14 28 23 24 45 51 52 52 50 42 34 30 41 31 28 27 30 29 29 30 28 33 29 27 36 39 37 58 55 42 45
20 17 18 18 18 16 12 10 10 10 10 9 10 11 11 11 12 20 37 24 56 62 60 54 48 46 39 49 38 34 27 33 34 36 32 37 33 31 31 28 31 41 43 54 56 48 48
56 33 18 18 19 19 18 15 10 10 10 10 10 10 13 12 13 20 34 34 35 67 68 59 57 52 44 47 35 34 31 29 28 27 27 34 38 37 30 33 30 46 47 46 53 54 52
54 60 49 20 18 19 19 18 15 11 12 11 11 10 12 13 12 18 33 38 31 54 63 63 64 58 50 53 46 42 37 32 27 22 18 21 35 36 36 38 46 56 36 34 59 55 58
33 43 57 60 30 17 19 18 16 14 12 12 11 10 12 15 14 18 33 38 36 48 66 79 72 63 62 66 63 55 47 43 36 33 34 34 28 32 43 43 51 36 38 44 56 63 56
6 30 48 57 64 43 14 18 17 15 14 13 12 11 10 16 16 26 37 34 70 81 82 83 68 82 73 80 76 74 67 57 44 42 51 63 36 31 38 43 44 61 61 57 61 66 62
5 4 31 58 63 65 34 13 13 16 17 14 14 11 9 16 17 36 38 38 86 91 76 84 78 84 83 86 89 91 84 73 70 62 63 71 62 34 28 44 47 58 99 70 85 71 61
5 4 6 58 59 74 69 16 15 16 18 16 14 11 9 16 18 37 34 77 92 93 82 70 76 71 96 94 98 92 84 95 74 65 82 96 74 56 47 51 73 85 70 72 86 76 64
3 3 6 46 67 65 89 32 16 17 19 17 15 12 10 17 21 35 46 76 80 97 80 56 73 82 96 100 94 100 100 91 70 69 100 95 99 88 77 50 66 67 69 82 99 81 71
100 78 8 70 79 68 78 83 31 17 20 18 15 15 11 18 23 36 46 76 87 100 91 80 88 97 99 100 100 99 99 66 75 80 100 62 100 92 69 79 70 89 72 72 99 83 69
100 71 28 10 90 72 77 98 17 16 20 19 16 22 13 18 29 38 33 65 96 99 96 97 98 99 100 100 100 100 82 59 85 96 100 91 100 84 50 99 62 98 92 92 97 83 65
100 100 100 97 43 81 68 98 20 18 20 18 19 28 13 18 29 33 34 88 99 98 98 97 99 100 100 99 100 94 71 60 71 94 99 100 93 77 81 100 96 97 86 81 96 76 58
31 100 100 100 50 100 78 98 21 20 20 17 26 29 14 19 40 30 53 96 97 98 98 100 100 100 100 100 92 69 97 82 92 97 100 100 100 70 100 97 97 95 90 97 78 68 59
100 100 100 100 77 94 100 97 23 21 19 18 34 25 16 20 44 32 77 97 99 99 98 100 100 97 98 98 74 93 87 78 95 100 100 91 96 88 94 94 98 93 95 96 68 59 78
100 100 100 100 96 100 98 96 24 21 18 23 34 21 18 27 39 31 85 98 96 99 98 100 100 61 62 70 93 91 76 81 95 96 100 93 89 80 97 99 97 95 95 83 75 58 60
100 100 100 94 100 100 98 95 26 20 19 28 34 17 21 42 31 35 96 98 98 99 100 100 100 50 58 88 100 68 93 90 71 97 100 100 94 71 91 96 65 98 88 78 66 62 78
100 100 100 82 100 100 100 88 26 21 23 29 31 14 23 42 31 63 98 98 97 99 82 96 100 52 53 81 71 85 99 95 56 98 99 99 97 95 89 54 95 97 96 88 70 65 62
89 100 100 84 100 100 100 87 24 21 25 28 27 14 21 47 38 94 98 99 98 99 68 56 51 47 48 56 61 90 89 64 62 91 94 99 95 96 85 83 72 88 83 85 88 67 58
83 100 100 86 100 100 100 97 28 23 28 30 22 15 25 47 37 96 97 99 98 97 75 56 37 38 51 47 57 99 98 62 82 91 100 95 98 100 94 81 69 75 97 93 87 78 66
96 100 100 95 100 100 100 100 40 37 28 29 19 16 28 43 38 96 97 99 97 98 92 62 82 82 56 45 54 84 95 69 76 91 90 70 58 62 69 56 69 96 94 91 81 85 66
100 100 100 100 100 100 100 100 38 37 26 29 14 18 31 49 38 97 97 98 98 98 96 82 69 94 87 43 47 65 76 63 67 64 71 83 82 82 81 77 80 76 73 65 67 61 64
100 100 100 100 100 100 100 100 57 33 30 20 16 18 29 52 34 90 98 98 99 99 98 100 97 81 98 55 53 50 93 94 88 79 87 83 83 81 85 75 74 60 58 52 52 52 51
100 100 100 100 100 91 95 85 66 32 25 22 17 22 33 59 33 79 98 98 99 97 98 99 100 98 83 75 63 51 50 56 67 79 85 98 97 92 82 83 69 52 54 61 55 52 51
100 100 100 100 100 92 100 72 53 32 24 19 18 25 31 61 36 70 98 98 97 98 95 95 80 77 78 77 95 99 76 67 76 72 86 96 100 95 84 84 80 74 74 69 67 70 69
93 100 100 100 100 100 100 96 78 32 21 18 19 26 29 51 43 54 98 97 98 99 98 99 78 77 69 77 99 100 100 91 86 99 99 94 92 87 83 87 80 80 71 65 61 66 63
79 100 100 100 100 100 99 79 35 25 22 19 21 28 28 47 47 56 89 96 98 96 98 98 94 83 77 89 86 97 96 98 97 97 83 85 80 76 87 76 84 98 89 85 80 77 78
99 100 100 98 100 100 97 88 97 72 24 19 23 28 30 37 54 52 86 96 98 97 98 97 96 95 70 83 94 94 96 86 88 93 91 92 90 71 98 92 93 97 95 97 92 85 93
99 100 100 96 100 100 98 95 97 65 22 21 24 30 32 31 59 49 89 95 98 97 98 98 98 98 93 78 73 92 93 96 74 82 82 86 82 85 92 95 99 96 98 95 100 96 86

GFSGBSN_500_rhum_018.txt.gz
RH
57 43 16 18 18 16 14 13 12 11 10 9 9 8 7 7 8 8 10 11 16 22 23 20 36 39 42 35 45 27 30 39 38 33 33 30 22 22 20 22 28 19 15 25 30 38 52
56 58 42 17 18 19 17 14 13 12 11 10 10 9 8 7 8 9 10 11 14 18 33 25 29 39 44 43 58 42 39 38 34 32 29 28 27 26 22 22 23 25 21 21 29 31 41
33 57 60 47 18 18 19 18 17 14 13 11 10 10 9 9 8 9 10 11 11 16 27 36 33 49 39 59 51 48 40 42 34 31 29 27 24 25 27 27 26 24 21 22 22 29 25
31 34 53 59 56 32 18 19 20 19 19 17 13 11 10 10 9 8 10 12 12 14 21 32 30 37 49 66 49 57 47 43 40 34 29 29 32 33 34 29 30 31 24 14 16 26 24
15 17 20 24 44 60 55 25 18 19 20 19 17 14 11 11 10 9 9 12 13 14 26 33 30 26 33 64 57 48 49 51 45 40 37 34 34 38 40 38 40 32 23 14 17 23 28
32 25 19 16 11 20 47 60 50 19 18 19 18 17 15 12 11 11 9 12 16 15 30 33 31 36 41 64 65 66 64 60 56 48 43 35 32 31 28 26 26 28 27 21 15 25 31
27 29 29 22 14 8 13 46 56 61 20 17 19 17 17 15 13 12 9 13 20 19 30 36 46 72 73 84 80 75 68 62 65 61 55 46 40 35 27 20 17 28 42 36 28 22 32
9 12 17 20 12 9 6 21 51 62 57 16 15 18 18 17 14 12 10 15 25 23 28 34 70 74 84 79 73 71 72 68 75 70 74 69 49 41 37 26 23 19 29 44 40 36 38
3 3 3 4 5 3 5 9 47 58 80 36 13 20 18 19 16 13 12 15 28 32 31 31 64 70 78 66 71 87 94 97 87 86 86 84 53 72 57 43 32 26 26 35 60 62 40
2 2 2 2 3 3 3 6 42 64 68 90 15 21 20 19 16 14 14 16 34 34 29 37 51 64 87 85 77 100 96 97 79 75 99 94 78 70 59 48 40 24 20 31 90 97 59
2 2 2 20 100 73 7 5 36 71 63 95 18 20 21 19 16 18 17 21 42 39 34 47 75 88 95 100 96 96 100 100 93 100 100 76 64 62 66 64 69 35 47 56 53 62 98
2 2 2 5 100 80 100 35 57 77 64 88 34 21 20 18 17 22 18 23 44 43 39 82 98 94 87 91 95 98 87 99 100 100 92 68 71 84 72 90 60 40 95 84 97 98 76
4 4 3 3 95 100 100 78 74 81 55 85 45 23 20 18 20 24 18 29 41 39 85 96 98 95 96 95 88 90 100 100 100 96 79 84 82 92 100 93 43 44 94 97 99 90 82
3 3 4 4 100 100 98 46 92 83 56 85 41 23 19 18 25 23 17 32 40 60 100 99 98 97 97 97 78 87 100 100 98 88 93 81 82 97 95 64 46 46 96 97 96 69 79
2 3 4 4 93 100 100 100 90 96 63 94 30 21 18 22 27 18 17 34 39 98 99 99 98 99 100 56 60 93 100 93 89 70 80 89 93 98 76 77 85 83 96 97 96 75 62
3 4 5 5 100 100 100 100 100 100 71 96 26 21 20 25 22 18 19 39 57 98 99 98 99 99 98 47 58 75 75 84 76 82 100 100 100 83 99 100 98 99 100 97 99 88 76
4 4 6 63 87 100 100 100 100 100 91 78 26 20 26 27 23 17 43 37 97 98 98 98 100 92 63 64 90 98 99 98 87 96 100 100 100 97 94 93 96 98 98 98 98 81 88
4 4 97 100 100 99 100 100 100 100 100 42 24 21 30 28 22 32 44 85 95 98 99 87 74 53 52 62 79 78 82 65 62 96 99 100 100 99 88 88 98 97 98 96 91 96 88
4 4 94 100 100 100 100 100 100 100 100 30 23 25 31 27 18 60 42 99 96 99 98 59 40 41 37 43 71 79 88 83 90 99 98 99 87 98 74 99 95 97 96 96 82 78 85
4 5 84 100 100 100 100 100 100 100 54 28 24 28 26 20 26 58 46 98 98 99 97 52 30 35 34 42 82 98 92 88 91 100 100 100 100 74 80 92 98 94 89 100 95 79 70
4 71 100 99 100 100 100 100 100 99 33 31 24 30 25 24 39 64 44 98 99 99 97 66 35 40 40 45 78 79 100 95 91 99 99 95 97 97 94 72 94 98 95 95 88 82 76
4 36 100 100 100 100 99 100 100 87 34 24 26 30 22 33 57 59 52 98 99 99 99 81 79 44 35 39 66 99 100 97 89 92 91 93 97 99 98 96 84 74 65 74 80 94 91
4 61 100 100 100 98 100 100 98 73 35 28 38 27 24 42 62 72 62 98 98 98 98 94 80 60 34 35 51 96 98 98 99 97 97 100 100 90 61 65 75 76 75 78 71 70 69
8 54 100 100 99 83 99 99 100 79 34 55 29 26 23 37 56 62 75 98 98 98 98 97 98 88 62 37 39 70 96 98 81 90 74 76 84 88 78 76 73 71 64 62 65 60 53
27 73 100 100 96 92 100 100 100 88 49 60 30 24 24 36 59 54 86 98 99 98 97 98 100 100 88 46 39 44 75 82 66 63 76 80 76 70 83 69 78 74 71 65 55 65 54
27 100 94 100 100 90 98 100 100 83 85 43 30 23 28 33 58 58 97 98 98 98 98 97 99 100 100 78 48 45 42 44 45 53 62 68 76 61 74 74 87 82 78 70 56 61 53
30 100 100 100 99 94 98 96 100 92 81 32 28 26 30 30 58 56 61 98 98 98 98 97 95 82 81 73 70 78 57 52 55 59 64 76 78 76 84 74 72 92 93 81 77 75 69
21 100 100 100 88 92 99 94 96 84 81 27 30 26 31 32 80 60 65 98 98 98 98 98 99 96 86 70 76 100 98 82 85 77 84 95 95 90 82 77 97 88 93 96 99 97 80
8 92 100 99 82 96 97 98 96 91 78 30 32 28 33 35 41 64 53 100 97 98 98 98 98 97 91 96 88 90 98 100 98 99 96 84 84 90 90 95 96 97 97 95 95 96 98

GFSGBSN_500_rhum_021.txt.gz
RH
10 29 40 55 54 18 18 18 17 16 14 12 11 10 10 9 8 7 6 6 6 7 8 9 11 12 19 20 39 27 38 40 36 33 29 28 27 32 33 33 30 19 18 18 19 16 21
7 12 34 41 60 54 18 18 18 17 16 14 12 10 9 8 9 8 7 6 7 7 8 9 10 10 18 35 31 23 36 52 49 40 36 34 36 33 28 30 24 20 13 12 15 14 14
6 7 12 35 39 61 59 28 18 19 19 18 16 12 10 9 8 9 9 8 8 8 8 10 10 10 14 34 29 30 35 53 50 48 42 38 34 30 26 24 21 17 14 14 12 17 12
27 10 8 11 24 32 56 63 52 24 18 19 20 18 16 12 11 10 10 9 9 9 8 7 10 10 18 24 28 31 37 56 49 47 49 48 43 38 33 28 25 19 18 14 15 20 18
37 34 28 26 26 17 23 33 45 60 57 29 19 19 20 20 17 14 13 11 11 9 10 8 9 10 20 31 31 30 32 58 62 56 54 47 42 42 39 34 30 24 19 17 19 25 23
38 35 34 34 36 36 31 17 15 20 33 61 54 22 18 19 20 17 16 15 13 10 10 10 9 12 24 38 38 46 41 50 47 51 55 56 51 48 45 37 31 35 40 37 26 34 31
7 13 15 15 18 21 26 30 24 13 10 28 52 61 43 17 20 19 17 17 14 12 10 11 10 17 27 38 50 65 64 67 68 64 67 70 53 48 57 48 40 36 35 28 28 27 36
7 6 4 4 4 3 3 6 11 17 12 8 30 55 62 45 15 20 19 17 16 13 11 12 12 21 34 35 52 66 70 67 70 72 75 61 45 72 69 55 40 33 29 25 27 36 51
2 2 2 3 4 4 3 3 3 4 4 6 7 45 61 63 22 16 19 20 18 15 12 12 24 31 33 38 53 84 76 74 73 72 80 73 72 91 81 69 54 41 33 27 22 24 30
2 2 2 2 2 2 2 2 6 12 4 4 6 22 60 72 42 15 20 22 18 15 14 16 18 37 48 68 66 88 73 81 74 82 100 74 91 89 94 78 71 52 49 39 27 21 18
2 2 2 2 2 2 2 2 5 83 48 6 15 19 58 65 76 19 20 22 17 16 18 19 30 41 72 78 68 87 84 88 85 95 100 84 83 100 86 64 95 56 62 44 32 28 20
2 2 2 3 3 2 2 3 96 100 100 37 52 53 63 61 80 20 20 29 18 19 19 27 40 64 79 85 86 85 86 93 99 100 99 92 96 84 76 81 76 62 63 55 46 27 23
4 4 4 4 4 5 4 5 100 96 98 59 64 82 59 60 72 23 23 21 19 20 35 36 68 78 83 92 95 98 94 88 90 100 100 99 88 95 93 75 68 56 46 46 45 29 16
5 3 3 3 3 4 6 57 100 100 100 99 91 74 52 68 75 24 21 19 20 27 44 54 84 89 95 96 92 84 45 42 60 100 100 100 99 92 68 63 71 59 59 51 40 24 13
3 3 6 20 8 7 5 91 100 100 100 100 100 72 65 93 47 23 23 19 26 47 49 85 91 95 95 100 100 57 51 58 95 100 89 84 71 87 90 100 93 96 72 64 31 18 49
3 4 16 94 24 5 5 83 100 100 100 99 96 78 62 100 30 33 19 23 42 44 99 97 97 96 100 100 76 75 63 66 86 86 86 80 94 99 100 100 97 81 56 94 69 98 72
3 4 58 85 26 74 25 97 100 100 99 100 95 84 96 74 34 21 22 32 50 68 100 98 98 100 98 67 78 92 99 90 87 83 92 98 100 100 100 97 68 94 84 94 94 91 99
3 6 34 19 74 100 98 100 100 100 99 100 100 88 94 38 35 22 28 54 52 85 99 98 99 71 53 52 62 86 57 66 67 98 99 98 100 100 97 58 94 99 100 98 95 97 99
3 8 9 28 100 100 100 100 99 100 87 97 98 95 79 34 27 27 38 62 58 100 99 97 84 35 31 47 51 48 26 37 70 99 100 100 100 70 69 93 93 95 99 99 97 100 98
3 6 6 91 100 100 100 93 100 98 90 98 86 100 52 31 28 38 47 62 90 99 97 86 35 27 30 35 58 39 42 63 86 96 99 100 99 89 97 95 92 100 97 95 96 98 98
3 4 15 100 98 98 97 100 99 99 96 90 93 88 37 26 37 44 47 60 76 99 98 66 31 30 26 39 63 60 89 75 91 96 99 99 98 100 74 86 96 98 97 97 99 100 98
3 4 42 100 100 100 96 100 100 100 100 99 100 62 25 40 52 45 65 59 90 100 98 63 33 36 24 18 60 76 91 74 91 100 99 98 99 100 87 70 88 96 97 98 96 93 91
3 4 70 100 100 80 99 100 100 100 100 94 97 31 35 41 60 86 84 50 98 99 98 93 42 36 37 37 49 76 74 87 88 100 95 97 99 98 100 90 84 83 92 98 98 98 97
3 8 61 99 100 74 97 99 100 100 100 94 42 44 55 45 59 74 76 81 99 98 98 93 60 45 38 37 47 86 97 80 88 90 95 92 96 100 100 99 100 83 84 96 92 86 80
3 39 98 100 99 94 90 100 100 100 100 93 50 42 52 45 71 70 61 93 99 97 98 98 69 63 64 60 42 62 89 80 63 75 68 70 73 81 87 94 93 92 81 70 70 66 63
3 10 99 94 100 81 85 100 95 100 93 82 44 76 56 51 70 74 52 98 98 98 98 98 95 68 76 64 61 50 72 64 63 63 61 66 80 80 77 85 82 82 79 76 72 63 57
2 5 94 99 95 93 92 100 100 100 100 80 68 89 40 47 93 73 57 99 99 98 98 98 98 93 83 94 93 67 56 73 73 65 69 76 77 74 68 74 76 80 78 78 84 71 61
2 21 100 94 91 87 96 100 100 98 100 92 98 75 39 58 77 82 60 93 100 98 98 98 98 98 88 70 68 64 56 48 48 55 62 68 66 74 79 91 94 81 84 87 85 88 72
2 17 84 100 76 71 96 100 100 100 100 100 87 53 44 59 73 100 66 70 98 98 98 96 98 97 97 91 82 64 74 78 79 74 72 85 83 90 87 94 98 98 92 94 93 85 82

GFSGBSN_500_rhum_024.txt.gz
RH
58 42 9 6 12 38 46 57 27 19 21 20 17 15 13 11 11 10 10 9 8 7 7 6 6 6 7 8 10 12 25 24 29 30 26 23 25 23 15 14 16 14 17 20 20 17 16
68 49 48 9 6 19 42 53 58 22 20 21 20 18 16 15 12 11 10 9 9 8 7 7 7 6 7 9 7 8 18 28 26 29 35 31 29 27 21 15 14 16 22 26 19 23 19
17 47 51 56 30 10 16 41 56 61 28 19 21 20 19 17 16 13 11 10 8 8 8 8 8 8 7 7 8 10 13 23 26 28 36 41 41 29 25 22 20 21 22 24 20 22 24
21 18 26 45 41 30 22 12 33 48 63 55 21 19 20 20 18 16 15 11 10 9 9 8 8 9 9 8 8 10 14 20 23 26 38 51 48 47 42 34 32 29 25 20 20 19 19
10 6 6 10 37 38 34 34 25 21 36 58 63 43 21 19 20 20 20 20 17 14 11 9 9 9 10 12 10 12 16 22 25 27 27 43 56 52 49 43 40 33 26 23 24 33 35
13 14 12 9 6 7 24 30 30 37 35 21 41 52 60 43 22 19 20 20 20 19 13 12 11 11 10 14 12 13 21 25 29 37 41 39 44 57 56 52 37 40 40 37 31 34 30
4 4 4 7 12 10 6 4 4 9 26 34 23 16 33 48 60 39 20 18 20 20 18 14 12 13 12 14 13 14 24 31 43 47 61 66 43 38 49 51 44 40 36 33 36 34 30
3 3 2 2 2 2 4 5 4 3 3 4 19 23 12 18 40 61 59 32 18 19 19 18 14 14 13 12 17 30 29 32 38 48 58 57 50 60 75 66 55 55 48 44 42 36 30
4 4 3 2 2 2 2 2 2 3 5 3 3 5 16 11 10 37 60 62 40 18 19 18 18 17 18 18 18 38 35 41 48 54 62 62 59 63 67 68 62 62 54 54 46 40 34
3 2 2 2 2 2 2 2 2 2 17 51 21 8 5 7 11 23 52 60 57 22 17 18 23 28 25 28 26 35 45 62 62 60 70 55 63 69 78 78 96 71 75 67 53 40 34
2 2 2 2 2 2 2 2 2 3 97 100 88 66 7 6 15 27 42 58 63 36 21 22 27 33 32 28 29 48 72 74 72 73 70 65 73 86 81 100 98 78 98 86 68 53 41
2 2 3 4 4 4 4 4 3 16 100 100 90 100 40 10 34 42 46 56 65 47 20 24 36 33 31 29 33 75 89 86 85 88 83 88 84 89 95 100 98 93 99 100 96 80 58
2 5 5 3 3 3 3 4 4 4 72 98 100 86 96 70 75 65 56 49 63 56 35 34 36 33 33 31 64 92 96 96 98 99 96 95 91 95 100 100 100 100 100 100 100 88 45
6 5 3 3 11 60 23 6 23 6 8 46 75 100 84 80 89 68 52 48 63 45 26 28 28 30 32 69 97 100 93 90 67 50 43 98 99 93 99 100 100 100 100 100 98 78 53
8 4 4 55 100 100 83 44 15 6 99 100 100 84 100 75 93 63 52 58 58 28 26 27 37 32 67 99 94 74 61 59 57 45 78 75 90 99 100 100 99 79 83 63 72 66 60
6 4 54 97 99 100 64 50 9 24 100 100 97 73 81 90 76 79 68 76 52 26 36 33 49 60 95 100 58 38 33 48 56 53 75 69 67 84 80 67 69 57 78 83 69 41 36
4 4 88 100 99 100 100 32 68 86 100 100 98 100 99 100 85 70 69 78 31 36 42 44 84 92 100 76 32 26 29 31 34 47 58 74 78 76 62 76 91 100 92 48 68 67 42
4 4 100 97 86 100 100 25 38 100 100 100 100 100 100 100 79 97 94 38 35 41 47 54 94 98 95 38 25 19 22 22 32 54 92 96 78 99 100 100 100 100 96 100 78 44 63
4 3 34 49 50 100 100 84 99 100 100 100 99 86 100 67 79 100 78 39 35 50 62 96 99 98 59 34 30 17 20 26 50 88 99 100 100 100 100 89 64 46 86 100 92 93 96
3 3 5 16 91 100 100 100 100 98 100 100 77 97 92 67 82 88 99 34 50 66 94 100 99 87 29 38 35 50 27 36 70 97 98 100 100 98 99 96 96 77 86 92 97 97 99
3 3 5 58 100 88 92 98 89 96 100 100 100 92 97 58 89 98 48 44 77 86 100 98 99 53 21 29 47 48 32 57 97 100 99 100 100 96 93 94 98 95 98 96 95 99 99
2 3 17 93 96 80 86 98 100 99 100 100 92 100 88 68 88 61 40 50 86 78 94 100 97 34 19 26 40 41 44 83 97 94 99 98 99 99 96 98 98 99 99 96 96 99 98
2 3 41 100 93 76 87 100 100 100 100 100 100 100 95 100 100 51 47 61 82 78 98 99 94 33 22 26 39 36 66 62 90 96 98 100 100 98 88 89 97 99 99 97 98 98 98
2 9 66 84 93 94 80 90 100 100 99 96 100 94 96 98 50 59 87 96 73 97 98 98 96 40 29 19 25 29 43 50 83 91 93 100 98 97 98 99 91 99 98 94 93 88 80
2 12 67 77 97 86 88 99 94 100 100 100 100 93 100 81 53 72 71 97 88 98 99 97 98 39 34 35 41 49 44 54 76 91 91 87 82 83 95 99 92 99 93 86 90 75 70
2 4 68 81 88 77 74 85 100 100 100 100 100 100 84 100 72 56 80 98 96 99 99 98 96 67 43 36 40 52 57 64 58 67 63 85 86 86 85 88 78 77 83 75 68 68 61
2 10 63 92 86 76 82 93 100 100 100 100 100 100 50 73 67 66 99 92 99 99 98 99 97 75 60 58 38 38 45 47 47 61 56 58 63 65 65 75 74 79 77 76 78 71 68
2 5 39 79 76 77 88 97 100 100 100 100 100 95 59 96 72 82 100 94 99 99 99 98 100 96 95 85 53 49 52 58 59 64 59 51 53 66 84 82 76 78 76 85 77 66 66
2 2 25 58 74 83 94 97 100 99 100 100 100 88 73 74 68 98 100 90 99 99 99 97 90 96 100 98 81 81 70 57 56 68 54 62 76 85 75 70 73 86 87 86 91 91 88

GFSGBSN_500_rhum_027.txt.gz
RH
30 34 31 26 56 56 9 7 21 40 57 36 19 22 20 17 13 11 11 12 12 10 9 8 8 8 8 8 7 7 9 11 12 16 15 18 25 20 18 20 19 12 13 14 15 21 26
34 29 31 35 20 64 60 17 9 25 48 58 22 20 22 20 17 14 11 12 12 11 10 8 8 7 8 7 7 9 9 9 9 11 14 19 22 23 25 19 20 23 14 13 12 15 20
7 6 5 5 5 7 37 58 33 10 32 54 59 21 21 22 20 18 16 14 13 11 10 10 9 8 8 7 8 8 8 8 9 9 10 14 18 20 27 33 23 23 25 14 13 13 23
9 6 6 5 4 4 4 12 56 37 11 34 55 63 25 20 21 21 20 18 17 14 12 11 9 10 9 9 9 9 9 9 8 9 10 12 15 18 23 40 36 28 27 20 17 20 23
4 4 4 4 3 3 3 4 6 42 40 16 28 48 66 51 20 20 21 21 19 19 16 13 11 12 11 10 10 11 10 10 10 12 14 15 19 20 21 28 44 43 35 32 26 29 28
5 6 6 6 6 5 4 3 3 4 6 34 28 21 39 63 65 35 19 20 20 21 20 19 18 16 14 12 11 11 11 11 11 11 13 18 20 18 22 28 35 58 52 45 39 44 43
9 8 7 6 4 4 3 3 3 2 3 4 15 34 33 25 49 65 59 40 19 19 20 20 18 19 17 14 13 12 12 12 12 12 18 20 17 19 45 50 32 43 53 50 46 46 45
10 8 6 4 4 3 3 2 2 2 2 3 3 5 23 33 24 38 52 62 62 36 19 19 20 20 20 17 16 15 15 14 13 14 16 19 21 31 50 57 54 41 45 53 50 46 38
8 5 3 2 2 2 2 2 2 2 2 2 3 6 3 7 27 27 17 35 53 60 53 27 18 19 20 19 18 24 20 18 16 17 21 27 33 48 50 58 59 59 47 51 54 60 44
5 4 2 1 1 1 2 2 2 2 2 2 3 88 58 4 4 19 19 14 20 42 55 53 38 20 20 20 21 24 26 25 22 24 28 25 47 66 66 63 78 68 73 76 74 72 56
4 2 2 2 3 4 5 4 4 2 2 2 35 100 100 17 7 4 33 22 16 21 35 39 43 38 26 23 26 28 30 29 24 27 46 57 68 72 61 67 87 61 92 86 85 79 64
3 2 4 6 5 4 3 3 4 4 3 3 66 100 100 100 51 10 12 22 30 30 30 37 41 44 37 30 28 31 32 26 25 51 72 73 69 69 71 82 83 79 94 100 100 98 61
2 4 6 4 3 4 35 36 4 4 5 4 100 100 98 95 92 48 17 30 34 27 30 36 48 48 38 31 31 31 26 29 62 80 75 67 61 64 83 94 99 100 100 100 100 98 53
3 7 5 3 24 95 100 94 40 10 6 20 98 100 100 85 100 100 74 46 31 26 38 47 53 51 37 31 33 30 44 80 76 42 25 25 26 41 50 97 100 100 100 100 100 85 84
4 7 4 31 100 95 100 97 89 74 6 66 100 100 99 100 100 85 67 38 42 43 44 58 57 35 30 31 32 63 88 57 18 16 17 19 20 48 59 99 90 97 99 97 100 100 100
5 7 6 64 84 100 100 98 91 100 10 93 100 100 100 100 99 100 97 50 57 53 55 57 38 35 40 39 63 89 47 18 16 18 20 28 30 56 66 85 80 100 100 100 100 92 87
6 7 5 76 80 100 90 100 100 100 8 49 100 93 89 100 100 92 60 58 64 57 65 40 32 36 42 54 89 71 18 16 15 25 31 45 41 58 50 39 62 76 86 84 82 93 66
6 7 3 61 72 91 80 100 100 94 16 60 71 96 100 100 100 70 44 91 65 76 61 43 43 50 56 75 95 22 16 16 24 28 47 69 92 91 69 77 82 87 55 59 68 60 63
6 6 3 42 62 44 68 100 100 99 20 54 97 100 100 100 90 60 72 88 75 99 54 49 64 65 83 95 57 20 13 16 26 32 46 89 82 96 100 100 100 100 100 100 100 100 80
5 5 3 4 12 83 66 100 100 98 100 100 100 100 100 100 89 97 77 92 97 65 64 88 83 92 93 75 31 25 20 26 35 48 90 94 97 100 100 100 100 100 98 94 99 80 76
4 4 3 6 31 79 100 32 82 100 100 100 100 100 100 92 99 76 93 100 77 62 71 100 96 94 99 43 33 28 24 29 54 97 90 96 100 99 100 92 99 96 100 95 98 100 98
4 4 3 38 71 100 99 53 86 100 100 100 100 100 99 100 87 80 92 100 99 58 86 100 97 98 96 28 27 35 35 31 84 97 97 98 99 100 92 96 100 98 98 97 100 96 97
3 4 4 47 72 84 97 97 98 100 99 97 100 88 96 100 89 84 100 100 59 61 96 93 98 100 53 23 33 51 39 77 96 98 99 100 99 100 92 98 98 97 98 94 100 98 98
3 4 11 25 72 91 90 87 92 97 98 94 100 100 91 97 82 96 99 84 60 99 98 94 98 100 37 30 25 45 46 72 91 98 98 98 100 99 96 99 98 98 98 96 96 98 96
2 3 21 49 63 76 82 76 91 90 84 91 100 96 98 98 97 100 91 76 100 100 99 98 99 100 44 25 29 26 33 38 84 97 90 80 86 100 96 98 98 99 98 98 96 98 95
2 3 19 45 53 66 83 71 77 80 72 90 99 98 98 89 100 94 72 98 100 100 99 98 99 93 42 36 26 24 30 47 91 89 88 87 78 78 82 76 79 98 99 95 94 85 99
2 2 7 58 49 61 57 61 76 88 94 99 100 100 100 97 99 69 83 93 100 100 100 99 98 84 35 32 32 33 35 38 55 67 63 67 68 75 73 79 73 65 69 81 80 82 81
2 2 3 33 45 50 80 90 78 84 88 92 100 100 100 100 100 93 94 99 100 99 100 99 99 83 50 34 33 32 36 36 48 56 55 50 56 62 74 69 77 69 68 71 70 60 60
2 2 2 27 40 48 75 84 90 92 88 98 98 100 100 84 79 97 96 100 100 99 99 99 94 97 69 58 43 46 41 42 52 51 58 50 45 56 72 77 75 74 70 66 72 78 84

GFSGBSN_500_rhum_030.txt.gz
RH
12 9 7 6 6 5 8 17 21 42 8 26 41 57 42 20 21 19 17 15 16 16 15 13 12 12 13 12 10 9 10 9 10 12 13 12 12 12 14 15 14 12 16 13 11 12 16
9 6 5 4 4 4 4 4 7 23 42 11 20 46 57 22 22 21 18 14 13 15 15 13 13 12 11 10 7 10 10 8 8 8 8 9 11 10 13 16 17 17 17 17 18 14 12
6 6 5 5 6 6 6 5 4 4 19 38 20 26 50 51 20 23 20 17 13 13 14 13 12 10 10 9 10 10 9 9 9 8 8 8 8 8 10 15 13 15 17 21 20 26 20
9 9 10 11 10 9 7 6 5 4 4 34 43 25 31 57 44 20 22 20 18 15 13 13 13 12 10 9 9 9 9 8 8 8 8 8 8 8 7 11 11 12 14 19 27 23 25
18 15 13 12 10 8 6 5 4 4 3 4 36 42 24 34 60 44 20 22 21 20 18 16 14 14 12 11 10 10 10 10 10 10 10 9 9 9 8 10 13 15 16 19 30 36 28
16 15 13 12 9 7 6 5 4 3 3 3 5 50 46 24 39 64 51 20 21 22 21 19 19 17 14 12 12 11 11 12 12 12 10 10 10 10 11 15 15 17 15 16 18 37 40
16 15 13 8 5 3 3 2 2 2 2 2 3 9 45 46 24 38 65 64 25 20 21 21 20 20 19 16 16 14 14 13 13 12 12 11 11 11 16 16 15 15 16 18 23 25 43
18 16 9 5 4 2 2 1 1 1 1 2 2 3 4 25 32 26 33 57 66 47 24 20 20 21 21 20 19 19 18 15 14 13 13 12 13 15 16 16 17 19 20 22 32 39 30
19 10 6 4 2 2 2 2 2 2 2 2 2 2 3 23 55 37 30 30 49 64 59 42 27 19 19 20 20 20 19 18 18 18 20 20 20 19 20 21 22 24 30 40 47 59 49
15 8 6 4 2 3 4 4 4 5 4 2 2 2 3 98 68 37 31 25 26 36 56 60 57 48 34 22 19 20 19 19 19 20 21 20 22 24 24 23 28 30 46 60 61 62 49
12 8 6 3 4 4 3 3 4 4 5 4 2 3 3 58 65 58 54 41 25 26 35 39 46 51 51 48 40 29 22 19 20 24 26 27 29 27 22 32 54 51 66 68 64 62 58
12 10 5 3 5 3 5 15 56 38 5 5 3 3 4 9 100 100 100 43 20 36 31 27 25 31 38 42 42 42 37 30 28 28 29 30 28 27 38 66 69 71 71 74 80 78 54
14 11 4 6 5 29 86 99 100 100 21 13 5 4 4 99 100 100 100 70 49 27 34 34 28 24 24 29 37 40 38 31 30 32 32 33 36 46 45 44 54 67 84 94 94 82 48
16 12 4 6 9 88 96 100 100 96 76 66 10 4 20 100 100 100 91 79 32 17 28 38 34 30 30 35 40 45 40 33 33 35 38 45 32 15 16 18 38 51 100 100 100 94 87
18 12 4 6 26 100 98 98 100 88 100 81 6 4 100 100 100 100 100 86 50 24 24 38 38 36 33 30 37 44 35 33 43 55 31 12 12 20 22 18 26 27 46 91 100 100 100
18 9 4 6 32 98 65 93 56 92 100 18 5 60 100 100 100 100 94 80 75 48 30 38 38 34 35 37 52 42 36 53 62 18 13 17 20 34 36 30 36 44 61 68 79 100 98
18 6 4 5 5 91 64 69 78 100 100 7 29 100 100 100 100 100 94 95 100 87 52 48 46 47 46 53 44 35 50 81 20 15 24 26 25 38 54 92 81 68 49 56 88 94 100
14 4 4 4 3 63 65 74 100 100 75 9 89 100 100 100 100 100 74 81 95 65 66 60 53 52 53 40 33 43 87 44 14 15 20 25 32 40 67 94 100 100 99 100 91 66 82
10 4 3 4 4 14 40 87 100 100 50 10 100 100 100 100 65 57 83 100 92 77 66 62 61 58 47 40 51 89 73 18 14 15 24 50 46 54 60 90 99 100 100 100 100 100 93
9 4 3 3 5 14 61 87 98 100 19 26 100 100 100 95 92 92 100 86 94 75 89 88 71 45 50 64 97 80 27 15 17 25 55 52 71 97 94 100 100 100 99 100 100 98 99
13 4 3 3 14 34 82 92 98 98 62 100 100 89 76 88 82 95 100 98 100 81 89 83 61 78 76 99 99 32 16 21 29 52 72 73 94 92 91 100 97 94 99 100 99 99 100
15 4 3 5 38 52 83 84 100 88 91 99 100 92 63 100 99 100 92 84 100 100 86 57 82 92 99 100 64 21 22 33 37 46 78 93 96 98 99 99 98 98 98 98 100 100 99
13 3 3 12 68 75 67 75 100 84 99 100 99 100 100 100 98 99 100 100 100 100 98 56 91 100 100 91 27 22 34 35 77 87 87 95 98 99 96 98 98 99 89 96 76 99 100
9 2 2 11 60 83 34 58 87 82 89 100 100 100 100 100 100 100 88 100 100 90 75 94 99 100 100 75 23 42 42 58 84 90 95 98 99 94 98 98 98 99 81 63 67 51 80
9 2 2 18 31 51 46 69 76 73 99 100 100 100 100 100 100 95 100 100 96 83 89 100 100 100 88 82 22 37 60 46 67 96 90 93 100 79 100 99 99 98 95 89 82 62 72
8 2 2 22 32 54 68 59 71 75 81 94 99 95 100 98 98 99 100 100 96 98 100 100 100 99 93 80 21 27 37 48 75 85 83 82 90 88 86 84 74 92 95 96 98 97 100
8 2 2 22 36 56 62 72 80 88 90 90 80 93 82 86 100 100 100 99 98 100 100 100 100 100 96 50 21 30 32 53 82 87 86 70 71 64 71 78 86 76 70 82 78 87 95
10 2 2 12 49 53 51 67 73 78 78 75 91 95 91 100 98 100 100 97 98 99 100 99 100 100 86 33 22 28 47 44 64 62 57 57 65 62 64 74 81 77 73 66 70 67 65
12 3 2 4 29 45 56 63 72 96 78 72 97 91 84 88 100 100 97 98 97 100 100 100 99 100 67 35 25 30 40 43 38 51 61 60 48 52 67 70 81 78 94 94 83 87 79

GFSGBSN_500_rhum_033.txt.gz
RH
11 7 8 8 8 8 8 8 7 5 4 16 43 29 20 39 52 39 22 23 20 19 18 17 15 15 16 17 16 13 12 14 12 9 11 12 12 13 11 12 12 11 14 13 14 13 12
13 12 13 12 13 13 12 10 8 8 6 5 7 38 34 31 47 54 22 23 21 18 17 18 17 16 18 19 17 17 16 15 14 11 12 11 12 12 12 15 13 12 15 17 16 16 16
20 18 20 16 17 17 14 11 9 7 5 4 6 8 33 39 25 54 35 22 23 19 15 16 18 18 18 16 16 15 13 14 13 10 10 9 8 8 11 12 11 12 13 14 17 18 13
29 25 22 18 18 16 12 8 6 5 5 5 4 5 9 47 27 34 57 21 23 21 15 14 16 17 18 17 15 14 13 14 13 10 9 8 8 8 8 8 7 8 9 12 13 14 16
29 27 23 22 19 13 9 7 6 4 3 3 4 3 4 18 48 23 50 47 21 22 18 14 13 16 15 14 13 12 12 12 12 11 9 8 9 8 7 8 9 10 9 10 12 12 13
28 26 23 19 14 10 9 7 5 4 3 2 2 3 3 4 44 33 24 58 34 22 21 18 17 15 14 14 14 13 12 11 11 10 10 10 9 8 8 11 10 10 10 11 12 14 14
31 30 26 17 12 10 7 4 2 2 2 2 2 2 3 3 10 53 28 26 63 23 22 22 20 19 18 16 15 14 13 13 12 12 12 11 10 11 12 11 11 11 12 13 18 17 17
36 35 25 16 12 8 4 2 2 3 4 4 2 2 3 4 52 71 47 30 47 62 26 21 22 21 21 20 18 17 17 16 15 14 13 12 12 12 12 13 13 15 17 17 18 19 18
40 34 24 16 11 6 3 3 3 3 3 5 5 2 3 3 36 87 59 43 31 57 66 36 21 21 21 21 21 21 20 19 18 18 17 16 15 17 18 19 19 19 19 19 19 21 20
42 32 25 17 9 4 3 4 4 4 7 4 6 3 3 4 65 99 98 54 36 34 61 68 48 29 20 20 20 21 20 20 20 19 19 18 19 19 18 17 21 19 22 25 24 23 21
40 30 23 15 9 3 5 14 30 83 100 100 5 5 4 4 100 100 99 97 77 37 46 54 65 54 39 32 28 24 21 19 19 18 18 19 20 21 22 25 26 27 29 29 28 26 24
38 30 20 14 6 4 14 52 81 94 100 81 63 9 5 4 96 92 76 100 100 72 39 36 43 58 58 53 49 48 44 40 40 38 35 32 30 28 28 32 33 35 37 41 46 53 39
34 26 19 15 5 5 29 58 58 90 100 85 91 35 6 4 55 100 100 100 87 68 58 45 35 33 44 46 44 44 42 38 39 38 36 34 31 32 37 40 37 30 18 15 16 18 26
30 25 20 18 4 4 37 75 68 73 99 97 100 80 7 4 100 100 100 100 92 55 57 53 41 33 28 26 24 24 23 29 36 37 35 31 35 39 31 22 16 15 17 20 23 18 16
31 24 22 17 3 4 37 73 69 81 94 94 86 54 7 4 100 100 100 100 92 94 77 53 39 39 34 29 26 25 28 36 42 38 33 34 40 26 15 16 24 31 48 54 40 34 32
28 23 23 14 3 3 21 61 83 100 100 97 58 8 5 4 86 100 100 100 98 76 74 53 46 38 35 31 28 28 31 39 40 37 36 44 22 19 23 30 41 49 50 65 82 83 80
28 25 25 11 3 3 13 57 75 92 100 89 30 5 50 99 100 99 100 99 87 90 74 47 36 35 29 31 26 25 37 34 36 35 56 16 17 23 29 45 56 59 66 84 95 84 97
25 22 24 6 3 5 20 64 93 98 100 66 11 8 100 100 98 99 100 100 98 100 66 54 39 32 28 24 22 34 42 37 36 65 24 14 20 39 56 61 70 72 99 100 100 96 98
24 22 19 2 3 10 43 73 92 100 100 22 11 42 100 100 100 92 98 97 97 100 99 68 53 37 29 32 37 36 39 38 61 36 13 23 44 45 47 68 71 78 99 99 100 100 91
22 20 10 2 14 12 56 86 88 100 47 34 87 100 100 100 99 85 96 100 100 86 82 71 64 53 48 49 44 42 46 70 42 17 28 53 59 54 67 88 98 96 90 100 100 99 97
21 20 6 2 28 26 63 79 97 86 41 98 100 100 100 100 94 100 100 100 100 90 79 79 84 77 62 55 43 48 79 35 22 33 52 61 75 68 99 94 99 99 99 100 100 100 90
21 19 5 2 52 28 56 90 100 53 85 93 100 100 100 100 100 100 100 88 81 86 79 98 97 76 52 53 63 88 43 28 34 55 55 73 83 91 99 97 98 99 99 72 76 92 76
22 18 6 2 65 39 48 70 91 36 52 97 100 100 100 100 97 82 88 77 100 97 99 94 72 55 64 81 90 75 29 41 76 64 82 87 93 96 97 97 100 100 72 61 71 49 60
23 18 6 2 44 55 25 38 62 59 81 98 100 96 94 75 80 95 92 79 100 100 100 82 66 76 81 97 82 32 31 72 88 76 75 91 96 93 94 98 96 100 99 70 83 46 16
23 17 6 2 30 27 29 55 92 99 97 100 100 100 100 100 100 93 82 100 100 100 100 94 91 94 95 94 59 32 54 66 86 75 78 94 98 94 93 96 98 99 99 80 84 97 93
23 18 6 2 24 35 34 57 100 100 100 96 90 99 87 88 93 99 100 100 100 93 100 99 100 93 98 92 52 38 65 58 70 82 88 83 85 83 74 65 69 84 99 98 95 93 100
22 18 7 2 24 38 45 48 92 90 86 98 93 89 93 98 90 88 92 100 100 100 100 100 100 100 99 94 44 29 52 58 92 84 80 75 76 72 67 70 76 73 88 76 96 98 98
21 18 7 2 11 30 37 53 58 72 67 75 84 90 96 83 94 100 98 100 95 97 99 98 100 100 100 83 37 24 44 67 85 76 74 62 66 56 54 67 77 75 73 79 67 68 89
21 20 9 2 2 22 34 40 45 52 64 68 79 80 86 87 95 98 100 93 93 100 99 100 100 100 100 78 30 27 44 71 67 67 58 53 45 44 58 70 68 66 73 74 72 69 74

GFSGBSN_500_rhum_036.txt.gz
RH
26 37 29 24 22 17 16 18 17 15 12 10 7 7 10 20 41 11 44 48 47 27 22 19 18 17 16 14 15 17 14 10 10 10 14 14 13 9 7 8 10 9 11 12 13 13 12
23 32 35 31 28 25 24 22 20 14 11 8 9 6 7 7 30 39 25 44 53 27 24 21 20 19 18 18 17 21 19 17 14 13 12 11 16 10 9 10 11 10 12 13 15 15 14
16 25 33 33 31 30 26 19 15 12 10 8 7 6 5 6 7 40 41 50 57 35 25 22 20 20 20 22 23 26 24 24 20 16 13 12 16 13 13 13 12 11 12 13 19 19 13
20 24 27 32 32 27 20 16 14 12 10 8 7 6 5 4 5 10 51 38 52 52 24 24 20 18 20 23 22 24 27 28 25 21 16 14 16 15 13 12 12 11 11 10 16 14 13
19 21 24 23 21 17 14 12 9 8 6 4 3 4 4 3 4 5 26 47 41 54 25 25 21 17 18 21 22 22 22 25 24 21 18 16 15 14 13 12 9 9 8 8 9 9 10
20 25 26 27 26 19 14 11 8 5 3 2 2 2 2 3 3 4 11 48 27 42 38 25 25 19 16 18 20 20 20 20 21 18 16 15 13 10 12 11 9 8 7 8 10 10 12
20 26 29 32 29 21 15 12 7 3 2 2 2 3 2 2 3 3 90 86 39 30 55 23 26 21 18 16 17 17 16 15 15 15 13 12 10 12 13 12 11 10 9 8 9 10 11
19 25 29 31 26 20 18 14 5 3 3 4 4 4 4 2 3 16 100 61 44 46 67 36 24 24 19 17 16 15 16 15 14 13 12 12 13 13 12 13 12 11 10 10 9 10 8
18 23 29 29 25 22 22 13 3 7 14 28 26 6 4 3 3 46 100 38 100 60 52 77 23 24 23 19 19 18 17 16 15 14 14 14 14 14 14 13 13 14 12 14 13 13 12
18 24 30 27 26 27 25 4 6 27 56 77 72 48 4 5 3 88 100 100 100 100 53 78 51 21 23 22 21 21 20 19 18 18 18 17 17 16 16 16 17 16 17 16 16 15 15
19 21 26 25 28 28 11 3 22 60 92 100 100 83 16 8 3 81 100 100 100 100 84 57 80 39 22 21 21 22 21 20 20 20 20 18 19 19 18 19 17 18 17 20 23 24 23
19 22 26 25 26 22 3 4 30 68 73 72 87 80 56 32 3 96 100 100 100 100 86 57 60 66 41 24 21 21 20 20 20 20 20 20 22 29 32 32 32 30 28 28 28 30 25
19 22 24 24 20 8 2 4 55 85 76 94 100 100 86 31 4 97 100 100 100 99 75 72 44 62 66 55 36 31 29 30 33 34 39 42 39 36 33 31 28 29 34 31 26 20 19
18 21 23 19 15 3 3 15 73 66 86 100 59 78 87 10 4 100 100 100 96 89 99 74 59 40 55 63 59 55 48 49 48 46 41 30 31 31 37 35 39 36 25 20 19 17 23
17 19 21 17 9 2 4 52 73 94 100 100 94 51 60 5 10 99 98 100 97 100 100 88 66 45 36 37 48 51 45 37 33 29 28 28 31 36 44 39 25 20 19 22 26 35 36
18 19 21 14 4 5 9 60 78 100 98 100 87 76 7 28 94 100 100 100 100 100 100 88 76 64 46 35 28 27 25 25 26 28 28 28 34 48 36 19 20 18 23 39 63 54 51
19 18 21 10 2 14 8 55 84 94 92 100 39 37 9 16 100 100 100 100 100 99 100 92 68 43 49 38 34 31 31 30 30 27 23 33 38 38 18 23 25 34 51 74 88 98 98
18 19 20 6 3 16 11 68 91 90 100 55 38 45 7 51 96 100 100 98 100 100 100 71 58 42 30 33 36 34 33 29 26 21 31 37 47 18 25 38 46 58 82 98 100 100 96
18 19 18 5 8 12 52 77 89 100 72 51 95 41 13 100 100 98 100 100 100 98 87 70 51 37 24 25 29 27 26 26 21 28 36 46 18 30 53 67 68 73 100 99 100 100 79
18 20 16 4 21 34 53 89 94 71 27 98 99 38 11 91 100 100 97 94 100 95 94 76 58 38 30 23 24 30 32 24 25 37 47 18 51 53 71 73 86 93 95 98 100 96 99
19 20 15 4 25 48 73 85 53 38 21 69 100 99 76 94 83 89 92 94 100 93 94 94 66 51 37 38 38 34 24 28 39 46 21 49 72 78 93 92 100 98 79 94 98 77 86
18 20 16 4 19 23 49 60 52 75 70 100 96 100 96 94 56 85 96 100 99 82 77 78 71 65 57 50 40 43 36 42 54 20 42 78 100 100 95 98 98 95 87 67 70 43 36
18 20 18 4 15 24 41 44 73 80 91 100 100 100 98 99 100 94 98 90 86 88 74 80 80 73 67 59 52 48 50 56 26 53 82 90 95 91 88 96 95 89 78 65 74 19 24
19 19 19 5 11 19 37 49 62 85 98 100 99 100 100 99 98 92 91 70 67 81 79 95 84 82 68 70 85 66 73 25 62 72 75 94 93 85 96 98 99 91 70 69 82 29 34
21 19 19 6 7 30 30 44 60 97 97 100 100 99 97 89 76 67 70 64 91 99 94 97 97 97 98 82 89 79 28 56 86 93 84 96 80 90 86 94 100 95 89 96 98 96 62
20 18 19 7 4 27 35 40 59 84 92 92 93 96 79 73 74 66 78 87 91 82 96 100 100 99 84 81 86 34 42 68 94 80 93 80 77 79 86 94 76 94 100 100 98 98 98
20 20 18 10 3 32 62 47 74 66 87 78 85 70 80 88 90 68 79 82 84 91 100 100 100 94 88 97 88 37 49 75 93 83 100 71 67 66 69 73 76 74 82 76 95 98 98
21 21 18 12 2 26 59 95 74 69 77 98 95 80 90 85 84 84 73 91 100 99 94 94 100 92 87 87 75 38 57 63 91 92 93 64 60 52 58 68 77 78 77 81 73 90 100
23 21 18 11 3 9 34 71 78 64 68 73 76 82 78 73 76 76 73 76 85 96 99 100 92 89 96 78 57 32 50 61 91 92 82 56 51 47 61 74 78 80 78 79 67 56 70

GFSGBSN_500_rhum_039.txt.gz
RH
11 11 12 15 21 34 36 34 31 30 27 23 19 16 12 10 8 6 6 52 10 24 48 41 30 22 20 17 15 15 15 13 12 9 7 7 7 7 10 15 12 11 10 9 12 13 14
11 11 12 13 18 24 28 28 26 23 21 18 16 16 12 9 7 7 5 21 27 33 54 45 29 24 20 18 17 14 14 15 12 10 8 8 9 8 10 13 12 10 9 10 11 12 12
11 11 10 11 12 18 20 24 22 21 19 17 14 13 11 10 8 6 6 5 50 29 52 52 28 26 21 18 19 17 15 15 15 13 10 11 10 13 12 13 11 9 13 12 10 12 12
12 11 10 10 11 11 13 13 12 14 12 11 10 9 7 8 8 7 4 5 15 48 46 56 34 26 22 20 20 20 19 19 20 17 16 16 16 16 14 11 13 15 14 12 11 14 12
12 13 11 13 14 15 16 16 15 13 10 9 7 5 4 3 4 6 6 4 12 48 42 56 40 27 24 20 20 22 21 24 26 27 23 25 23 20 17 18 15 18 18 14 12 14 11
12 13 13 14 16 19 21 20 19 16 14 8 3 2 2 2 2 3 5 6 84 38 42 62 58 29 26 20 20 23 24 26 32 34 32 32 30 25 26 22 21 21 18 17 14 13 10
14 14 13 14 16 20 22 23 21 16 5 3 3 4 4 4 3 2 3 31 100 90 41 46 69 35 30 22 21 24 26 26 28 30 30 31 27 31 31 23 21 19 18 15 10 9 8
16 14 13 14 17 22 24 22 14 3 3 8 18 51 24 9 4 3 3 94 100 88 59 53 82 60 30 25 20 22 24 25 25 29 26 26 25 25 21 17 15 13 12 11 12 12 10
19 16 14 14 17 21 24 16 3 3 6 40 97 100 100 32 6 4 18 68 100 100 77 66 64 67 28 27 20 19 20 21 21 19 19 18 18 18 17 15 14 13 12 12 12 12 11
20 17 16 17 19 23 20 4 2 3 31 63 100 100 100 76 8 6 11 100 100 100 88 84 57 75 25 27 23 19 17 18 18 20 16 15 17 16 15 15 14 13 13 14 13 11 10
23 19 16 16 15 17 8 3 4 4 60 92 63 77 98 94 70 7 28 100 100 100 100 90 64 69 26 26 23 22 19 18 18 18 17 16 16 18 18 18 16 16 15 16 16 16 15
25 17 16 14 14 14 4 11 8 22 64 80 88 98 100 78 70 5 44 100 100 100 100 85 59 72 40 23 25 25 22 21 21 19 19 18 19 19 20 19 18 18 20 26 27 24 17
24 18 16 15 14 9 7 15 32 60 87 99 100 97 98 100 28 4 83 100 100 100 96 90 75 60 68 26 22 23 23 22 22 21 20 20 19 20 21 28 33 30 28 24 22 20 15
25 18 16 14 14 5 11 13 58 71 91 97 84 100 76 83 7 6 99 100 100 98 97 98 81 54 88 48 23 22 21 22 21 20 23 25 27 32 40 32 26 23 23 36 26 24 19
27 19 16 14 14 4 10 27 77 69 72 76 98 95 86 41 7 27 99 100 100 88 99 100 84 54 58 78 47 31 24 24 28 33 36 41 42 39 28 28 28 32 29 26 24 20 17
32 20 15 15 13 5 9 47 57 63 95 100 82 95 100 25 22 85 100 100 93 94 100 99 96 76 44 79 73 63 59 52 50 49 47 40 34 27 27 32 40 35 27 22 21 26 29
34 19 16 16 11 10 33 55 75 99 90 54 81 100 89 48 34 100 100 100 100 100 100 98 98 89 50 41 56 62 58 55 52 40 29 28 26 26 35 41 34 24 19 24 32 46 74
30 18 17 17 8 15 46 75 73 51 82 61 80 97 61 36 83 100 100 95 100 100 100 95 86 91 69 46 36 33 36 34 29 28 30 27 20 34 44 29 19 19 24 40 60 93 96
26 19 18 17 5 16 53 58 50 48 93 100 54 75 35 55 100 100 98 100 100 100 94 92 79 62 66 72 51 37 32 32 33 33 28 20 28 46 22 18 24 31 68 90 95 72 65
27 19 20 18 4 15 49 26 74 90 98 99 88 44 47 100 100 100 100 100 100 100 93 78 63 57 43 37 43 41 37 36 33 27 18 26 43 20 21 46 52 76 100 100 91 70 83
29 22 21 18 6 15 43 27 46 56 100 83 42 79 96 89 100 100 100 100 100 100 91 78 62 48 42 35 27 28 30 26 19 19 32 45 24 21 60 76 94 99 99 91 95 82 33
33 24 22 18 7 16 35 35 36 94 78 38 47 98 100 85 86 80 94 96 100 96 91 83 63 54 40 34 25 26 23 19 23 35 52 21 34 68 96 90 98 98 89 86 83 44 19
38 25 21 19 8 18 27 46 60 100 99 67 60 80 74 70 68 78 88 87 88 74 60 64 68 49 44 35 32 32 33 28 36 49 26 31 77 92 98 100 88 90 83 89 85 51 40
37 25 19 19 10 10 37 46 66 80 81 86 55 47 40 45 77 73 69 87 78 68 63 59 61 62 56 52 49 41 40 49 53 27 26 80 82 86 98 94 90 94 100 80 75 83 69
33 28 19 20 11 5 41 37 45 72 77 71 83 71 57 52 44 51 73 66 50 63 64 68 91 88 76 67 62 67 64 57 40 23 79 88 84 96 92 93 92 96 96 81 85 89 95
33 34 23 20 15 4 34 57 62 59 71 77 71 73 86 84 80 67 57 59 63 67 75 85 78 82 96 100 85 78 76 46 28 88 95 96 94 90 79 71 77 80 81 67 76 87 89
36 37 31 20 19 5 22 42 68 65 58 57 57 63 62 62 63 68 68 67 84 86 89 93 100 95 100 99 82 77 50 26 61 96 100 89 89 77 72 78 76 68 65 66 70 80 88
42 36 29 18 19 12 12 39 55 59 71 61 60 60 70 61 55 58 71 81 92 84 88 100 100 100 100 89 90 83 31 46 77 97 88 87 77 54 54 59 76 68 75 80 77 72 73
47 34 19 17 18 15 4 33 36 55 55 61 63 70 76 86 75 63 81 86 99 100 97 100 100 100 100 91 88 74 35 49 73 96 88 72 62 52 55 67 67 65 68 71 80 89 86

GFSGBSN_500_rhum_042.txt.gz
RH
29 18 12 10 9 9 10 10 10 11 15 21 26 25 24 22 21 18 12 8 7 8 47 33 36 46 34 30 29 24 20 18 18 16 15 13 9 8 7 7 6 5 5 11 14 13 11
33 26 16 11 10 11 11 9 9 10 14 17 20 22 22 20 18 18 15 10 6 6 32 22 36 48 38 30 35 22 20 18 18 16 15 14 11 8 6 6 5 5 5 11 14 13 12
36 34 22 14 12 12 10 11 12 11 9 11 14 12 16 17 17 16 14 11 9 5 6 39 37 55 38 30 28 23 19 17 16 16 15 14 11 9 7 7 6 6 10 16 14 14 11
37 39 27 16 15 15 13 14 15 16 16 16 15 11 12 9 11 12 12 12 9 7 5 44 45 63 35 41 26 22 21 17 15 16 16 14 12 10 10 8 13 14 13 15 14 12 11
37 45 28 20 19 17 16 15 16 17 19 9 5 7 8 8 10 8 7 8 8 7 8 52 48 65 44 34 28 23 21 19 17 16 17 17 14 13 11 12 17 17 15 15 14 12 11
41 42 28 23 20 18 16 15 18 16 6 4 3 2 3 3 3 2 3 4 5 50 17 100 66 55 50 38 29 25 22 21 20 23 21 20 19 15 15 17 18 24 18 16 14 11 14
44 42 27 25 20 18 16 17 16 6 7 7 3 13 33 63 15 9 3 3 4 100 48 86 54 51 52 38 32 24 22 23 23 24 27 23 22 20 38 24 28 19 17 20 22 15 13
44 39 29 27 21 17 14 15 9 8 14 6 26 100 92 100 90 16 5 4 49 100 100 100 73 48 64 43 32 25 22 22 25 29 29 30 33 38 31 30 32 27 29 29 30 26 17
41 36 34 32 18 15 13 13 6 12 10 6 48 100 100 100 100 37 6 6 100 100 100 100 100 58 90 69 34 26 25 28 31 30 32 34 36 34 30 30 33 28 26 23 20 18 15
42 39 39 32 16 16 14 7 8 10 11 26 66 100 89 84 85 68 7 8 100 100 100 99 99 58 77 72 34 28 24 27 26 30 30 31 33 30 27 26 22 18 17 16 15 14 12
35 40 45 25 18 14 12 7 8 18 20 62 85 72 89 91 80 94 6 30 100 100 99 100 98 76 64 72 34 26 23 25 26 24 22 25 24 22 23 20 17 16 15 15 14 13 11
32 43 45 21 18 13 9 9 12 48 65 78 95 89 86 92 90 59 5 88 100 100 100 100 83 73 62 72 31 28 22 22 22 19 19 18 19 21 19 19 18 18 17 18 15 13 9
28 48 36 21 16 13 8 20 36 62 67 72 71 95 97 83 82 59 8 93 100 98 100 94 65 71 61 70 27 26 23 21 21 20 21 20 22 20 20 19 19 18 19 20 20 16 13
29 49 30 22 15 12 10 48 54 61 74 76 90 100 87 94 100 27 59 100 100 100 100 100 95 95 66 75 26 28 24 23 22 22 22 21 19 20 21 21 21 25 27 31 20 16 14
34 47 30 21 16 11 17 66 77 96 99 87 74 75 100 94 98 15 84 100 100 100 100 99 89 84 62 86 29 24 25 26 24 24 22 22 20 23 31 34 35 31 28 26 23 23 17
36 49 31 20 16 9 14 52 56 62 44 77 100 86 100 96 64 19 94 100 100 100 100 100 98 82 53 78 44 23 23 23 23 23 22 26 27 31 41 40 32 25 25 25 26 24 20
41 48 33 20 16 9 16 25 38 78 52 70 95 98 98 39 30 89 100 100 99 99 98 100 92 89 55 76 71 38 33 28 25 27 30 40 38 42 38 30 24 23 26 31 26 19 29
41 49 32 20 16 9 16 24 39 64 95 63 69 86 99 91 86 100 98 100 100 98 100 100 89 90 54 62 98 75 63 53 50 52 54 51 45 30 27 23 22 27 34 21 22 48 38
42 50 29 20 17 9 18 29 68 69 82 98 45 48 76 94 98 100 99 100 100 100 100 99 100 93 51 47 67 88 77 65 60 56 50 38 30 29 22 22 31 28 21 39 46 54 58
41 48 29 22 17 9 20 37 53 73 88 48 26 30 98 99 100 100 100 100 100 100 98 97 88 92 69 52 46 43 48 48 44 36 34 33 28 21 22 32 23 26 64 75 69 62 80
41 47 32 27 18 11 22 39 79 47 47 53 60 100 90 99 100 100 100 100 100 98 92 77 69 64 64 76 66 55 42 37 36 35 33 26 15 18 37 22 26 53 68 67 83 89 75
36 48 35 32 20 14 15 36 61 49 55 83 100 75 94 96 91 100 100 100 100 100 82 70 62 53 50 44 48 52 49 40 37 30 15 15 35 35 27 38 70 83 82 89 100 100 96
32 46 36 36 22 16 9 26 34 28 69 74 93 92 82 94 95 94 93 75 59 74 66 60 50 42 41 37 37 32 28 23 22 15 14 28 35 26 67 79 75 88 97 98 100 96 90
29 44 40 37 22 20 8 25 27 34 54 64 57 57 84 76 60 72 61 52 59 58 46 46 56 49 42 41 35 31 25 22 16 15 31 42 22 59 90 84 98 100 95 94 88 78 78
29 39 45 36 18 22 11 16 24 29 39 52 46 35 58 72 61 59 63 66 68 53 49 46 59 53 44 40 35 29 32 25 27 39 42 22 58 80 90 98 95 99 94 86 64 76 72
28 36 48 30 18 22 16 12 31 26 44 43 36 31 27 35 37 36 50 63 45 47 56 54 60 74 71 62 55 47 44 52 43 49 22 43 86 90 89 85 84 70 77 79 65 71 65
29 39 43 28 14 20 20 8 36 33 36 57 45 42 42 44 40 29 63 57 49 55 59 68 70 79 82 99 100 78 80 72 55 32 30 64 98 89 73 75 66 66 78 70 68 64 59
30 42 37 27 12 15 18 13 26 39 45 44 57 54 52 57 59 57 62 63 60 80 79 70 89 100 100 100 99 89 75 69 40 33 61 88 91 80 56 59 64 67 64 71 84 86 67
36 44 34 27 12 12 15 14 6 48 55 42 54 54 56 47 57 50 61 61 79 82 74 84 99 100 100 99 97 83 74 55 29 41 78 93 74 60 58 74 66 60 68 76 81 88 87

GFSGBSN_500_rhum_045.txt.gz
RH
38 28 28 38 46 32 22 21 16 11 11 11 12 13 13 15 19 20 23 26 23 17 9 6 6 22 36 39 40 52 33 26 28 24 21 17 13 12 14 15 16 13 12 12 12 10 7
43 31 31 34 42 31 26 24 18 13 12 12 12 12 10 10 16 19 20 26 24 21 14 8 6 15 42 47 36 38 55 39 25 23 24 21 16 13 10 11 11 11 11 10 9 7 5
49 34 34 32 32 31 32 31 16 14 12 12 10 6 6 10 12 19 19 21 23 20 17 10 6 19 46 35 47 33 34 37 26 22 19 20 20 17 13 10 9 8 8 8 7 7 6
48 38 32 33 36 38 40 27 16 12 11 7 7 8 9 8 6 10 23 21 22 18 14 17 9 8 37 33 42 36 31 27 25 23 22 19 17 16 15 13 10 8 7 7 15 9 10
45 41 32 32 42 45 40 19 14 11 8 7 10 14 12 8 6 4 5 21 22 19 13 27 29 10 40 33 40 35 30 31 31 21 20 20 58 30 15 14 12 9 8 10 13 14 10
46 47 35 36 46 46 26 17 11 9 6 8 11 8 8 20 44 20 3 5 19 19 14 100 82 9 25 41 44 36 30 27 52 22 20 22 36 28 19 14 12 16 12 10 9 11 9
48 51 35 37 42 37 20 14 10 8 8 9 9 24 82 98 100 95 51 3 6 15 34 74 15 13 52 54 49 38 44 26 24 26 21 19 19 18 27 22 18 13 11 11 15 14 10
59 56 36 33 37 29 18 11 9 10 11 16 11 83 100 100 94 94 88 18 5 9 64 17 23 26 86 85 56 41 60 45 26 23 22 18 18 35 27 19 18 12 13 18 19 14 6
75 55 36 34 37 26 15 10 10 18 28 34 27 94 98 93 86 100 100 18 5 18 100 63 29 58 100 69 56 42 34 28 32 26 26 28 36 33 25 22 31 24 18 21 19 18 16
83 51 32 33 35 21 12 9 17 48 57 58 62 64 67 70 68 92 54 9 16 100 100 99 48 99 88 61 65 40 35 31 26 29 30 30 36 34 37 36 34 27 26 26 26 24 19
76 42 30 32 34 18 12 10 40 74 73 90 69 81 82 92 76 81 54 5 55 100 100 100 83 100 75 61 63 52 31 26 27 29 32 39 36 42 43 38 33 27 25 24 20 17 15
73 36 32 32 28 16 11 11 27 51 91 100 100 96 90 100 72 61 22 28 100 100 100 100 100 98 71 57 91 55 28 26 33 28 32 32 42 41 34 29 25 21 20 18 16 14 12
60 32 33 34 24 14 10 14 25 42 54 53 79 93 76 84 81 48 9 82 100 100 100 100 94 84 81 58 95 45 32 25 26 27 29 32 32 29 24 22 19 18 19 18 15 13 12
53 31 33 33 25 10 10 18 36 54 46 75 71 81 92 94 99 27 39 100 100 100 100 100 87 96 70 76 96 36 34 26 28 25 25 27 26 23 22 22 20 19 21 19 15 13 12
52 32 33 31 25 8 10 19 50 55 76 54 79 72 82 91 87 29 83 100 100 99 98 95 100 84 67 75 90 33 31 25 23 26 28 23 24 24 22 20 21 30 25 24 23 20 15
45 34 35 30 24 8 10 20 47 67 88 93 82 69 77 74 46 81 100 100 100 100 84 90 82 64 69 71 81 28 29 26 25 27 25 24 24 22 23 24 26 30 32 27 23 20 16
41 37 35 31 22 8 9 23 63 44 83 96 57 47 49 27 71 100 100 100 100 100 100 97 97 82 74 71 69 27 27 27 27 26 24 23 22 28 33 32 35 36 28 21 18 19 19
39 42 36 31 22 9 9 31 57 32 47 41 42 13 71 99 100 100 100 100 100 100 100 90 82 90 82 72 65 28 24 25 25 24 23 24 26 38 40 42 34 23 16 14 24 21 19
44 44 38 34 23 10 9 29 45 20 15 41 23 17 67 95 100 100 100 100 100 100 96 87 87 74 56 73 90 59 30 25 24 24 27 38 45 51 41 30 22 15 23 26 23 32 57
51 50 38 35 25 9 9 26 35 13 35 76 66 84 99 96 97 100 100 100 100 100 94 79 78 85 50 65 85 85 64 60 52 56 58 56 50 37 29 24 13 27 26 23 43 61 61
58 55 38 37 29 11 10 23 40 45 84 86 96 80 96 75 100 98 86 97 99 100 97 87 82 89 51 49 71 90 92 79 70 64 54 42 33 29 25 12 20 26 38 73 75 76 58
66 56 39 40 32 11 12 15 47 36 52 56 47 64 69 86 90 98 100 100 100 85 76 69 67 76 85 59 48 47 50 54 47 40 33 33 29 20 13 34 28 54 71 83 78 72 76
81 54 41 43 36 12 14 10 37 42 52 55 42 69 72 69 67 73 71 65 68 70 67 62 59 57 55 59 63 65 62 51 44 39 34 26 13 31 41 28 76 94 95 90 85 79 86
92 52 40 38 39 19 13 11 16 34 42 56 67 68 68 61 54 56 46 44 47 40 37 35 36 36 37 40 38 38 37 34 27 19 13 12 18 42 27 86 100 99 88 92 90 79 76
91 48 41 32 38 32 13 15 10 24 38 36 34 46 60 56 64 49 48 54 43 41 38 34 38 36 33 33 36 32 30 23 16 10 10 22 44 26 78 100 99 98 90 86 72 63 60
92 50 44 30 37 39 16 15 14 16 29 50 44 43 42 46 44 60 66 60 48 40 34 34 38 50 49 40 37 34 27 24 16 14 28 46 31 83 100 97 91 85 78 69 63 57 53
94 63 48 33 38 37 20 14 16 8 24 30 37 35 34 40 44 41 35 54 57 44 37 44 49 66 67 66 54 44 40 32 24 23 48 29 61 99 98 92 72 69 67 74 74 61 53
94 71 51 41 34 33 21 12 13 9 13 28 35 32 37 39 39 32 30 47 57 49 57 61 59 80 81 91 93 91 62 56 49 52 42 42 80 92 93 66 62 67 77 76 80 73 61
91 68 53 40 31 29 18 10 11 6 7 34 46 45 42 45 57 49 68 64 65 67 78 85 69 85 100 100 99 92 81 75 60 54 38 65 85 92 72 62 73 72 80 74 87 83 75

GFSGBSN_500_rhum_048.txt.gz
RH
73 58 53 44 43 42 26 25 32 32 24 18 13 10 8 8 12 12 12 15 21 29 30 23 16 7 29 34 73 48 36 31 34 27 26 22 18 16 20 20 21 15 14 15 16 17 14
72 65 58 50 49 44 24 23 31 29 20 12 9 8 8 8 9 12 21 25 26 30 31 30 24 12 11 18 42 64 42 43 41 34 29 24 22 17 16 19 20 16 17 15 15 15 13
76 69 59 53 54 36 22 24 30 24 12 9 8 8 9 8 9 11 10 23 31 38 35 32 28 19 8 11 30 57 51 62 93 33 34 29 24 20 16 14 16 17 17 16 15 16 14
72 66 53 56 52 27 22 24 25 13 9 9 8 8 9 8 12 15 14 9 29 40 38 31 22 23 10 11 28 46 62 44 91 43 30 31 27 24 20 16 13 12 14 14 15 15 13
73 62 63 63 52 26 21 24 20 9 10 12 13 12 14 10 46 56 16 11 9 36 40 28 43 44 15 10 32 47 92 39 41 88 32 38 29 24 23 20 17 13 11 10 11 11 11
73 69 73 62 39 24 21 23 10 9 12 21 26 17 18 85 100 100 98 25 6 26 38 27 17 29 22 16 57 46 71 68 42 92 89 50 75 60 22 21 18 17 15 12 10 8 8
69 69 76 62 31 23 24 19 8 12 22 36 65 34 79 88 100 100 90 72 7 8 35 26 51 100 43 26 68 48 51 83 50 84 56 34 44 55 39 39 30 18 14 13 12 10 8
71 79 78 55 31 22 24 11 9 16 38 54 97 56 52 64 76 92 88 67 12 7 31 27 35 45 80 51 78 48 52 52 54 51 78 44 24 28 100 98 71 21 12 13 13 10 8
83 88 80 52 32 22 20 8 10 21 48 48 84 94 67 62 61 57 59 64 18 10 25 100 100 100 99 48 61 56 49 53 46 35 56 58 37 36 35 42 30 22 17 16 14 11 9
83 92 83 50 32 22 14 7 10 27 56 52 49 68 100 94 95 90 80 52 7 13 64 100 100 89 27 76 93 61 47 54 59 32 38 70 38 30 26 23 22 18 17 18 16 14 10
81 92 84 45 30 22 9 6 11 32 61 69 66 47 98 98 100 88 77 24 8 21 100 100 95 69 65 100 81 77 48 62 85 58 38 43 29 34 34 34 30 28 26 28 25 18 13
79 91 75 39 26 22 7 6 12 60 70 90 77 68 73 78 100 79 46 9 19 84 100 100 47 54 97 100 74 72 55 54 39 33 34 33 38 36 40 36 36 38 39 32 26 23 16
97 98 62 39 25 19 7 6 13 59 63 98 91 87 78 90 76 30 13 55 68 100 92 43 30 68 100 88 60 67 44 49 34 31 32 46 44 41 41 39 37 35 30 24 20 17 14
95 99 54 44 25 17 7 7 12 39 35 97 100 84 78 85 17 55 88 99 100 97 98 57 65 98 100 68 61 69 72 37 32 40 50 53 42 41 37 33 29 25 20 18 16 15 14
93 98 66 50 26 17 8 7 9 24 19 90 70 60 45 26 51 99 100 100 100 100 94 76 89 100 84 61 60 92 74 34 32 42 41 37 36 32 28 25 24 23 20 19 20 16 13
98 97 68 56 31 16 9 6 7 7 9 28 21 22 38 76 92 100 100 98 100 94 78 97 91 84 69 58 80 90 49 30 34 36 34 33 32 27 24 25 22 20 26 28 28 22 18
99 89 89 73 38 15 9 6 7 4 6 14 21 56 92 96 98 100 100 98 100 82 78 79 74 72 68 71 88 47 36 32 29 31 30 29 28 26 24 22 23 28 31 32 29 23 18
100 100 90 73 41 16 9 6 9 4 51 66 71 85 98 100 100 99 100 100 76 80 84 86 88 88 82 81 95 42 31 30 30 26 29 28 26 27 25 27 31 36 35 25 19 18 17
100 99 89 63 42 17 10 7 9 23 62 68 93 90 99 96 90 96 100 94 91 81 83 79 81 83 86 90 96 46 28 30 28 26 26 27 26 30 32 37 42 33 23 17 17 20 26
100 97 95 59 45 21 11 11 10 39 42 55 45 48 68 78 84 99 100 100 100 90 79 78 81 83 71 79 82 40 26 25 26 25 25 27 34 42 41 39 31 23 15 20 22 28 47
100 98 97 53 46 29 12 15 13 20 26 30 39 55 31 60 68 89 80 86 90 82 85 90 80 64 59 68 77 53 31 33 27 31 37 47 54 52 45 30 25 14 23 25 41 72 61
100 98 97 54 42 43 14 18 27 27 52 42 30 27 26 34 46 55 71 72 77 76 77 75 79 90 50 80 98 95 76 71 65 64 65 62 49 39 27 25 13 33 28 57 76 70 66
100 98 97 58 42 53 25 12 14 28 30 33 44 25 20 21 48 54 50 58 60 54 53 55 58 75 92 55 56 80 96 88 81 71 60 42 32 29 23 21 31 35 75 84 78 76 77
100 99 97 73 48 54 44 19 12 17 28 30 42 53 48 50 43 42 51 50 49 44 41 38 35 41 50 69 88 65 54 49 43 38 36 35 31 21 16 33 43 82 87 90 91 79 66
100 100 99 89 54 52 53 35 17 11 29 32 52 56 51 53 52 48 42 37 39 34 28 27 27 28 30 37 44 46 42 51 52 42 27 19 13 20 37 33 87 87 100 96 76 61 61
100 100 99 98 61 51 59 43 28 18 11 45 48 38 57 57 58 48 52 44 41 35 32 28 28 36 44 41 41 38 35 28 25 16 11 12 20 39 32 82 94 99 84 79 73 67 60
100 99 98 98 67 51 54 50 38 19 17 9 26 37 35 46 47 52 54 54 50 46 36 32 31 37 44 50 47 42 36 27 20 15 14 27 45 58 90 96 97 93 79 86 74 70 63
99 100 99 95 79 55 45 46 40 17 15 10 14 41 40 41 39 44 49 40 44 58 44 39 35 43 54 56 64 59 51 37 24 23 24 50 34 85 97 100 92 75 81 82 74 80 69
98 99 99 95 81 49 42 40 30 13 12 8 6 36 43 42 45 40 40 34 47 61 53 52 53 53 64 74 83 97 93 70 39 44 48 47 53 96 100 86 70 83 80 81 87 85 84

GFSGBSN_500_rhum_051.txt.gz
RH
79 66 62 66 65 64 64 52 30 20 17 17 10 8 8 14 15 12 11 14 17 19 22 26 37 30 22 9 19 79 71 77 35 37 32 28 26 21 18 22 22 15 12 15 18 19 14
82 70 62 67 73 70 63 47 30 18 15 9 8 11 20 18 12 13 10 8 12 25 27 32 40 41 32 12 20 42 98 63 42 36 38 30 27 25 20 20 24 18 17 18 19 18 15
66 71 66 66 74 77 68 43 31 17 11 7 10 22 26 17 18 23 19 10 13 16 36 42 47 44 38 30 18 28 91 90 54 40 39 37 28 27 23 18 19 21 20 19 17 18 16
87 77 62 74 79 76 64 38 25 13 7 9 27 39 28 22 22 78 62 28 20 15 36 50 52 45 31 49 16 28 52 99 89 71 67 47 32 26 26 22 17 17 21 21 19 20 18
79 74 66 78 82 73 51 32 18 9 8 17 48 56 41 28 93 100 100 100 28 16 27 48 53 44 36 96 15 24 32 86 99 97 86 66 40 33 26 23 20 15 15 17 20 21 19
84 82 82 85 84 69 39 26 14 7 10 47 59 66 54 50 82 94 100 99 61 12 22 46 51 35 47 47 33 31 35 72 99 98 100 98 78 39 32 25 21 19 16 15 14 15 15
85 83 83 92 82 50 36 23 11 8 15 48 63 71 68 65 61 66 84 75 78 13 25 49 46 34 48 100 48 30 39 60 98 98 95 96 93 72 39 32 26 22 19 16 15 12 11
67 41 72 90 71 42 40 21 9 9 30 57 71 89 80 100 75 67 59 57 62 12 31 48 42 49 100 91 67 62 47 54 96 98 94 98 93 94 95 74 28 23 20 19 19 16 12
44 41 52 96 67 53 42 16 9 9 39 64 81 100 92 75 100 92 90 64 53 13 39 45 35 92 75 85 74 78 50 54 96 100 94 100 88 69 99 98 96 44 22 21 22 18 14
58 55 59 100 71 62 29 12 10 10 33 66 92 100 100 87 95 100 87 66 32 22 42 40 26 60 98 80 56 91 63 66 95 98 92 96 80 52 43 67 94 90 86 58 30 16 11
93 64 47 99 80 65 23 11 9 10 18 50 100 100 99 96 91 88 84 42 11 32 45 29 82 100 97 69 54 56 55 64 90 95 51 68 95 83 37 28 65 64 32 23 20 16 13
86 51 40 100 87 73 18 11 8 8 7 57 100 86 96 87 81 77 43 12 26 95 100 51 68 66 89 100 54 60 50 58 75 96 43 48 86 79 59 39 28 25 24 22 20 18 13
70 27 37 97 99 54 15 11 6 6 4 26 69 73 90 69 46 25 24 17 91 100 83 100 97 92 67 78 94 66 60 52 67 72 48 45 83 71 36 29 31 39 36 28 25 21 18
38 22 29 100 94 29 13 11 6 5 10 13 18 15 13 30 33 16 18 59 100 100 100 99 99 64 98 100 87 76 65 50 86 97 62 51 70 44 38 41 46 44 40 33 27 23 19
9 12 23 100 95 24 12 11 8 23 22 30 24 26 64 87 50 93 92 88 97 84 67 31 80 55 77 95 73 84 81 92 96 58 48 41 43 45 50 49 46 39 33 26 20 18 16
7 8 26 100 91 24 11 9 19 47 47 79 78 98 100 100 100 86 100 100 90 57 73 57 34 63 90 76 70 80 81 78 76 44 45 45 50 49 47 40 32 26 23 21 20 18 17
7 7 63 98 89 25 10 10 24 42 46 44 79 84 70 67 60 79 86 69 61 48 50 32 52 80 78 62 64 79 99 61 36 37 42 42 44 38 33 27 25 24 24 26 28 25 23
6 7 53 98 85 27 11 11 18 20 34 37 48 64 52 51 57 50 48 45 37 39 52 57 97 100 83 74 100 100 60 46 39 38 38 37 36 30 27 26 25 28 32 34 32 26 21
8 11 86 98 88 34 13 12 22 31 27 30 48 59 82 67 38 40 52 59 54 60 74 83 92 88 77 93 98 83 47 35 33 34 37 33 29 28 26 28 34 40 38 34 26 20 19
10 19 96 100 93 43 19 12 15 22 23 25 32 49 62 85 43 61 49 55 75 75 85 79 68 77 80 80 88 51 32 33 33 33 33 29 28 27 33 39 40 38 34 26 19 16 19
11 16 86 100 97 64 28 13 13 17 24 26 25 33 39 40 71 88 81 65 78 77 81 82 84 88 96 99 81 52 28 28 29 29 29 28 28 32 40 44 40 31 26 21 17 22 48
18 47 100 100 98 76 42 16 12 16 24 24 22 25 20 32 32 30 52 64 65 63 65 69 93 68 72 86 98 55 32 29 30 29 28 29 39 49 52 45 31 27 19 19 27 45 80
28 80 100 100 100 95 54 36 15 16 20 25 27 24 19 22 26 41 48 47 43 39 41 44 60 78 60 79 92 80 59 50 49 45 49 59 57 53 44 33 28 22 30 39 68 81 70
33 80 96 100 100 99 71 59 28 15 20 27 26 31 31 33 26 24 31 38 36 34 34 37 41 54 71 65 65 89 94 87 84 78 70 66 61 44 32 25 20 29 63 84 84 82 61
62 63 80 100 100 99 83 72 56 29 14 15 26 34 36 49 54 53 45 42 39 35 34 30 29 30 37 52 74 76 61 81 74 55 48 41 35 34 31 18 26 61 91 95 85 62 52
77 77 82 92 100 100 96 81 64 56 31 15 18 32 43 49 56 58 54 43 36 33 30 26 27 30 37 45 52 59 83 57 55 60 55 45 37 25 16 34 50 88 94 84 73 76 71
44 64 88 83 99 100 99 92 62 65 58 32 17 41 57 58 55 61 57 59 43 36 31 25 23 25 30 42 43 43 41 39 38 32 25 18 14 16 34 45 86 98 94 84 87 80 70
53 56 98 94 95 100 100 95 65 64 64 59 32 23 48 47 48 58 60 63 56 47 43 31 24 24 28 39 49 46 38 34 32 27 21 24 25 45 56 89 94 94 80 80 88 76 69
70 59 97 96 99 99 100 93 57 51 53 42 27 26 14 29 46 48 57 72 69 53 46 43 38 34 30 34 46 58 57 55 43 35 33 46 42 43 86 95 96 82 70 80 84 75 78

GFSGBSN_500_rhum_054.txt.gz
RH
67 66 72 67 80 81 77 93 88 60 35 28 22 10 8 14 26 31 24 16 16 20 19 21 37 30 33 31 22 22 59 99 97 96 89 39 31 28 23 22 23 17 15 13 16 13 11
48 53 59 64 62 71 86 93 71 40 35 30 13 9 16 36 57 38 20 49 57 25 14 18 43 42 38 27 41 43 29 94 98 96 98 45 33 29 30 23 22 21 18 19 19 16 11
40 56 60 47 38 45 86 94 49 45 41 20 10 15 38 63 63 35 67 100 100 63 23 19 44 54 42 28 54 85 19 85 99 88 89 69 42 32 30 28 22 19 20 21 19 17 13
71 75 56 49 46 44 90 74 59 53 29 11 11 34 64 78 65 50 85 91 100 97 34 21 48 62 37 39 50 99 23 70 100 98 92 51 47 36 31 29 25 19 19 21 22 18 15
84 76 62 76 38 50 98 78 63 54 16 9 25 58 73 89 76 68 72 99 85 91 57 26 59 57 45 48 64 89 25 71 100 95 98 88 59 41 32 29 27 22 16 17 23 24 18
82 77 89 44 31 47 100 81 67 27 10 12 36 77 81 100 98 74 66 83 74 89 37 23 62 54 47 51 74 70 24 50 99 96 99 97 96 47 35 28 24 22 19 18 19 22 22
38 65 76 43 22 37 96 94 50 13 10 13 27 82 95 100 100 100 76 71 66 66 36 35 60 45 50 53 89 79 31 48 95 98 99 100 95 61 33 30 26 25 23 21 18 16 17
17 50 40 13 19 38 90 76 15 12 7 7 29 99 100 99 97 80 84 87 85 59 25 47 62 52 40 53 100 79 33 54 93 98 99 95 75 73 56 37 31 26 23 22 21 18 14
14 16 14 10 14 56 90 40 14 7 6 8 68 100 100 97 100 76 92 85 64 37 37 60 57 45 38 100 79 32 40 35 74 100 98 99 99 99 100 57 37 31 28 26 24 20 16
16 16 11 9 8 72 82 20 10 7 10 12 76 100 97 93 100 100 85 71 50 22 56 58 48 57 52 51 100 74 63 58 70 100 99 95 96 99 100 99 89 73 37 29 25 22 18
20 16 9 10 10 82 50 17 5 12 32 17 39 72 91 84 80 98 70 46 20 46 56 53 45 69 100 98 65 73 67 62 69 96 98 88 94 97 90 100 100 97 100 64 44 26 18
19 12 11 8 27 77 28 12 7 24 37 42 8 9 25 42 47 35 24 20 40 58 77 47 59 100 100 72 80 82 66 68 80 99 99 97 98 99 90 84 92 97 100 99 84 56 29
20 7 9 8 43 81 24 10 11 25 32 42 29 28 11 13 12 16 23 73 100 85 44 36 76 95 100 97 55 86 58 63 66 88 90 75 87 93 81 55 44 38 57 58 27 19 17
20 8 8 9 72 72 14 10 17 36 41 37 19 78 99 24 29 91 100 100 83 38 37 58 100 88 80 93 76 66 57 53 64 78 89 56 58 76 88 70 48 40 30 25 24 22 23
19 10 10 13 97 74 13 10 16 26 38 36 36 18 46 53 82 87 99 91 47 87 44 50 64 94 100 98 73 66 71 57 67 98 93 70 57 94 90 54 45 38 30 33 32 30 29
15 9 12 16 100 79 14 12 15 32 31 30 32 33 27 41 64 62 68 66 86 100 100 90 70 66 70 89 87 73 67 57 69 96 94 81 74 84 67 45 40 43 45 37 32 27 23
14 8 9 22 100 82 26 13 13 30 32 33 37 59 44 34 31 31 36 54 68 76 59 62 61 89 98 94 76 96 85 88 91 75 65 57 59 62 59 56 58 51 41 32 25 21 23
9 6 9 27 76 91 39 13 13 27 28 42 55 46 46 48 48 39 41 25 26 30 34 36 59 95 100 78 77 97 91 72 93 65 50 53 53 52 54 49 39 32 27 25 29 28 28
6 4 11 27 93 98 46 12 13 20 23 30 54 48 35 43 45 47 38 39 23 31 39 80 92 84 70 67 74 89 99 62 48 54 50 46 47 43 39 32 29 30 32 32 29 30 28
4 3 19 44 79 100 72 15 14 15 21 21 26 45 49 50 35 42 60 42 45 57 66 75 75 72 71 87 96 100 54 55 61 48 43 40 38 35 30 30 31 33 34 37 34 27 21
2 3 29 49 89 100 83 48 12 15 18 23 21 32 33 68 35 31 51 64 71 75 72 69 73 77 85 92 96 76 38 39 36 36 39 35 32 29 29 32 37 38 37 35 28 22 19
2 2 45 48 95 100 98 82 19 12 16 28 21 25 25 28 34 36 51 58 59 58 60 70 71 83 82 88 92 62 31 31 34 33 33 30 29 29 32 39 44 42 34 28 21 16 31
2 2 41 61 60 90 100 92 64 18 13 20 20 20 21 21 24 34 31 22 32 36 42 48 70 71 69 74 84 76 47 30 30 27 26 26 28 34 43 48 48 38 30 23 22 30 68
1 3 20 90 82 100 96 100 89 60 19 12 20 23 24 31 33 32 37 43 36 31 31 36 54 65 67 77 92 79 74 58 49 41 36 35 41 48 53 48 39 31 28 31 53 86 87
2 5 31 65 76 91 100 98 99 91 59 24 14 16 23 31 33 35 37 40 37 33 32 32 34 39 57 66 72 92 91 80 69 58 67 65 64 61 53 42 32 22 31 74 87 92 79
4 10 36 48 58 68 100 100 100 97 93 54 36 16 15 26 47 47 47 54 55 41 38 28 26 33 38 46 74 75 68 71 92 82 70 66 58 49 39 34 21 24 76 96 94 77 54
4 14 23 50 62 74 100 100 100 100 98 94 66 47 22 16 27 54 56 58 58 52 39 36 30 27 29 31 34 42 56 77 65 63 60 53 47 44 38 23 23 50 91 96 84 68 59
6 13 25 25 58 82 100 100 100 100 100 98 94 81 64 26 31 41 56 65 63 55 46 39 31 23 22 28 32 40 41 38 48 46 42 41 32 19 13 20 38 79 92 94 83 67 67
8 12 17 51 42 78 94 98 100 100 100 100 88 95 94 74 28 41 65 70 68 59 52 46 40 28 21 26 32 36 43 39 37 38 42 34 25 25 32 44 68 99 96 86 73 77 74

GFSGBSN_500_rhum_060.txt.gz
RH
14 17 22 21 17 14 14 12 10 38 55 38 11 11 14 14 18 27 86 100 96 92 75 71 63 52 42 34 20 37 41 26 21 56 90 95 47 40 45 35 44 82 78 64 52 52 40
15 18 21 20 17 12 12 12 17 49 30 11 12 18 20 14 23 86 100 100 98 94 63 70 65 63 57 48 39 31 67 68 29 27 68 97 63 42 40 37 34 45 70 82 77 65 50
16 19 22 19 16 10 10 11 41 28 11 13 17 17 11 17 100 100 100 100 99 70 75 91 98 90 99 48 44 33 63 100 43 18 27 100 88 50 40 36 34 31 41 60 78 77 60
16 19 23 19 13 11 11 30 29 14 12 15 9 7 26 73 93 99 98 91 100 91 80 90 100 100 95 61 44 50 60 75 40 38 24 100 97 73 44 39 34 30 30 30 42 61 57
16 20 25 18 10 11 13 52 15 12 15 12 6 12 80 81 77 89 99 90 100 100 73 73 100 96 99 44 61 70 100 68 72 34 27 97 98 82 51 40 38 32 28 29 27 41 36
17 24 24 12 8 10 24 29 12 14 19 8 6 19 100 94 87 84 90 74 69 82 73 78 92 96 64 52 68 100 99 86 58 40 34 100 99 95 53 42 35 33 32 31 24 25 22
20 24 21 7 8 9 51 17 13 19 20 13 15 12 96 89 100 100 100 94 75 72 69 72 100 96 71 72 79 48 91 69 69 44 48 99 100 93 55 50 40 33 31 28 26 25 24
20 24 15 5 7 9 60 18 17 25 20 29 13 9 20 54 95 90 100 75 56 54 55 100 100 78 87 85 53 56 95 96 66 38 92 98 95 100 98 67 51 37 32 30 29 25 29
21 22 8 4 6 10 53 20 19 32 27 38 34 59 59 27 76 80 57 43 40 55 86 85 92 74 73 51 86 100 71 99 97 72 90 95 100 99 100 83 64 41 32 30 30 28 25
21 20 4 3 5 10 52 20 19 33 32 38 48 43 79 15 21 27 29 33 80 97 98 99 73 61 57 61 96 90 98 88 87 97 93 99 100 99 93 95 61 47 38 32 29 28 26
22 18 3 3 4 9 49 17 18 25 28 30 46 29 54 24 23 60 44 49 95 100 100 100 68 52 62 49 84 100 100 90 99 100 97 100 100 100 100 91 69 48 38 35 32 29 26
21 18 2 2 3 9 50 15 19 21 27 23 42 26 37 30 35 48 57 73 83 72 73 63 56 100 100 99 59 99 100 96 100 100 100 100 99 99 99 99 84 63 41 35 31 37 29
20 18 2 2 2 11 57 15 16 19 26 27 31 26 29 34 40 45 48 53 48 46 57 50 82 76 97 100 94 65 90 100 100 100 100 100 100 100 99 100 100 92 54 38 33 36 42
21 18 3 2 2 11 61 18 17 18 24 36 33 26 25 27 32 35 36 36 54 87 72 68 79 93 82 87 76 87 39 84 97 100 100 100 96 100 99 99 99 100 89 51 40 36 39
23 18 6 2 2 8 50 31 13 19 21 28 35 32 22 25 29 46 60 45 59 69 70 66 61 49 74 51 34 37 33 47 88 100 94 100 98 99 97 98 100 100 100 96 92 85 81
26 18 12 2 2 5 34 51 13 14 24 21 35 29 28 36 30 42 60 52 49 63 64 69 75 73 82 70 51 50 49 47 73 87 97 95 97 96 95 95 94 96 95 96 96 90 87
28 21 15 2 2 2 17 65 46 14 18 26 31 32 25 26 40 37 46 38 46 50 59 63 60 60 48 40 45 52 58 63 69 67 83 100 92 76 89 95 98 89 89 84 58 40 42
28 22 16 2 2 2 8 44 71 16 14 27 25 44 34 21 29 48 34 39 38 40 50 57 66 62 62 48 57 55 62 56 54 65 81 90 75 61 62 81 92 90 84 82 71 50 36
28 22 12 2 2 2 4 33 73 46 16 14 30 26 48 33 17 19 26 20 19 20 22 42 52 53 59 65 68 73 75 66 72 75 89 90 78 68 67 83 80 62 61 58 57 47 34
29 22 10 2 2 2 3 24 53 78 25 16 23 40 30 49 29 17 18 28 25 45 56 57 58 56 56 58 66 72 72 78 80 86 78 84 76 74 83 72 66 52 50 50 45 33 32
30 21 9 2 2 2 2 11 46 77 71 19 18 25 39 36 41 60 66 61 55 56 67 68 64 63 64 66 67 74 86 78 81 79 80 84 74 81 88 71 51 47 40 31 29 35 32
32 21 8 2 2 2 2 5 29 73 90 68 20 18 26 37 32 28 58 70 70 69 74 80 78 75 74 86 88 89 89 77 60 80 68 71 66 59 68 56 36 32 32 37 41 41 36
27 18 5 2 2 2 2 2 11 38 84 95 73 22 16 21 25 28 26 33 49 45 44 56 79 82 87 90 96 89 66 60 68 58 48 54 50 39 39 35 37 39 44 43 40 35 29
22 11 3 2 2 2 2 2 4 14 30 82 98 75 30 18 18 20 23 24 27 25 41 39 52 74 69 88 93 88 65 38 42 38 38 37 35 33 34 38 42 47 44 42 37 31 26
11 4 3 2 3 2 2 3 5 6 10 26 87 99 80 35 18 21 24 24 26 28 36 36 36 51 67 76 90 85 58 38 31 34 34 34 31 30 39 46 49 47 42 37 32 28 25
5 4 4 3 3 2 2 2 5 14 11 23 49 88 100 83 50 20 19 22 26 30 42 34 31 42 44 67 92 96 90 75 59 43 40 33 39 40 46 50 50 46 42 38 28 25 40
5 5 5 4 4 3 2 2 4 19 17 27 62 99 100 100 93 61 34 18 23 30 34 39 28 45 51 43 54 84 98 98 88 77 72 70 59 51 51 59 54 49 43 36 29 46 69
5 5 5 6 5 4 3 2 3 20 56 58 47 80 99 100 100 96 80 59 28 22 35 38 34 44 53 46 36 39 55 79 84 88 84 76 72 66 56 62 51 44 42 34 26 36 91
6 5 5 5 6 4 3 3 5 33 44 69 42 57 79 94 100 94 100 94 82 42 25 40 47 66 60 49 35 32 37 48 52 60 72 74 71 70 67 59 53 47 40 32 26 76 100

GFSGBSN_500_rhum_063.txt.gz
RH
12 14 18 18 10 5 7 9 35 34 17 14 11 6 8 7 12 36 85 100 100 90 84 85 78 56 32 23 22 24 22 35 43 26 16 19 55 70 74 49 41 58 91 93 77 53 87
13 17 21 18 5 4 8 26 35 20 16 15 11 6 8 27 55 100 100 98 100 100 100 100 97 92 80 54 26 16 16 26 37 40 30 16 58 68 72 46 50 50 87 92 89 72 74
14 19 20 12 3 4 8 38 28 18 18 22 9 8 32 82 61 80 89 68 78 99 96 95 53 81 78 58 57 38 18 23 39 58 40 15 69 80 83 58 40 59 85 68 95 83 68
16 21 17 6 3 5 16 34 25 16 24 20 12 32 30 100 62 73 61 54 61 77 99 83 77 100 97 87 57 54 54 55 62 66 49 32 86 90 83 69 44 50 91 67 95 97 96
17 21 16 4 2 4 27 33 18 18 22 28 16 26 13 99 99 68 62 65 78 68 90 70 65 95 78 82 69 54 59 80 52 87 86 43 86 92 96 94 46 44 87 71 89 96 96
18 22 16 3 2 4 36 27 14 16 23 28 17 21 11 34 98 100 99 98 94 72 76 64 72 92 79 98 76 53 99 97 61 57 65 54 57 87 100 98 70 40 73 71 65 86 94
19 23 16 2 2 3 43 24 14 17 27 22 16 15 9 20 68 87 98 97 72 85 62 89 86 88 83 67 67 51 83 88 99 100 56 33 51 72 94 82 61 45 46 69 54 58 74
19 23 16 2 2 3 38 22 13 17 25 27 21 15 12 12 22 38 46 40 49 50 72 83 88 66 97 100 89 100 85 98 87 56 42 36 48 95 100 100 62 41 40 57 44 43 43
18 23 16 3 2 2 33 18 12 16 23 32 18 17 14 57 28 34 45 58 83 99 100 80 61 94 100 100 100 100 86 62 59 47 37 23 69 100 100 98 64 41 39 40 38 41 37
18 24 16 3 2 2 28 16 13 20 25 24 20 20 17 55 84 99 97 94 100 81 77 73 95 100 100 100 95 69 67 84 77 63 52 72 97 100 100 100 70 44 39 39 35 40 39
18 23 20 5 2 2 19 21 16 22 25 22 22 27 28 36 44 47 60 88 76 74 94 97 100 82 58 67 71 100 100 100 82 46 71 90 98 100 100 100 83 48 42 38 36 35 47
17 22 24 13 2 2 14 37 12 18 21 22 20 27 29 29 37 41 35 44 53 59 72 83 93 91 98 100 98 98 99 100 93 100 100 100 100 100 99 94 94 70 55 44 38 34 33
17 21 26 18 2 2 9 48 20 12 21 19 18 23 23 28 34 45 35 37 44 59 86 98 65 93 100 100 100 98 88 100 100 100 99 100 100 97 97 100 99 97 64 46 42 38 32
17 19 27 23 2 2 4 44 30 10 22 16 19 20 33 25 40 44 68 31 40 64 68 83 89 72 51 89 100 100 100 100 100 100 98 100 97 100 99 96 94 94 86 73 46 42 46
18 19 25 27 7 2 2 28 52 15 16 25 16 23 27 34 32 45 59 39 36 44 49 32 42 78 86 70 61 80 100 96 100 100 100 100 100 100 100 99 99 100 91 79 58 44 38
18 18 22 29 18 2 2 8 65 23 13 21 20 19 19 36 39 41 46 38 26 29 33 46 48 45 49 50 45 44 27 45 96 97 100 100 97 100 100 99 98 100 100 100 86 72 61
18 18 22 29 24 2 2 3 42 60 15 17 31 23 18 23 30 33 34 38 40 41 41 45 54 46 46 42 39 35 35 42 66 84 96 99 95 91 98 99 98 99 90 99 99 92 92
18 18 21 28 25 5 2 2 15 72 41 18 25 34 26 18 26 23 29 36 37 42 47 41 33 28 22 25 25 39 42 51 61 59 63 76 88 83 79 93 94 93 91 90 88 87 85
19 19 21 26 26 9 2 2 4 35 74 33 19 27 44 19 18 28 31 32 21 26 32 50 52 48 45 41 37 30 38 46 52 55 66 82 86 81 69 70 77 78 84 88 94 93 59
20 19 22 25 27 11 2 2 2 12 38 75 30 21 34 42 21 15 18 25 26 34 31 42 45 43 47 52 60 66 65 64 61 64 69 80 90 78 67 64 66 76 80 82 80 90 78
22 20 24 28 24 8 2 2 2 6 21 62 78 32 25 35 45 58 54 46 40 49 58 57 56 56 51 50 53 60 69 72 69 66 74 77 79 79 80 75 76 77 63 50 56 64 69
23 21 26 28 21 6 3 2 2 2 6 18 62 82 28 26 37 36 54 68 66 64 66 70 69 67 67 69 72 73 74 77 76 80 75 76 76 72 73 86 64 62 54 52 53 79 53
21 22 25 25 15 4 4 3 2 2 3 7 27 75 89 39 24 32 32 33 51 55 50 47 61 78 74 80 86 88 88 93 80 65 75 75 72 72 74 82 59 41 37 33 38 36 38
23 26 27 18 6 4 4 4 3 2 2 4 6 18 76 100 54 19 26 28 26 30 22 40 39 49 73 70 86 89 83 80 65 65 79 70 66 62 46 71 57 57 47 44 43 42 40
27 27 21 8 5 5 5 5 4 3 2 2 6 8 24 89 100 77 18 17 23 24 23 24 38 35 49 66 72 87 83 65 48 63 43 40 46 41 38 36 41 48 48 47 44 38 34
37 20 8 6 5 6 6 5 5 4 3 3 5 11 21 34 82 100 89 23 20 20 22 23 36 34 32 44 64 80 83 62 45 33 35 35 36 36 34 38 41 50 49 45 40 34 32
18 8 7 8 7 5 4 4 5 4 3 3 9 26 50 30 72 96 100 96 39 19 20 22 29 41 32 40 44 56 82 76 74 74 56 42 38 37 37 39 45 52 50 46 42 38 35
11 15 14 9 6 6 4 4 4 5 4 9 18 33 35 51 44 90 100 100 98 62 25 21 24 26 34 30 48 44 41 71 84 85 84 74 68 64 52 46 48 50 52 47 40 38 35
15 10 8 7 7 7 5 4 4 5 5 17 43 44 46 62 56 61 90 100 100 99 82 36 21 32 31 39 51 50 39 36 44 60 84 85 79 74 71 65 61 56 51 48 44 38 27

GFSGBSN_500_rhum_066.txt.gz
RH
10 13 14 14 6 2 2 3 22 28 14 7 8 7 7 8 63 54 99 100 99 92 92 75 45 35 25 32 97 75 52 45 42 33 30 15 13 29 53 79 52 86 73 100 67 65 86
10 12 13 14 5 2 2 5 26 21 12 6 7 6 7 10 100 49 46 77 62 66 96 99 100 99 62 27 27 92 75 47 41 44 45 31 14 22 54 71 90 50 86 79 86 69 87
10 11 14 15 6 2 2 11 28 20 10 8 7 6 7 11 98 68 53 48 53 60 61 100 100 100 94 82 42 25 96 59 39 63 54 53 21 15 22 57 91 71 59 91 88 78 96
10 11 13 15 6 2 2 20 29 15 9 8 8 7 10 8 93 96 58 47 53 76 65 97 100 83 90 82 65 38 34 80 58 38 73 78 40 20 21 53 61 97 51 62 78 91 97
10 12 14 16 7 2 2 26 25 12 9 10 10 13 13 9 42 99 96 96 97 86 59 77 65 68 95 77 62 60 27 46 56 50 81 86 61 32 26 44 65 94 83 51 65 75 97
10 13 15 17 9 2 3 32 23 11 10 14 13 17 26 37 16 45 72 96 100 78 70 63 59 75 61 58 64 66 43 32 38 36 80 85 73 56 39 47 46 70 83 53 60 69 90
12 13 15 17 15 2 3 40 23 11 11 13 16 22 38 44 88 82 58 49 74 90 66 96 84 67 92 76 61 68 47 82 85 59 53 68 76 44 31 33 61 85 100 65 53 62 96
12 14 14 15 18 2 2 32 24 11 12 13 17 24 34 48 54 100 96 94 60 63 61 78 74 98 100 85 71 100 100 69 65 42 100 67 53 50 36 74 100 99 96 75 53 55 89
12 13 14 16 20 4 2 16 32 13 12 14 21 23 24 30 40 42 59 73 61 58 72 90 99 98 76 96 100 100 97 98 39 100 96 90 56 44 40 70 78 98 84 72 50 48 77
10 13 14 16 20 11 2 8 41 18 12 14 20 23 24 24 28 32 40 41 54 70 97 100 100 99 67 56 78 97 100 91 92 63 66 78 46 38 41 48 86 96 92 78 48 49 74
11 12 13 15 19 20 2 3 30 31 12 14 21 26 24 29 27 40 38 48 62 85 93 100 100 100 100 98 98 70 94 94 55 48 41 49 35 33 60 92 100 100 99 66 44 46 62
11 10 13 16 16 21 3 2 17 44 12 14 22 26 29 26 33 34 44 45 59 79 100 100 100 100 99 90 87 64 81 85 72 64 49 39 28 38 96 100 97 99 100 60 47 45 47
8 9 10 15 16 20 9 2 4 44 19 14 18 23 29 23 31 41 44 38 36 43 65 87 94 100 80 100 98 98 81 98 68 61 53 75 78 97 100 100 100 100 100 72 50 44 42
8 9 10 13 15 20 18 2 2 26 36 13 12 26 24 29 20 29 40 37 25 31 33 32 84 92 100 100 91 100 100 96 99 96 88 97 96 99 92 94 100 100 100 90 52 42 40
9 8 10 11 14 17 18 3 2 8 49 22 14 14 28 23 27 29 33 32 21 19 28 49 42 32 46 92 100 100 100 100 100 99 100 100 95 92 96 92 99 98 98 98 76 54 43
10 9 9 11 14 14 19 6 2 2 28 39 17 16 15 22 24 24 26 28 29 19 18 26 33 46 48 33 49 63 81 95 100 100 100 100 99 95 97 99 100 98 100 99 87 74 64
11 10 9 10 11 16 16 11 2 2 7 38 29 18 20 15 22 27 25 28 36 37 35 29 38 32 28 34 37 36 30 75 89 98 95 99 98 99 98 100 99 96 100 93 96 86 82
15 12 10 11 11 14 18 15 3 3 2 17 70 24 23 25 16 20 21 23 33 41 45 42 33 32 28 24 19 22 26 35 38 60 68 81 87 81 98 100 100 100 97 100 100 92 92
18 16 13 12 12 14 16 16 3 3 2 3 12 70 25 24 14 18 27 32 30 24 26 41 37 39 34 34 30 25 32 33 38 46 56 55 70 85 81 89 100 100 96 97 95 98 98
24 19 16 15 13 13 16 12 4 3 3 2 5 39 66 24 36 18 15 18 20 18 19 39 44 40 43 50 55 59 57 56 57 54 51 56 61 69 72 69 78 95 94 88 88 91 98
29 25 22 15 14 13 15 8 4 4 4 3 3 7 47 81 27 47 44 30 34 31 41 45 51 50 49 46 46 49 62 61 64 66 66 69 70 78 66 65 61 62 65 68 71 82 78
37 31 29 19 15 12 11 6 5 5 5 4 3 6 6 60 77 28 41 54 72 60 48 54 59 63 56 51 54 64 65 67 74 72 72 69 72 77 82 76 68 62 59 64 64 59 65
44 37 27 24 14 11 7 5 6 5 4 4 4 3 6 8 53 94 27 35 38 52 65 48 42 49 71 72 71 71 77 76 76 79 74 74 76 76 74 72 78 79 69 66 57 53 57
45 34 26 19 18 9 6 6 6 5 5 4 4 4 4 8 12 46 96 23 30 30 35 49 37 37 37 57 72 76 80 81 78 84 71 70 73 76 70 71 74 70 53 47 45 43 48
40 30 21 24 19 7 6 6 6 5 4 4 4 4 5 8 9 15 55 100 33 24 27 28 25 25 32 34 49 62 71 80 80 70 66 73 78 71 68 56 65 71 60 52 48 47 45
35 32 33 28 13 7 7 6 6 5 4 4 4 4 5 8 36 45 29 72 100 56 19 22 25 24 25 30 30 39 64 79 72 55 54 61 44 49 59 47 39 47 75 64 52 47 43
36 37 34 16 9 8 7 7 6 6 6 4 4 5 6 6 41 45 42 43 68 100 70 23 25 23 22 30 28 30 39 71 74 55 51 36 36 37 36 35 34 44 51 60 56 45 40
41 34 18 12 8 8 8 9 10 9 8 7 4 5 6 12 50 47 68 74 62 96 100 68 28 22 22 23 32 30 33 40 72 73 69 68 54 52 43 35 42 48 50 52 49 46 43
35 23 14 11 8 8 10 13 11 11 11 8 7 5 6 8 46 44 76 100 74 96 100 100 83 41 22 24 26 30 31 40 38 42 74 78 68 65 68 61 57 51 51 55 52 47 43

GFSGBSN_500_rhum_072.txt.gz
RH
22 22 18 18 21 14 7 7 3 3 16 14 9 9 16 13 10 33 97 64 46 58 67 92 97 100 70 31 58 96 100 100 100 83 37 26 17 32 82 75 64 96 96 99 98 95 95
23 28 19 16 15 15 10 6 2 3 18 12 10 10 17 25 44 20 78 79 64 49 60 61 93 98 91 38 38 86 100 100 100 90 52 57 14 25 46 97 82 60 98 96 88 91 97
30 32 20 19 14 16 10 6 2 4 18 11 10 16 19 62 60 58 36 51 73 75 84 90 88 94 79 46 30 77 93 100 100 99 71 97 39 14 25 60 100 95 90 94 98 99 94
33 31 17 20 23 15 12 6 3 4 19 12 12 15 30 58 80 59 70 50 54 48 55 52 92 94 98 61 38 36 77 100 100 97 84 86 83 16 15 27 66 97 99 89 98 95 93
35 28 14 22 26 14 13 7 3 4 17 14 10 18 31 48 32 38 65 71 63 55 47 56 70 80 87 90 45 33 47 99 100 100 100 90 90 35 14 15 27 53 94 79 96 96 100
33 28 21 18 25 20 13 8 4 3 16 15 10 19 34 53 34 33 57 71 67 77 64 54 52 67 68 88 51 69 38 83 99 100 99 100 96 55 27 12 12 18 41 72 62 94 94
32 31 26 16 21 21 12 8 6 3 13 16 11 25 33 42 66 27 64 72 78 89 86 96 59 57 55 67 70 45 48 62 100 90 100 100 83 56 32 15 13 17 42 68 81 75 88
35 33 29 22 19 23 13 8 7 3 8 18 12 23 33 41 49 64 72 100 77 76 86 100 56 53 53 50 54 42 35 53 97 92 92 91 85 93 54 24 15 16 22 41 57 73 81
40 36 36 26 16 22 11 8 8 4 3 21 13 15 28 34 37 39 59 99 70 76 76 93 98 94 54 52 45 49 31 42 99 96 93 80 74 99 76 50 28 15 14 23 47 53 56
41 38 39 21 28 18 13 10 8 6 3 9 17 12 22 26 29 35 36 76 64 61 93 100 97 87 94 55 63 58 77 69 100 100 100 92 98 98 93 72 44 26 19 25 36 37 36
45 43 41 31 29 16 14 10 10 7 4 3 17 13 11 24 23 27 29 34 62 54 71 100 98 66 65 52 89 58 70 85 100 99 83 77 88 89 92 76 56 42 32 32 36 36 31
51 50 45 41 29 27 14 11 11 9 5 3 4 21 12 14 18 27 28 25 34 46 67 79 92 97 97 85 83 100 64 99 100 100 100 99 90 88 75 69 59 55 40 34 34 26 24
56 58 54 52 33 35 13 12 10 10 8 4 3 8 20 14 14 16 24 25 25 23 35 56 75 76 90 98 100 98 85 49 88 96 95 95 100 90 73 55 54 52 46 43 49 35 18
57 56 59 56 35 39 14 13 8 10 10 6 4 3 23 20 15 15 21 22 26 21 22 39 38 71 82 81 87 99 100 99 100 97 96 86 90 77 50 44 46 48 47 45 54 42 56
56 53 61 58 46 33 22 14 10 10 10 7 5 4 6 18 20 15 20 19 25 26 30 23 38 40 64 70 64 92 69 60 55 53 54 43 52 74 60 51 50 36 34 67 62 67 68
54 61 60 64 52 38 28 17 15 10 11 8 5 4 4 4 29 23 15 18 20 23 32 35 25 30 57 48 68 77 75 61 46 47 47 39 55 82 81 72 52 33 93 92 69 70 63
58 68 69 67 59 46 29 19 17 12 11 10 7 4 4 4 5 31 23 15 19 21 26 33 35 24 32 40 46 62 79 81 86 78 53 72 79 66 52 48 36 49 84 87 92 85 83
65 70 75 69 62 49 32 23 18 14 12 12 10 6 5 3 4 10 44 26 19 24 27 25 31 30 23 23 33 35 47 93 96 95 100 98 92 82 78 71 73 78 83 94 97 87 71
69 69 76 79 57 51 36 24 22 16 14 12 10 7 6 5 4 5 16 43 30 21 28 26 21 34 39 29 24 22 25 45 54 92 87 90 91 89 98 88 64 59 64 77 87 77 62
66 73 76 80 63 49 39 28 23 17 16 13 11 8 6 6 5 3 5 17 52 39 20 19 22 28 44 43 44 48 40 27 31 40 56 66 69 75 73 75 81 82 95 97 85 78 74
75 69 76 80 65 51 37 30 24 18 17 16 12 10 8 8 8 6 4 6 12 67 45 31 26 29 36 46 55 51 45 49 48 46 44 45 43 43 50 61 70 71 75 72 75 82 73
83 73 78 79 68 55 39 33 26 22 22 21 17 11 8 8 9 8 5 4 6 33 53 44 74 50 38 48 56 68 56 54 53 58 56 60 56 53 50 51 57 69 65 64 81 73 64
92 78 78 80 66 58 38 38 30 24 24 22 19 13 9 9 9 8 8 6 4 7 49 68 40 70 69 53 63 64 72 68 68 65 65 63 64 61 55 59 56 53 76 69 67 86 91
91 78 90 80 69 54 42 42 30 29 27 26 18 12 8 9 9 9 8 8 5 6 9 53 81 39 57 76 58 53 75 77 77 76 77 75 78 73 64 62 50 62 68 66 64 62 59
81 82 94 78 73 59 51 41 32 25 30 24 17 10 8 7 7 8 8 9 6 5 12 25 73 92 37 47 64 44 38 55 73 81 83 85 90 94 79 70 64 62 64 63 62 68 67
84 90 93 82 84 70 54 45 38 34 27 20 15 10 8 8 10 8 8 8 8 7 10 46 52 63 100 40 36 42 30 37 40 54 83 90 88 95 87 68 74 69 65 63 66 68 57
90 96 92 90 84 73 56 55 58 57 42 19 16 12 10 9 9 8 7 7 5 7 8 61 63 52 86 98 49 31 32 29 32 33 65 91 76 66 66 73 61 61 64 53 76 69 59
95 96 91 96 87 78 73 64 56 58 37 27 25 16 16 14 9 9 7 6 6 11 13 54 84 64 78 100 99 60 30 29 29 35 39 71 82 57 53 49 41 52 45 57 58 70 79
97 91 94 92 87 81 73 65 61 50 38 34 22 17 22 23 16 12 6 6 7 23 34 41 76 76 99 99 100 100 72 28 33 36 37 42 82 73 68 57 54 53 48 48 45 66 89

GFSGBSN_500_rhum_075.txt.gz
RH
26 28 27 29 24 28 24 12 10 6 4 10 10 14 15 34 49 39 46 29 55 65 50 62 67 91 90 93 38 85 99 99 100 99 94 41 16 17 23 51 61 43 80 99 98 96 96
24 26 28 28 23 27 26 10 10 6 3 10 14 15 18 30 51 51 51 56 46 39 60 67 64 81 96 100 43 57 100 98 100 100 98 45 19 16 24 72 72 57 81 84 90 98 96
26 30 30 30 26 21 27 11 11 7 3 10 17 17 17 19 54 54 53 68 59 56 31 41 65 86 86 90 63 51 100 100 96 100 97 53 15 14 23 67 88 69 70 96 98 98 97
29 31 31 31 33 22 27 13 13 8 3 10 15 27 21 24 50 58 59 62 68 59 46 29 78 84 81 100 63 45 96 100 100 98 99 84 40 14 23 45 86 85 77 83 84 97 97
29 32 34 35 30 28 24 14 14 11 4 10 13 23 35 33 37 58 65 68 78 75 55 35 60 71 74 85 72 43 91 100 99 100 100 99 70 16 19 36 56 62 67 72 91 94 97
32 35 36 36 34 35 25 16 15 11 5 6 13 21 26 38 38 38 71 82 92 94 84 62 46 53 55 63 85 42 93 99 100 100 100 100 80 34 16 24 20 34 48 74 94 93 91
37 38 37 37 38 36 29 20 16 11 9 4 13 19 23 29 32 30 47 72 88 97 84 92 43 46 44 51 57 39 70 99 100 98 98 100 84 43 18 15 21 31 54 77 90 92 97
39 42 42 40 42 38 33 19 19 11 11 5 6 12 19 22 28 27 29 59 71 84 81 82 90 37 48 44 80 38 50 100 94 98 98 94 80 78 53 16 15 26 33 46 67 98 97
42 47 48 40 44 43 40 20 20 13 11 9 4 7 13 15 20 27 25 29 62 67 79 82 53 57 35 39 100 58 67 100 96 98 100 93 81 93 63 41 19 14 18 38 54 58 76
43 48 49 45 42 44 41 34 19 20 11 11 6 4 11 14 17 21 24 26 33 53 60 84 62 45 28 31 97 46 83 96 100 100 100 100 100 99 68 47 24 14 14 17 24 45 51
40 45 50 50 45 47 42 40 20 22 13 12 9 5 4 12 14 16 22 25 23 43 48 82 81 76 27 28 36 32 86 99 100 99 100 99 93 92 83 57 32 22 16 16 18 17 27
44 50 56 51 48 51 46 43 31 24 17 14 13 7 4 7 16 16 20 21 23 25 44 75 79 82 89 29 24 41 96 100 100 100 100 92 91 81 91 75 56 44 26 18 16 21 20
58 56 58 53 56 53 47 44 35 25 20 16 14 11 6 4 6 21 16 16 23 21 24 39 72 75 46 85 38 96 100 100 100 100 99 100 87 87 94 91 83 72 47 31 26 20 17
60 53 54 53 59 62 54 46 39 27 22 17 15 14 9 5 4 8 22 17 22 26 26 25 53 63 61 66 69 29 99 100 100 100 90 90 78 81 86 82 72 69 55 40 31 26 24
58 56 55 54 62 71 62 50 43 31 24 20 16 16 11 7 5 4 22 24 17 23 28 28 30 56 57 60 55 58 79 99 99 97 98 94 96 98 91 76 66 51 45 42 39 32 31
59 56 54 55 63 69 72 52 45 35 25 22 16 16 12 10 8 5 4 19 32 20 26 33 26 50 56 62 74 74 60 60 71 73 73 74 80 78 77 68 49 44 52 46 33 28 28
59 60 53 52 54 66 73 58 45 37 28 20 15 16 15 13 9 8 6 4 25 28 26 28 32 29 40 63 66 74 75 66 47 42 38 37 50 42 40 56 53 48 44 40 41 40 43
66 66 58 56 52 61 63 59 47 40 27 20 16 18 17 14 10 8 6 4 4 27 31 28 25 30 29 30 44 40 59 79 89 94 85 53 41 36 38 62 70 74 62 46 34 39 48
70 61 63 66 59 66 67 62 52 41 31 21 18 19 18 14 12 9 8 9 6 4 27 38 23 23 32 38 34 35 34 66 90 96 91 79 86 90 82 70 48 40 42 33 42 66 40
74 58 65 78 64 71 68 66 56 44 34 22 21 20 20 16 14 9 10 9 6 6 4 27 44 22 27 46 46 54 38 40 48 85 100 100 99 100 100 97 100 95 91 81 70 56 58
74 72 82 86 67 71 72 69 59 47 38 24 24 22 22 18 17 14 12 14 8 6 4 6 46 49 28 43 59 58 56 60 54 45 48 67 80 87 90 94 93 89 92 77 59 68 65
86 88 74 75 67 71 76 72 61 50 42 34 28 28 26 21 18 18 15 16 10 5 5 5 12 52 64 42 58 68 65 53 51 64 59 54 52 51 51 51 54 67 74 75 75 73 60
87 88 87 71 70 71 82 77 64 56 49 45 38 42 43 40 29 23 19 20 15 6 6 6 6 33 51 78 78 66 72 72 62 53 55 51 54 58 54 56 50 34 51 60 69 68 80
83 87 82 74 78 74 84 80 68 63 59 48 46 55 58 45 37 29 20 23 16 10 5 5 5 7 85 56 78 88 88 81 80 71 62 62 64 61 61 65 44 58 59 55 49 64 67
89 89 85 77 78 79 90 81 71 64 56 53 60 54 52 50 41 35 20 28 18 13 7 4 6 6 22 100 50 66 86 75 82 86 84 82 81 80 71 65 56 64 62 60 56 57 55
98 95 91 76 82 85 96 82 74 67 61 63 62 58 59 51 48 37 32 32 20 15 6 5 7 17 56 75 100 48 69 67 58 56 69 70 79 81 79 77 68 64 66 61 63 64 59
98 100 91 82 83 90 91 77 69 62 62 65 60 58 60 39 37 38 38 31 19 10 6 7 15 34 75 97 94 98 52 55 50 44 46 47 59 74 83 74 74 68 69 69 65 58 61
93 99 92 84 86 98 84 78 74 63 61 70 64 53 53 49 36 39 33 23 15 5 7 19 42 60 88 100 96 100 100 63 44 46 44 38 37 42 73 64 65 71 61 61 62 58 68
99 98 94 89 95 96 89 87 72 65 74 71 62 50 43 47 47 38 24 18 10 7 16 54 95 74 88 100 92 92 92 100 62 38 45 40 38 52 73 61 60 55 46 54 52 55 62

GFSGBSN_500_rhum_078.txt.gz
RH
25 23 28 32 27 30 26 22 22 18 14 11 6 8 13 14 20 43 45 52 47 53 20 16 51 56 72 70 99 73 98 98 100 100 97 84 88 77 14 12 13 22 25 63 89 81 56
28 22 30 32 30 33 28 26 23 20 14 11 6 6 14 19 18 31 48 56 56 66 45 19 32 45 83 89 87 85 78 100 100 100 99 80 86 88 15 15 14 23 23 36 100 95 98
29 24 34 34 33 34 32 28 26 23 18 12 8 6 15 23 24 23 49 57 67 71 66 39 56 70 84 89 100 61 65 100 100 100 100 100 96 82 25 17 25 18 36 40 50 78 98
30 25 37 39 36 33 35 30 28 24 20 13 10 5 11 21 25 24 27 47 73 66 71 60 46 70 89 93 100 81 65 100 100 99 84 99 99 63 19 18 31 61 38 42 56 80 100
33 29 36 43 39 33 33 29 29 26 21 15 12 7 6 14 19 23 24 31 63 63 59 58 46 60 84 100 100 86 65 100 99 100 94 100 97 63 21 18 29 40 25 31 33 66 94
36 34 38 42 41 37 33 28 31 28 22 19 15 11 5 12 14 18 22 22 44 60 60 48 40 46 68 92 100 58 66 100 97 99 100 100 100 74 26 15 14 12 18 43 48 48 87
39 36 39 38 42 42 33 32 33 29 23 20 16 14 8 7 13 20 22 20 30 56 65 54 30 42 54 88 77 66 80 100 86 89 79 100 82 71 22 15 15 20 36 76 69 68 86
46 41 38 36 43 46 35 32 35 31 22 19 18 15 9 7 8 17 24 23 19 47 60 62 29 28 41 50 58 70 97 99 91 70 98 97 76 80 22 14 20 25 36 71 91 84 79
56 46 38 36 49 48 32 35 36 34 24 20 18 17 13 7 6 14 21 25 21 24 51 61 44 19 34 37 57 65 100 91 82 99 100 100 96 86 47 16 17 23 35 66 92 94 89
62 51 40 40 54 49 34 43 37 34 28 20 19 17 14 10 7 7 20 19 20 21 39 64 51 18 23 36 48 65 96 80 98 100 100 100 100 96 79 42 18 16 25 40 53 68 77
66 57 47 48 52 48 37 45 41 36 30 22 19 17 14 12 8 5 15 23 19 22 30 57 57 29 17 41 38 62 86 93 100 100 96 100 96 94 86 64 30 16 15 16 24 29 28
72 67 56 52 52 52 43 40 45 40 35 24 20 17 16 14 10 7 6 16 19 22 26 46 55 51 14 28 51 57 88 96 100 99 100 97 97 95 90 83 54 33 20 14 15 21 20
73 68 61 55 52 53 49 41 48 46 39 29 20 18 17 15 12 9 6 7 15 20 25 29 52 52 38 14 40 84 95 95 100 94 92 96 99 97 100 73 55 41 24 17 15 13 11
67 75 64 56 54 50 49 42 52 53 43 31 23 22 19 16 15 12 10 7 7 26 23 26 50 61 55 22 20 85 97 97 93 98 99 97 80 76 83 88 78 55 43 33 22 16 13
74 73 70 54 53 48 47 51 59 57 50 36 25 24 21 20 17 17 15 13 6 18 26 24 27 56 64 52 54 88 97 100 98 97 99 87 90 100 97 89 95 85 80 67 51 34 22
73 72 67 55 58 53 56 55 60 58 54 45 33 26 24 23 20 19 19 20 8 4 21 26 28 31 60 75 46 78 88 94 100 100 83 82 97 92 89 85 81 81 79 74 62 46 30
75 76 64 57 55 60 60 60 59 60 54 52 39 31 29 25 24 26 23 22 15 7 5 18 25 27 30 54 86 64 65 82 80 78 81 88 82 76 78 79 85 74 60 56 54 44 33
74 74 64 58 54 60 61 60 60 61 59 54 46 35 33 32 34 39 34 26 23 14 6 5 28 25 26 28 38 76 82 68 54 54 55 76 63 56 80 88 62 64 68 63 51 38 35
83 78 68 62 59 63 54 61 63 64 55 58 50 44 38 39 40 48 43 28 23 18 11 6 4 19 23 25 29 24 43 64 88 76 82 72 50 43 39 43 34 31 49 68 50 40 28
90 82 70 66 69 58 59 63 64 66 66 59 57 51 46 42 46 47 52 35 25 25 16 12 13 7 36 22 22 39 36 37 63 99 98 91 84 63 52 63 68 57 72 82 72 49 31
94 88 85 78 81 68 71 65 66 72 74 60 59 54 46 43 50 52 52 42 31 29 26 14 9 7 9 58 34 37 58 59 39 51 79 100 100 79 89 95 98 99 99 84 42 40 30
88 93 90 86 87 68 73 70 67 67 77 64 62 56 45 49 54 58 51 45 38 33 32 15 9 5 6 39 68 60 72 71 70 59 38 57 97 100 100 96 89 84 92 96 98 91 53
85 94 92 94 85 72 78 73 66 75 76 65 64 57 51 53 56 53 44 47 44 42 32 19 12 6 6 34 92 85 60 81 83 74 66 59 49 51 50 55 50 44 57 62 66 73 77
89 96 99 100 97 89 82 75 70 85 71 64 61 56 55 55 56 50 39 43 45 42 32 18 12 8 8 30 99 99 100 72 69 77 75 63 68 68 59 66 47 52 55 52 44 47 47
100 97 97 100 99 97 87 85 78 88 76 66 63 60 57 56 53 46 40 40 43 35 24 18 12 7 10 14 94 100 98 100 90 80 83 78 75 67 63 64 54 60 65 63 58 63 50
98 97 100 98 99 95 97 82 81 93 83 70 69 58 63 53 44 46 43 39 34 27 22 11 8 9 12 14 56 100 100 86 100 95 87 89 88 84 74 70 62 69 78 71 63 60 52
96 99 100 98 97 97 91 86 85 97 84 73 69 66 69 54 49 47 40 32 26 23 16 11 13 24 25 38 54 99 95 100 96 100 89 77 84 82 75 75 65 89 75 74 63 60 58
97 100 97 97 94 94 87 88 88 95 79 74 68 70 65 64 51 47 36 27 24 20 13 11 27 60 50 54 78 99 94 92 99 96 90 76 67 49 49 64 62 84 87 76 64 65 63
97 100 98 97 95 96 90 88 96 91 81 74 72 57 52 56 57 43 29 27 23 17 12 15 37 53 72 75 91 100 100 92 100 99 77 63 67 53 50 55 72 70 63 68 67 58 63

GFSGBSN_500_rhum_081.txt.gz
RH
21 36 31 29 40 36 30 20 17 17 16 14 14 14 12 7 7 13 20 18 30 60 55 33 28 29 44 68 100 100 100 85 85 97 100 100 100 84 19 15 21 41 53 29 26 16 28
28 38 36 31 37 40 35 23 19 21 18 15 16 16 13 9 6 12 19 21 25 58 64 38 44 50 44 51 99 100 100 87 73 100 100 99 100 94 36 19 16 33 39 43 45 47 34
33 39 40 35 37 39 42 26 22 24 20 16 16 16 13 9 7 9 18 24 27 55 71 37 45 64 71 54 82 100 100 96 69 100 95 99 100 94 84 51 27 19 29 28 33 50 53
38 43 44 37 38 36 45 30 21 21 22 18 17 15 13 10 7 7 17 23 23 51 69 43 35 66 81 75 63 100 100 79 74 100 87 100 99 96 62 85 43 29 17 17 24 39 57
42 49 49 39 39 38 46 36 20 20 24 21 19 15 14 11 9 6 13 21 23 43 59 47 27 60 95 99 93 92 100 96 94 100 91 100 98 99 81 84 41 93 25 11 19 25 81
42 49 55 41 42 42 48 40 23 23 25 23 20 16 15 13 11 7 10 19 22 39 48 47 24 53 87 100 100 79 98 100 100 99 97 97 94 84 99 84 57 38 18 13 13 24 38
46 50 59 47 42 44 49 34 24 27 27 25 23 18 16 15 15 10 8 18 20 31 44 42 20 44 82 100 100 51 96 100 100 89 80 94 92 94 94 72 34 36 22 20 27 35 36
57 54 63 55 45 49 51 40 29 28 30 28 26 20 18 18 19 17 10 11 18 28 36 37 16 34 58 65 75 42 99 100 100 86 94 94 75 98 93 54 22 22 22 26 30 36 39
68 62 66 60 52 53 53 46 33 33 35 30 27 26 21 20 20 21 17 11 15 23 29 38 17 24 34 48 55 51 98 95 73 82 82 83 86 95 89 66 27 18 26 37 30 28 43
72 69 69 64 57 54 52 44 34 36 39 36 30 29 24 22 22 24 23 17 13 18 29 44 21 18 30 33 42 82 68 67 69 81 78 88 88 85 90 73 26 17 25 29 31 29 44
77 74 74 69 60 56 50 45 38 42 44 39 36 28 27 26 24 28 27 21 18 18 26 45 30 17 21 39 56 65 70 72 87 76 100 100 99 99 84 82 30 15 17 22 26 32 48
85 84 77 66 61 55 50 45 48 48 46 43 39 36 29 29 28 33 35 29 22 20 24 38 47 20 16 34 56 59 64 75 98 100 100 96 91 88 95 82 46 24 16 16 18 25 30
80 86 74 70 64 55 52 49 52 52 53 47 44 42 34 33 32 35 40 33 26 16 24 29 46 48 13 20 45 50 67 86 97 97 100 99 90 96 98 89 66 52 20 14 14 14 12
87 87 72 76 71 59 59 56 56 56 56 50 48 45 42 36 37 35 41 37 33 25 15 22 31 50 38 14 30 57 52 66 75 89 85 75 83 86 95 83 85 74 44 23 16 14 12
91 90 76 79 73 61 58 67 59 59 55 48 49 49 47 43 40 37 42 44 39 28 16 15 24 42 55 29 18 60 62 68 60 77 92 81 85 100 97 94 79 69 65 46 32 24 16
92 96 82 80 73 66 61 69 59 59 58 54 50 51 50 52 42 40 46 47 42 31 25 19 14 26 44 62 34 46 79 74 68 87 91 88 96 93 81 84 86 83 80 63 54 43 32
95 96 87 80 74 72 65 65 65 58 58 58 55 52 51 56 43 43 49 45 42 39 33 25 17 14 25 33 72 63 72 86 91 100 100 97 96 88 87 81 83 87 87 84 77 61 51
96 84 93 82 77 77 71 65 71 62 60 62 57 57 54 58 46 48 47 42 41 42 39 31 17 13 13 25 31 81 77 100 100 97 100 98 86 86 94 92 83 81 76 75 68 54 49
91 74 92 86 81 76 76 72 69 65 60 60 58 57 57 59 52 52 50 46 39 42 43 36 23 18 11 9 27 38 60 92 91 89 82 94 93 84 90 80 78 85 92 89 77 62 44
95 81 84 84 95 85 77 78 72 67 69 61 58 55 57 58 56 54 52 43 37 40 41 33 23 20 13 8 14 32 54 61 66 74 99 83 67 69 73 62 49 51 75 58 35 41 45
96 97 90 91 94 83 88 81 71 74 74 63 61 56 56 57 54 52 47 38 37 40 38 30 24 17 11 11 7 25 50 82 84 63 100 100 100 100 90 70 65 50 43 44 35 43 32
97 98 86 94 89 94 96 83 80 86 82 73 68 61 60 62 58 53 46 42 41 41 32 26 22 16 12 13 12 8 64 65 95 90 63 90 100 100 100 100 72 68 79 80 88 96 63
97 97 97 91 89 96 96 90 93 94 90 82 78 70 64 66 59 55 52 46 40 35 29 25 21 19 11 12 14 46 98 100 98 100 100 79 68 86 98 100 99 61 99 99 92 92 96
97 97 96 96 99 92 91 94 94 94 94 89 86 74 68 71 64 58 52 47 40 34 26 25 24 16 10 12 14 24 100 100 100 96 100 97 92 87 72 76 78 72 69 80 68 59 53
98 96 97 96 96 92 91 97 98 91 90 91 84 76 70 74 67 58 49 40 36 31 28 27 21 12 10 16 20 17 84 100 98 99 82 97 99 91 77 71 54 63 60 55 57 65 47
97 97 98 97 94 95 95 97 95 91 85 92 87 78 75 70 66 56 46 39 32 26 26 23 15 10 12 15 23 15 94 100 100 100 100 95 99 100 82 69 53 63 75 71 63 59 58
96 97 97 98 97 96 91 95 95 91 88 94 88 84 76 73 64 55 44 37 27 24 24 18 11 11 18 20 28 25 84 86 98 96 100 100 100 96 96 88 64 84 95 89 77 66 65
97 98 98 97 97 95 92 98 96 92 88 97 92 90 81 78 64 54 43 34 28 24 22 14 9 15 29 32 32 74 32 74 94 95 100 100 98 90 87 85 71 76 92 93 81 75 77
97 97 96 96 97 97 97 96 95 87 88 96 97 94 95 82 69 54 40 35 28 25 18 9 11 24 43 53 41 82 72 76 66 78 100 99 99 98 77 68 57 61 84 81 76 80 71

GFSGBSN_500_rhum_084.txt.gz
RH
54 37 27 33 40 34 32 38 34 17 17 20 18 16 14 15 14 13 9 12 20 38 89 45 26 36 59 82 92 96 100 100 60 73 100 100 99 92 72 88 56 66 87 80 80 83 60
55 42 35 37 43 39 32 36 41 19 19 22 20 17 15 16 15 15 11 11 18 35 86 34 28 45 50 44 86 100 100 95 86 79 97 100 98 99 97 100 57 26 70 86 99 100 63
58 44 38 39 48 46 36 36 41 22 21 23 20 18 16 17 16 18 13 11 16 33 70 26 31 53 66 42 76 98 100 97 58 75 100 100 100 95 76 88 46 19 64 78 96 73 53
60 54 42 44 50 50 40 37 35 25 24 25 23 20 16 18 20 20 15 12 15 31 47 21 34 64 68 47 71 95 84 94 47 90 100 100 100 96 76 84 71 40 35 78 100 69 33
63 61 49 46 52 53 41 42 43 28 27 27 28 24 18 19 21 23 17 12 14 26 34 19 26 57 74 46 76 100 100 88 66 84 100 100 97 98 82 77 70 70 37 44 71 76 59
61 67 54 49 55 56 45 43 45 34 27 29 29 26 23 20 21 24 20 13 13 22 27 16 23 64 95 56 93 99 100 88 72 100 93 99 99 81 100 91 70 89 42 26 31 49 44
62 71 60 55 58 59 49 44 41 27 28 30 32 28 27 22 22 25 22 14 13 20 26 13 18 61 64 56 92 100 100 68 91 94 90 100 92 84 100 100 88 93 92 20 17 21 24
65 79 67 62 66 62 55 49 44 32 28 31 35 32 30 25 23 26 27 16 13 15 23 14 15 37 40 39 70 80 63 66 100 86 100 94 85 95 96 90 99 94 71 56 37 20 18
72 81 70 65 72 68 61 53 43 35 30 34 36 34 33 30 26 26 30 19 14 16 21 15 17 18 23 22 40 50 55 77 95 96 100 100 100 82 96 96 88 82 57 51 34 34 32
83 81 74 70 76 72 61 51 42 41 33 39 34 37 36 33 29 26 28 21 16 16 19 18 17 23 20 31 81 61 48 69 62 72 87 78 81 88 90 85 92 71 30 29 29 25 28
95 86 80 78 79 73 62 52 45 44 35 41 36 38 38 33 31 28 28 23 19 17 19 23 15 25 32 36 40 60 50 55 58 68 72 73 74 73 78 91 79 62 44 20 18 21 17
92 96 90 87 80 78 65 58 52 46 43 40 36 39 40 38 33 31 30 26 22 19 18 21 26 26 33 41 54 51 56 57 53 57 61 62 71 59 57 78 78 64 47 24 18 17 14
91 97 94 92 84 86 70 68 65 52 49 45 36 40 42 38 34 36 32 30 26 24 19 15 22 22 28 43 42 46 51 55 57 62 67 68 67 80 79 79 76 77 55 17 18 17 14
77 97 99 97 91 87 80 70 70 58 53 53 43 40 45 39 35 38 34 34 29 28 24 14 13 23 23 16 47 48 63 74 80 81 77 80 67 75 65 83 80 70 55 31 18 13 13
66 98 99 100 99 91 84 74 69 66 58 57 48 46 46 41 40 41 39 34 27 30 28 22 15 14 26 29 17 60 60 79 76 83 97 100 89 84 81 83 93 91 68 48 27 16 14
74 99 98 99 98 95 88 80 81 71 62 62 51 49 46 46 43 43 43 36 30 32 32 26 23 17 13 24 37 23 77 90 89 70 96 94 100 94 85 94 94 83 85 72 58 35 27
63 86 99 98 97 97 94 88 85 80 66 64 56 54 48 48 47 46 45 38 35 36 36 29 26 22 16 13 24 48 44 88 97 98 92 100 100 100 100 91 89 99 80 68 63 55 49
53 86 98 97 97 99 97 95 92 86 71 71 64 56 52 51 49 48 48 44 41 39 39 32 26 22 17 13 11 25 65 69 95 100 100 100 100 100 100 100 96 87 81 74 72 61 59
59 99 98 97 96 98 98 96 95 87 87 74 71 60 56 54 54 55 53 51 47 44 38 33 26 25 22 14 12 10 37 99 92 100 100 100 99 100 100 98 89 80 82 79 76 67 57
64 86 97 97 96 97 98 96 97 95 87 86 78 75 69 61 60 61 55 54 49 43 37 32 25 26 24 15 13 13 9 56 97 100 100 100 100 100 100 98 99 94 100 92 84 54 65
96 89 95 97 96 92 97 96 97 95 94 91 85 80 78 71 63 64 60 58 51 40 35 27 24 25 22 12 13 16 14 12 76 100 100 100 100 98 100 97 99 100 97 70 66 79 64
99 94 97 97 96 92 95 92 97 95 96 96 93 88 76 78 66 66 62 59 50 42 34 25 24 24 17 9 13 15 30 45 62 99 100 92 100 100 100 99 87 84 88 68 50 42 31
95 97 96 98 97 96 96 94 95 95 96 97 91 84 80 77 70 66 64 59 50 42 32 25 22 19 12 8 8 10 18 55 100 82 100 100 93 100 100 100 99 80 86 86 73 55 84
97 97 97 97 97 96 96 96 95 96 95 96 94 86 85 81 74 71 69 58 50 44 31 26 22 17 10 8 9 8 13 18 100 100 98 81 98 100 94 93 90 81 100 96 78 95 92
97 92 93 98 97 96 95 97 95 96 95 96 95 88 85 81 77 74 71 60 54 43 32 25 21 15 10 8 10 7 10 35 83 83 99 100 99 100 100 97 67 72 85 95 92 81 63
95 92 96 92 94 97 96 97 95 96 96 94 96 87 89 89 81 76 72 64 57 39 30 23 18 14 9 8 15 11 17 70 100 100 77 76 74 90 94 93 77 73 80 76 66 57 59
98 97 98 99 93 97 97 98 96 96 95 94 96 92 95 95 85 79 72 68 51 38 27 22 17 11 9 13 24 16 17 91 90 94 100 100 100 95 84 80 72 81 83 76 61 56 58
96 96 98 96 76 96 97 98 97 96 96 93 96 89 99 92 84 77 72 64 47 34 26 19 15 11 10 20 31 31 31 46 81 100 100 100 100 99 96 80 74 88 82 67 68 74 74
98 95 96 74 75 97 98 98 97 97 95 93 95 95 92 78 76 71 70 60 42 31 23 18 13 10 11 30 40 41 37 23 61 80 92 94 88 94 100 98 83 80 74 72 76 77 77

GFSGBSN_500_rhum_090.txt.gz
RH
52 53 54 64 76 57 45 45 50 53 41 37 33 27 19 14 11 9 9 8 8 6 5 4 7 19 25 79 99 86 80 100 75 99 97 100 100 94 78 57 76 100 91 86 97 85 97
57 53 64 64 80 60 46 47 54 56 44 37 33 29 20 15 12 10 10 9 9 7 5 4 6 15 75 63 92 84 82 100 91 90 100 97 100 100 84 73 96 93 98 91 98 88 74
62 54 62 70 85 66 44 48 57 59 46 40 37 30 24 15 13 11 11 10 10 8 6 4 4 9 13 76 87 86 88 100 78 85 90 96 100 96 70 69 78 99 98 98 98 99 96
60 62 60 74 81 77 43 47 60 62 50 46 38 32 27 17 14 12 12 10 10 9 6 4 4 8 26 83 73 100 78 98 82 85 75 78 88 82 90 69 59 98 100 97 96 97 94
56 64 71 72 81 89 48 47 64 66 54 46 40 34 30 20 16 14 14 12 11 10 8 5 4 10 63 66 63 62 69 89 98 68 53 48 70 84 94 92 83 87 86 97 99 98 100
88 68 70 66 78 95 60 48 70 69 56 48 41 35 31 24 19 17 16 14 12 12 9 7 5 13 54 64 76 63 40 45 54 60 47 31 41 66 97 89 79 78 97 99 95 99 97
94 83 90 64 93 90 71 48 76 72 59 50 42 36 34 28 22 20 18 17 14 12 12 9 6 6 23 43 50 60 50 36 23 54 54 58 70 39 62 81 100 68 61 89 78 94 98
98 92 80 65 81 92 83 48 84 79 64 53 43 38 37 29 26 23 21 19 16 14 13 11 8 6 13 23 36 39 38 100 24 48 63 61 76 80 49 71 67 83 76 61 100 93 99
96 94 82 95 67 90 92 54 87 87 70 58 49 40 41 33 29 25 24 22 19 16 15 14 13 8 8 14 22 27 21 46 77 65 74 52 60 57 67 52 54 75 98 100 84 96 81
66 96 97 97 72 85 98 64 91 93 77 66 56 48 43 38 32 28 27 26 22 18 18 18 17 16 12 9 9 11 13 18 71 50 72 66 70 64 73 76 85 78 98 88 92 77 61
23 89 95 98 81 70 100 75 92 94 85 76 60 55 50 44 38 34 30 30 26 21 19 21 19 15 17 23 12 8 8 12 30 63 61 70 62 50 46 67 74 84 77 100 95 84 76
16 44 96 91 98 80 96 86 90 92 90 90 68 61 56 48 43 38 36 34 32 26 21 22 22 18 14 16 28 18 10 15 21 44 68 66 61 54 61 54 76 77 88 87 96 100 78
25 15 81 95 98 93 100 98 90 96 90 95 74 63 58 53 48 43 40 38 37 32 28 24 23 22 17 16 16 27 34 22 34 51 65 72 68 61 64 80 82 90 100 100 99 95 64
15 21 41 96 97 93 93 97 83 96 94 94 78 68 61 57 50 46 44 41 42 36 33 29 25 25 24 19 14 15 24 46 39 56 62 64 71 68 62 64 86 94 100 99 100 93 76
6 20 20 93 97 96 63 92 97 95 96 94 86 73 65 60 52 50 49 45 45 41 36 34 28 28 26 23 16 12 14 32 55 54 58 68 61 72 70 75 61 79 81 100 99 91 73
6 10 16 72 96 97 71 83 92 92 96 96 93 80 72 59 56 55 53 51 50 46 39 36 31 29 28 25 17 13 12 15 45 69 76 76 70 80 88 74 68 84 100 94 84 86 68
7 10 13 56 94 98 99 86 82 96 96 96 95 84 76 68 67 61 58 55 55 53 43 39 33 31 28 25 17 15 12 12 21 55 92 100 100 98 93 82 83 100 94 100 97 94 84
7 7 14 30 96 98 94 73 98 95 96 96 95 92 81 73 74 70 63 57 54 55 47 44 36 33 29 24 16 15 11 14 25 98 96 100 100 100 100 100 100 100 100 100 99 91 100
8 6 13 49 97 98 92 90 99 95 96 96 96 95 90 76 76 71 65 56 54 54 49 47 38 34 30 24 14 14 10 11 17 81 100 89 100 100 100 100 98 91 100 100 98 100 84
9 8 17 60 97 98 79 99 98 96 96 95 97 94 90 81 75 74 67 57 59 61 56 49 40 35 29 22 14 10 10 9 14 39 91 100 82 96 99 99 97 97 100 100 100 97 93
6 7 11 88 98 97 93 90 91 96 96 95 96 96 93 84 77 72 68 65 64 69 64 53 42 36 26 19 13 10 9 8 10 26 84 100 100 72 85 100 100 99 100 100 95 90 88
5 6 47 97 98 97 91 87 93 96 95 96 98 97 100 84 81 80 78 77 72 75 61 51 41 37 28 18 12 8 8 9 7 11 84 98 99 100 100 91 96 87 100 93 86 94 81
7 12 70 97 98 97 98 81 93 97 95 96 97 96 97 93 92 86 76 70 70 65 58 50 43 37 26 18 12 8 7 9 7 8 36 90 91 100 100 100 100 100 100 91 95 100 96
19 53 94 98 98 97 86 92 95 97 95 96 96 96 97 94 100 88 76 69 61 57 51 44 41 35 24 18 12 8 7 8 10 8 16 90 94 98 100 99 94 83 100 96 78 70 67
74 89 98 98 97 97 90 94 95 98 96 96 96 97 96 97 93 86 75 64 55 55 49 45 41 32 24 18 13 8 8 9 13 10 15 66 80 96 100 97 100 100 100 100 87 86 88
100 96 96 98 97 96 91 98 97 98 96 96 96 97 95 97 90 87 73 62 55 54 52 48 40 31 24 19 13 8 8 12 25 28 86 85 54 81 99 96 99 95 94 98 99 90 81
99 100 98 98 98 97 97 96 96 97 96 96 96 97 90 97 90 81 74 69 62 53 48 43 37 30 25 19 12 8 10 18 26 38 91 94 83 53 97 100 100 96 100 100 87 77 67
97 95 97 98 97 97 96 96 97 97 98 95 98 95 88 94 89 78 72 70 60 56 48 42 38 30 26 18 11 8 12 22 27 49 61 72 66 68 99 100 92 91 95 96 78 75 63
97 98 98 97 96 96 98 97 98 97 94 91 94 95 93 92 83 70 70 64 58 56 45 46 37 32 25 18 11 8 12 26 35 37 45 92 100 82 90 93 92 93 86 78 80 74 68

GFSGBSN_500_rhum_093.txt.gz
RH
87 83 70 65 61 61 79 73 48 47 53 58 49 43 37 30 15 15 14 10 8 6 5 4 4 8 11 56 62 75 82 58 90 85 98 99 100 64 62 75 97 87 97 98 99 96 90
88 83 60 64 65 63 91 83 57 46 54 62 52 48 38 32 17 16 15 11 9 7 5 4 4 6 11 50 60 80 81 59 93 100 100 100 99 84 51 57 94 98 99 97 98 95 96
74 94 72 61 64 65 88 83 70 47 54 66 55 50 39 33 20 19 16 12 10 8 6 5 4 6 11 35 59 76 75 58 83 98 100 100 100 91 58 39 64 100 98 99 95 96 87
30 71 94 67 60 70 83 97 86 50 56 72 58 52 40 34 23 21 18 14 12 10 7 6 5 8 18 55 62 84 68 65 62 88 100 100 100 98 71 42 54 92 98 98 95 97 98
7 32 82 95 63 66 74 99 92 66 58 81 59 54 43 37 25 23 19 17 13 12 9 8 6 10 20 37 66 82 39 45 63 91 98 90 98 97 85 61 55 57 80 92 94 96 96
5 7 38 93 86 76 68 86 89 76 61 88 62 55 44 38 28 23 22 20 14 14 12 9 8 8 15 26 41 61 33 25 40 64 87 83 94 78 89 81 61 54 85 96 98 99 91
5 7 19 52 98 82 72 89 95 89 58 93 69 59 45 40 31 25 24 22 17 16 14 11 10 6 8 14 28 35 44 27 23 28 52 50 56 62 66 88 62 66 98 100 98 99 97
22 4 7 29 89 97 80 83 97 92 70 95 79 64 50 44 35 29 27 25 21 17 18 14 12 9 6 6 16 22 28 29 18 13 19 22 27 44 59 80 84 79 90 100 99 98 100
33 14 5 13 52 95 68 82 94 95 70 94 90 70 60 50 42 34 32 29 24 19 19 17 15 12 10 7 8 16 25 13 15 12 21 22 20 22 38 47 65 73 79 93 98 99 97
37 29 7 8 18 92 95 98 98 94 89 94 93 78 68 58 48 40 37 33 27 21 21 21 18 16 14 15 9 8 14 21 15 19 22 22 44 53 49 34 31 59 71 85 92 86 99
39 36 14 6 18 60 96 97 87 98 83 91 96 87 77 65 55 46 41 37 31 26 22 24 22 19 14 12 18 14 10 15 20 59 37 35 52 54 46 54 54 50 53 59 88 77 82
26 39 26 7 11 21 94 94 87 99 68 88 96 94 87 70 61 52 44 41 36 32 26 27 27 24 20 14 13 19 21 15 15 30 58 63 58 53 58 56 71 78 84 82 82 88 93
6 29 33 10 7 11 96 97 89 98 59 86 96 96 88 74 69 55 47 47 42 37 32 30 29 29 25 19 13 13 19 35 25 22 29 46 51 50 56 49 49 62 63 93 95 92 77
4 18 34 13 77 9 49 98 92 96 80 87 96 97 92 88 86 57 50 50 47 43 37 37 33 32 28 22 15 13 12 20 46 41 29 57 73 75 75 76 80 90 98 99 89 75 71
4 9 32 17 48 50 33 97 99 96 91 80 97 97 94 96 91 58 52 53 51 50 41 40 37 34 30 25 17 15 11 10 21 57 68 78 79 95 97 100 91 96 85 95 94 94 89
7 6 30 20 32 65 30 98 98 98 100 86 96 96 95 96 91 63 56 54 52 49 45 40 38 37 30 24 17 14 12 10 11 22 68 77 83 100 100 99 95 94 98 95 92 94 88
12 7 27 17 37 26 40 90 96 98 96 89 96 96 96 96 93 74 65 58 52 50 47 43 41 38 34 25 18 14 12 11 10 14 29 78 93 88 86 73 81 99 83 79 86 98 89
12 9 21 22 52 6 56 97 96 97 94 91 95 97 96 96 94 78 69 59 52 58 56 50 44 40 35 27 19 13 12 10 11 23 79 99 92 100 100 98 99 100 99 100 93 86 78
8 10 14 42 89 29 18 93 96 98 94 92 96 98 96 96 95 88 72 63 60 64 61 54 43 41 35 26 16 13 11 10 10 17 79 99 93 83 100 97 100 98 95 92 98 91 91
10 11 11 22 7 42 88 96 97 98 96 78 97 96 97 98 95 92 78 69 66 64 59 48 41 39 34 26 18 12 10 9 9 12 28 79 100 100 88 100 100 99 100 100 100 98 80
10 10 22 99 19 60 83 97 97 98 89 86 97 96 96 98 96 93 83 77 70 64 48 45 42 39 32 23 18 13 9 8 8 8 12 29 87 100 100 98 100 100 100 99 94 98 96
9 10 15 51 41 98 61 86 93 97 90 95 96 97 99 98 94 86 83 76 61 53 46 46 41 37 30 23 17 12 9 8 9 7 9 13 57 100 100 100 85 92 97 100 100 100 94
9 9 16 85 33 16 29 88 90 98 90 96 97 96 98 100 93 89 80 72 61 49 50 43 38 35 29 24 18 12 8 8 9 8 7 13 61 98 81 100 98 85 91 100 100 98 92
8 8 18 68 98 94 98 96 94 98 96 96 96 96 96 100 94 85 78 64 56 51 48 45 40 36 28 24 18 12 9 7 10 10 9 12 81 93 94 100 98 100 98 100 83 91 88
9 8 45 80 44 44 90 99 98 97 88 97 97 95 96 98 97 85 76 66 62 59 49 43 38 34 27 25 18 13 9 9 11 12 16 17 67 96 92 100 99 100 100 96 98 100 96
12 9 11 11 78 100 96 98 98 97 97 97 98 97 97 100 96 86 75 71 68 60 48 45 40 32 28 25 20 14 9 7 11 15 37 48 64 85 78 100 100 100 100 93 99 100 95
8 10 12 60 93 94 98 99 97 96 94 96 97 96 98 97 94 85 79 70 65 58 47 42 40 29 29 26 20 14 9 8 14 20 24 47 71 85 77 85 97 100 86 90 84 86 92
14 17 7 39 89 94 98 98 97 96 97 96 97 98 94 97 92 83 73 62 57 49 42 37 37 32 32 27 20 14 9 9 14 27 26 43 51 64 74 70 83 88 100 80 76 95 88
19 13 12 87 96 99 96 96 96 97 96 96 98 88 85 94 89 81 67 56 46 46 37 36 36 35 33 27 20 14 9 9 14 30 35 34 35 47 69 78 80 68 63 78 71 62 82

GFSGBSN_500_rhum_096.txt.gz
RH
10 10 8 17 29 83 75 71 71 81 82 56 49 58 62 48 41 34 21 16 11 8 7 5 4 4 7 22 38 62 62 81 97 100 100 76 67 82 100 99 94 80 98 93 97 91 90
18 10 9 9 15 35 67 68 71 76 86 71 47 57 68 51 43 34 23 18 12 10 8 5 4 4 8 11 52 67 66 69 99 86 71 60 60 74 83 89 99 98 99 92 94 91 99
22 22 6 9 8 15 48 67 67 75 81 82 52 58 74 53 47 33 23 20 14 12 9 6 5 5 10 28 47 55 62 83 93 100 100 63 42 46 54 71 99 99 97 98 96 97 96
17 26 21 6 6 10 25 66 62 70 88 83 78 61 76 57 48 33 23 22 15 14 10 8 6 6 11 19 43 50 65 85 100 100 98 100 62 35 48 56 90 94 98 99 98 90 86
21 28 26 14 6 9 12 38 67 67 82 85 73 74 81 61 49 35 24 24 16 16 12 10 7 8 11 18 31 42 64 77 82 81 80 99 85 64 38 45 75 96 97 96 99 98 96
23 29 33 28 14 8 12 27 73 77 81 86 94 72 89 68 51 39 28 27 19 18 15 12 9 8 9 12 12 39 59 72 74 68 78 82 76 63 61 40 40 85 96 96 97 97 97
18 29 32 38 30 16 8 18 38 97 76 97 97 85 93 76 54 44 33 31 23 19 18 14 11 8 6 7 10 14 34 50 64 53 56 59 63 70 61 39 33 54 96 98 98 97 98
20 21 26 35 41 29 13 20 48 96 83 98 96 94 95 81 62 50 38 36 29 20 20 18 13 10 8 6 7 10 15 24 28 47 62 56 45 47 52 38 29 39 51 92 94 96 99
12 18 19 23 33 38 17 29 94 93 95 100 97 91 96 88 72 55 44 40 34 24 23 22 17 12 11 9 7 7 10 15 21 30 35 44 38 30 40 57 52 41 46 66 81 93 88
4 5 8 16 25 40 49 40 98 90 97 95 92 89 96 97 78 63 49 45 38 30 25 25 20 16 12 12 11 9 8 8 20 20 19 19 28 31 22 42 62 55 58 50 72 95 98
14 12 6 6 15 31 42 72 88 98 94 98 97 95 96 97 87 77 69 48 42 35 31 28 26 20 17 12 12 12 12 9 7 8 15 19 17 19 20 30 46 49 55 53 57 92 97
26 29 20 8 6 21 48 84 29 90 98 99 94 88 96 96 94 92 79 51 47 41 35 34 32 27 22 16 12 12 16 18 14 11 9 18 34 49 64 60 50 44 39 44 77 64 72
33 41 36 12 5 14 37 63 99 98 86 98 98 78 94 96 95 94 73 54 48 47 38 36 34 31 26 20 15 11 11 12 19 21 23 29 32 47 78 72 72 67 79 80 74 91 81
58 54 48 35 6 9 29 74 100 83 98 98 98 85 96 97 97 95 67 56 53 48 44 39 39 35 30 24 17 13 11 10 10 16 32 40 91 72 88 77 77 82 100 100 84 78 85
63 60 56 44 6 8 21 53 98 70 99 97 97 89 96 97 96 96 68 59 56 51 46 42 42 38 34 27 19 15 13 10 10 10 17 42 36 56 77 79 88 75 75 97 100 91 80
74 54 8 10 6 8 23 89 38 99 95 98 92 91 96 97 96 97 66 64 56 49 48 47 45 40 34 26 19 14 13 10 9 11 15 23 47 65 86 100 93 88 100 100 99 99 89
83 11 3 8 6 9 28 95 80 53 99 98 97 90 96 97 96 97 72 72 60 53 56 50 47 41 32 25 18 14 12 10 8 10 14 25 28 66 98 98 100 100 100 97 99 100 94
44 11 3 8 7 11 28 94 99 100 99 98 99 96 97 97 96 97 78 76 62 60 57 49 45 40 35 27 20 14 12 10 9 9 15 42 76 65 95 96 100 100 100 100 100 79 81
14 6 5 7 7 15 38 99 99 97 99 98 96 96 94 97 96 98 89 78 64 63 55 46 44 38 35 28 20 14 12 10 9 9 16 32 94 100 94 98 99 90 79 78 81 83 69
7 4 9 6 10 24 51 92 77 99 99 96 94 94 92 97 96 98 92 80 70 67 53 49 42 38 34 27 20 14 11 9 10 8 9 16 43 100 100 92 95 97 100 96 96 92 73
6 6 8 8 14 24 92 100 100 83 98 99 97 90 96 97 97 97 95 86 77 60 52 50 42 37 34 27 21 15 11 8 9 8 7 13 20 66 92 88 100 99 96 100 99 96 94
8 12 12 13 24 81 100 83 78 99 93 97 96 97 95 98 97 97 96 92 72 62 53 48 42 36 31 25 20 15 11 9 9 8 6 6 10 18 87 99 91 96 98 96 98 100 80
18 17 13 16 34 100 95 30 41 57 100 98 96 96 96 97 97 96 93 90 72 57 52 50 45 37 29 25 21 16 11 10 9 8 7 6 9 18 57 100 82 62 70 94 99 98 89
15 14 18 25 97 98 77 83 100 96 100 98 96 97 97 97 97 93 93 81 68 54 57 52 44 37 28 27 21 16 12 10 9 8 8 7 9 22 62 92 98 80 92 72 63 81 87
12 14 18 83 99 77 78 100 97 100 97 97 95 97 97 98 96 97 93 73 69 66 56 50 45 38 30 28 22 18 13 10 9 8 9 9 14 32 95 95 100 92 99 100 97 92 78
11 13 42 79 40 25 100 93 84 99 97 99 93 97 95 98 98 95 88 82 76 71 60 49 42 37 29 29 24 19 14 11 9 9 11 12 24 39 49 78 98 100 99 96 100 100 95
11 44 96 100 68 66 100 97 95 99 97 95 96 97 96 98 96 96 86 82 74 67 52 45 40 35 31 30 25 21 15 11 10 10 12 17 23 40 62 52 85 100 88 78 70 76 73
14 94 100 95 100 46 53 83 92 97 97 95 96 96 96 98 99 91 88 81 65 49 44 40 38 33 34 32 27 23 17 12 9 10 12 18 20 28 38 69 83 96 99 91 84 76 64
24 57 99 77 58 70 100 99 92 96 94 91 97 97 98 96 98 95 81 67 50 50 39 34 34 34 34 33 29 25 20 14 10 10 12 17 20 23 31 30 58 64 70 70 82 84 82

GFSGBSN_500_rhum_099.txt.gz
RH
22 21 17 17 18 18 17 10 13 38 64 69 72 93 76 44 66 59 48 30 21 14 11 7 4 3 4 6 16 47 62 90 100 99 100 89 93 24 14 93 98 100 97 98 98 94 94
27 25 23 19 17 20 23 10 9 28 61 64 69 72 89 61 70 60 49 28 22 16 13 8 5 4 5 12 29 38 56 90 75 80 84 60 93 63 98 99 100 98 77 82 98 99 88
28 26 24 22 19 16 25 17 6 21 49 69 71 75 91 92 84 64 49 28 24 17 14 9 6 5 7 18 31 41 40 50 54 83 65 43 92 58 99 99 98 97 97 80 91 93 90
32 29 25 21 18 19 24 27 11 12 51 64 72 92 99 86 94 72 50 30 27 18 16 11 7 6 10 32 32 32 80 62 54 32 44 52 47 86 99 98 99 100 97 100 100 94 82
33 30 26 24 20 19 24 29 26 12 40 61 74 85 97 96 95 80 53 33 30 19 18 13 8 6 10 27 50 50 60 74 68 38 41 27 27 44 61 96 95 97 100 100 100 99 87
36 33 28 23 24 19 19 25 33 14 81 72 70 90 100 91 95 86 55 37 34 21 20 16 11 7 6 15 27 39 46 56 35 33 36 40 27 32 38 70 90 99 100 96 97 97 99
42 34 25 20 19 23 17 19 32 25 15 94 74 96 97 95 96 88 59 41 38 26 22 20 14 9 7 6 23 32 35 37 42 32 22 24 30 23 20 26 70 87 94 94 98 98 92
42 33 23 14 13 12 12 16 21 34 15 95 97 98 96 95 96 92 66 47 42 32 23 24 17 11 9 7 6 10 31 29 23 31 35 18 16 21 25 17 19 36 47 90 96 96 96
44 34 24 16 10 6 5 8 18 34 26 97 99 93 97 93 96 95 68 53 46 36 26 27 21 15 11 10 8 6 8 29 32 38 40 30 26 18 18 35 17 17 22 73 93 99 98
46 30 16 7 7 9 6 7 18 26 23 79 98 97 95 94 94 96 71 60 51 41 30 29 27 18 14 12 11 9 8 7 24 30 32 31 31 29 27 28 32 23 20 27 64 86 92
34 16 8 6 14 24 17 7 11 19 33 46 98 99 94 92 94 96 81 84 56 48 36 32 31 24 18 15 12 10 11 9 8 14 17 21 25 29 28 22 25 32 27 31 36 34 49
17 7 9 15 21 30 29 9 7 17 37 76 98 99 97 95 92 97 89 94 60 49 45 37 34 30 23 18 15 12 9 10 12 10 10 17 22 25 28 28 28 28 54 51 48 43 36
8 12 23 31 36 38 37 16 6 13 36 84 99 98 97 97 88 97 95 93 58 54 46 43 38 35 28 21 16 14 12 9 9 10 14 15 11 19 28 26 27 27 42 51 57 75 50
8 39 58 68 65 51 49 28 7 10 37 98 100 99 97 98 87 97 96 91 62 59 55 48 43 39 33 25 20 16 13 10 9 9 10 13 24 35 50 57 80 92 90 73 61 57 79
35 78 75 70 61 56 46 25 9 10 61 99 99 99 97 95 95 97 97 89 60 64 58 50 46 44 36 28 21 16 13 10 9 8 10 12 19 38 79 97 92 85 96 83 100 73 68
85 86 74 71 74 48 51 26 8 12 65 99 100 100 96 96 97 95 97 93 62 66 61 54 51 46 38 29 20 16 13 10 9 8 8 12 16 33 59 77 100 100 99 95 83 100 99
94 95 91 100 99 29 21 27 16 14 80 99 100 99 97 97 97 95 97 89 66 70 62 59 54 46 40 30 22 16 12 10 9 8 8 11 14 31 76 83 88 96 95 86 85 90 78
97 98 100 99 64 14 12 16 16 17 66 100 99 99 98 93 94 96 97 93 77 71 66 64 54 44 41 32 23 16 12 10 9 7 8 10 18 32 66 98 100 100 100 100 100 97 94
95 72 97 100 27 6 11 10 10 23 92 100 96 100 97 94 97 96 97 94 80 70 69 64 55 45 39 31 22 17 13 10 9 8 7 9 21 35 95 90 93 100 100 100 100 100 84
82 32 40 28 5 6 9 9 15 83 100 99 98 95 96 97 97 97 97 94 82 75 71 60 53 47 43 31 24 18 13 10 9 8 6 7 14 23 72 100 100 100 100 100 100 99 69
44 11 50 30 4 7 8 10 49 99 99 94 98 95 98 98 98 97 97 96 80 83 72 56 50 46 42 31 25 18 12 10 9 7 6 5 8 12 51 100 100 99 93 97 92 90 82
22 65 100 100 30 8 8 16 90 100 100 100 91 100 98 99 93 95 97 97 86 84 67 60 55 47 40 30 25 18 13 10 9 7 5 5 5 7 16 91 100 95 100 100 100 100 83
12 14 100 91 12 11 14 61 100 99 98 90 85 98 97 97 98 97 97 96 91 83 66 60 55 49 40 29 25 18 14 10 9 7 6 4 4 8 10 42 90 86 100 100 96 100 99
8 4 43 22 13 12 23 78 100 97 92 94 100 99 98 97 97 97 97 95 88 90 70 63 54 49 37 29 25 20 15 10 10 8 6 5 5 9 15 18 71 84 94 74 73 88 87
7 10 13 10 14 15 84 99 98 99 100 97 99 98 97 98 96 96 97 92 88 82 70 65 53 44 37 29 26 22 16 11 10 8 6 6 7 11 25 37 82 100 95 81 66 54 55
6 16 9 11 13 52 98 100 99 97 100 94 98 97 97 97 93 97 98 92 86 82 79 69 53 40 33 32 28 23 18 13 11 8 7 7 7 10 24 57 64 100 97 88 85 88 79
4 8 8 12 24 88 100 92 100 91 62 93 98 97 97 98 95 94 98 90 85 84 80 62 48 38 30 32 30 24 20 15 11 9 7 7 7 11 14 23 41 84 96 93 97 100 100
4 7 11 52 96 100 92 60 60 93 99 100 94 97 98 98 95 96 96 90 88 85 67 52 40 36 34 34 31 27 22 16 12 9 7 6 6 11 17 19 29 58 78 99 100 99 99
4 10 15 56 97 98 94 99 97 100 90 90 97 97 98 98 89 96 99 94 86 67 54 41 38 35 35 34 32 29 24 18 13 10 8 6 5 8 14 20 38 41 57 82 93 93 92